[[{"header":{"parameterUnit":"m.s-1","parameterCategory":1,"la1":31.0,"la2":29.5877,"lo1":-88.7671,"lo2":-86.6584,"dy":0.0162,"dx":0.0185,"nx":115,"ny":88,"refTime":"2023-09-23T12:00:00:Z","depth":0,"parameterNumber":2,"parameterNumberName":"U-component_of_WINDS"},"data":[0.0,0.0,0.0,0.0,0.0,0.0,0.0,0.0,0.0,0.0,0.0,0.0,0.0,0.0,0.0,0.0,0.0,0.0,0.0,0.0,0.0,0.0,0.0,0.0,0.0,0.0,0.0,0.0,0.0,0.0,0.0,0.0,0.0,0.0,0.0,0.0,0.0,0.0,0.0,0.0,0.0,0.0,0.0,0.0,0.0,0.0,0.0,0.0,0.0,0.0,0.0,0.0,0.0,0.0,0.0,0.0,0.0,0.0,0.0,0.0,0.0,0.0,0.0,0.0,0.0,0.0,0.0,0.0,0.0,0.0,0.0,0.0,0.0,0.0,0.0,0.0,0.0,0.0,0.0,0.0,0.0,0.0,0.0,0.0,0.0,0.0,0.0,0.0,0.0,0.0,0.0,0.0,0.0,0.0,0.0,0.0,0.0,0.0,0.0,0.0,0.0,0.0,0.0,0.0,0.0,0.0,0.0,0.0,0.0,0.0,0.0,0.0,0.0,0.0,0.0,0.0,0.0,0.0,0.0,0.0,0.0,0.0,0.0,0.0,0.0,0.0,0.0,0.0,0.0,0.0,0.0,0.0,0.0,0.0,0.0,0.0,0.0,0.0,0.0,0.0,0.0,0.0,0.0,0.0,0.0,0.0,0.0,0.0,0.0,0.0,0.0,0.0,0.0,0.0,0.0,0.0,0.0,0.0,0.0,0.0,0.0,0.0,0.0,0.0,0.0,0.0,0.0,0.0,0.0,0.0,0.0,0.0,0.0,0.0,0.0,0.0,0.0,0.0,0.0,0.0,0.0,0.0,0.0,0.0,0.0,0.0,0.0,0.0,0.0,0.0,0.0,0.0,0.0,0.0,0.0,0.0,0.0,0.0,0.0,0.0,0.0,0.0,0.0,0.0,0.0,0.0,0.0,0.0,0.0,0.0,0.0,0.0,0.0,0.0,0.0,0.0,0.0,0.0,0.0,0.0,0.0,0.0,0.0,0.0,0.0,0.0,0.0,0.0,0.0,0.0,0.0,0.0,0.0,0.0,0.0,0.0,0.0,0.0,0.0,0.0,0.0,0.0,0.0,0.0,0.0,0.0,0.0,0.0,0.0,0.0,0.0,0.0,0.0,0.0,0.0,0.0,0.0,0.0,0.0,0.0,0.0,0.0,0.0,0.0,0.0,0.0,0.0,0.0,0.0,0.0,0.0,0.0,0.0,0.0,0.0,0.0,0.0,0.0,0.0,0.0,0.0,0.0,0.0,0.0,0.0,0.0,0.0,0.0,0.0,0.0,0.0,0.0,0.0,0.0,0.0,0.0,0.0,0.0,0.0,0.0,0.0,0.0,0.0,0.0,0.0,0.0,0.0,0.0,0.0,0.0,0.0,0.0,0.0,0.0,0.0,0.0,0.0,0.0,0.0,0.0,0.0,0.0,0.0,0.0,0.0,0.0,0.0,0.0,0.0,0.0,0.0,0.0,0.0,0.0,0.0,0.0,0.0,0.0,0.0,0.0,0.0,0.0,0.0,0.0,0.0,0.0,0.0,0.0,0.0,0.0,0.0,0.0,0.0,0.0,0.0,0.0,0.0,0.0,0.0,0.0,0.0,0.0,0.0,0.0,0.0,0.0,0.0,0.0,0.0,0.0,0.0,0.0,0.0,0.0,0.0,0.0,0.0,0.0,0.0,0.0,0.0,0.0,0.0,0.0,0.0,0.0,0.0,0.0,0.0,0.0,0.0,0.0,0.0,0.0,0.0,0.0,0.0,0.0,0.0,0.0,0.0,0.0,0.0,0.0,0.0,0.0,0.0,0.0,0.0,0.0,0.0,0.0,0.0,0.0,0.0,0.0,0.0,0.0,0.0,0.0,0.0,0.0,0.0,0.0,0.0,0.0,0.0,0.0,0.0,0.0,0.0,0.0,0.0,0.0,0.0,0.0,0.0,0.0,0.0,0.0,0.0,0.0,0.0,0.0,0.0,0.0,0.0,0.0,0.0,0.0,0.0,0.0,0.0,0.0,0.0,0.0,0.0,0.0,0.0,0.0,0.0,0.0,0.0,0.0,0.0,0.0,0.0,0.0,0.0,0.0,0.0,0.0,0.0,0.0,0.0,0.0,0.0,0.0,0.0,0.0,0.0,0.0,0.0,0.0,0.0,0.0,0.0,0.0,0.0,0.0,0.0,0.0,0.0,0.0,0.0,0.0,0.0,0.0,0.0,0.0,0.0,0.0,0.0,0.0,0.0,0.0,0.0,0.0,0.0,0.0,0.0,0.0,0.0,0.0,0.0,0.0,0.0,0.0,0.0,0.0,0.0,0.0,0.0,0.0,0.0,0.0,0.0,0.0,0.0,0.0,0.0,0.0,0.0,0.0,0.0,0.0,0.0,0.0,0.0,0.0,0.0,0.0,0.0,0.0,0.0,0.0,0.0,0.0,0.0,0.0,0.0,0.0,0.0,0.0,0.0,0.0,0.0,0.0,0.0,0.0,0.0,0.0,0.0,0.0,0.0,0.0,0.0,0.0,0.0,0.0,0.0,0.0,0.0,0.0,0.0,0.0,0.0,0.0,0.0,0.0,0.0,0.0,0.0,0.0,0.0,0.0,0.0,0.0,0.0,0.0,0.0,0.0,0.0,0.0,0.0,0.0,0.0,0.0,0.0,0.0,0.0,0.0,0.0,0.0,0.0,0.0,0.0,0.0,0.0,0.0,0.0,0.0,0.0,0.0,0.0,0.0,0.0,0.0,0.0,0.0,0.0,0.0,0.0,0.0,0.0,0.0,0.0,0.0,0.0,0.0,0.0,0.0,0.0,0.0,0.0,0.0,0.0,0.0,0.0,0.0,0.0,0.0,0.0,0.0,0.0,0.0,0.0,0.0,0.0,0.0,0.0,0.0,0.0,0.0,0.0,0.0,0.0,0.0,0.0,0.0,0.0,0.0,0.0,0.0,0.0,0.0,0.0,0.0,0.0,0.0,0.0,0.0,0.0,0.0,0.0,0.0,0.0,0.0,0.0,0.0,0.0,0.0,0.0,0.0,0.0,0.0,0.0,0.0,0.0,0.0,0.0,0.0,0.0,0.0,0.0,0.0,0.0,0.0,0.0,0.0,0.0,0.0,0.0,0.0,0.0,0.0,0.0,0.0,0.0,0.0,0.0,0.0,0.0,0.0,0.0,0.0,0.0,0.0,0.0,0.0,0.0,0.0,0.0,0.0,0.0,0.0,0.0,0.0,0.0,0.0,0.0,0.0,0.0,0.0,0.0,0.0,0.0,0.0,0.0,0.0,0.0,0.0,0.0,0.0,0.0,0.0,0.0,0.0,0.0,0.0,0.0,0.0,0.0,0.0,0.0,0.0,0.0,0.0,0.0,0.0,0.0,0.0,0.0,0.0,0.0,0.0,0.0,0.0,0.0,0.0,0.0,0.0,0.0,0.0,0.0,0.0,0.0,0.0,0.0,0.0,0.0,0.0,0.0,0.0,0.0,0.0,0.0,0.0,0.0,0.0,0.0,0.0,0.0,0.0,0.0,0.0,0.0,0.0,0.0,0.0,0.0,0.0,0.0,0.0,0.0,0.0,0.0,0.0,0.0,0.0,0.0,0.0,0.0,0.0,0.0,0.0,0.0,0.0,0.0,0.0,0.0,0.0,0.0,0.0,0.0,0.0,0.0,0.0,0.0,0.0,0.0,0.0,0.0,0.0,0.0,0.0,0.0,0.0,0.0,0.0,0.0,0.0,0.0,0.0,0.0,0.0,0.0,0.0,0.0,0.0,0.0,0.0,0.0,0.0,0.0,0.0,0.0,0.0,0.0,0.0,0.0,0.0,0.0,0.0,0.0,0.0,0.0,0.0,0.0,0.0,0.0,0.0,0.0,0.0,0.0,0.0,0.0,0.0,0.0,0.0,0.0,0.0,0.0,0.0,0.0,0.0,0.0,0.0,0.0,0.0,0.0,0.0,0.0,0.0,0.0,0.0,0.0,0.0,0.0,0.0,0.0,0.0,0.0,0.0,0.0,0.0,0.0,0.0,0.0,0.0,0.0,0.0,0.0,0.0,0.0,0.0,0.0,0.0,0.0,0.0,0.0,0.0,0.0,0.0,0.0,0.0,0.0,0.0,0.0,0.0,0.0,0.0,0.0,0.0,0.0,0.0,0.0,0.0,0.0,0.0,0.0,0.0,0.0,0.0,0.0,0.0,0.0,0.0,0.0,0.0,0.0,0.0,0.0,0.0,0.0,0.0,0.0,0.0,0.0,0.0,0.0,0.0,0.0,0.0,0.0,0.0,-1.2715,0.0,0.0,0.0,0.0,0.0,0.0,0.0,0.0,0.0,0.0,0.0,0.0,0.0,0.0,0.0,0.0,0.0,0.0,0.0,0.0,0.0,0.0,0.0,0.0,0.0,0.0,0.0,0.0,0.0,0.0,0.0,0.0,0.0,0.0,0.0,0.0,0.0,0.0,0.0,0.0,0.0,0.0,0.0,0.0,0.0,0.0,0.0,0.0,0.0,0.0,0.0,0.0,0.0,0.0,0.0,0.0,0.0,0.0,0.0,0.0,0.0,0.0,0.0,0.0,0.0,0.0,0.0,0.0,0.0,0.0,0.0,0.0,0.0,0.0,0.0,0.0,0.0,0.0,0.0,0.0,0.0,0.0,0.0,0.0,0.0,0.0,0.0,0.0,0.0,0.0,0.0,0.0,0.0,0.0,0.0,0.0,0.0,0.0,0.0,0.0,0.0,0.0,0.0,0.0,0.0,0.0,0.0,0.0,0.0,0.0,-1.4183,-1.4223,-1.4222,-1.4017,-1.3554,0.0,0.0,0.0,0.0,0.0,0.0,0.0,0.0,0.0,0.0,0.0,0.0,0.0,0.0,0.0,0.0,0.0,0.0,0.0,0.0,0.0,0.0,0.0,0.0,0.0,0.0,0.0,0.0,0.0,0.0,0.0,0.0,0.0,0.0,0.0,0.0,0.0,0.0,0.0,0.0,0.0,0.0,0.0,0.0,0.0,0.0,0.0,0.0,0.0,0.0,0.0,0.0,0.0,0.0,0.0,0.0,0.0,0.0,0.0,0.0,0.0,0.0,0.0,0.0,0.0,0.0,0.0,0.0,0.0,0.0,0.0,0.0,0.0,0.0,0.0,0.0,0.0,0.0,0.0,0.0,0.0,0.0,0.0,0.0,0.0,0.0,0.0,0.0,0.0,0.0,0.0,0.0,0.0,0.0,0.0,0.0,0.0,0.0,0.0,0.0,0.0,0.0,0.0,0.0,0.0,0.0,0.0,0.0,0.0,0.0,0.0,0.0,-1.538,-1.4986,-1.4097,0.0,0.0,0.0,0.0,0.0,0.0,0.0,0.0,0.0,0.0,0.0,0.0,0.0,0.0,0.0,0.0,0.0,0.0,0.0,0.0,0.0,0.0,0.0,0.0,0.0,0.0,0.0,0.0,0.0,0.0,0.0,0.0,0.0,0.0,0.0,0.0,0.0,0.0,0.0,0.0,0.0,0.0,0.0,0.0,0.0,0.0,0.0,0.0,0.0,0.0,0.0,0.0,0.0,0.0,0.0,0.0,0.0,0.0,0.0,0.0,0.0,0.0,0.0,0.0,0.0,0.0,0.0,0.0,0.0,0.0,0.0,0.0,0.0,0.0,0.0,0.0,0.0,0.0,0.0,0.0,0.0,0.0,0.0,0.0,0.0,0.0,0.0,0.0,0.0,0.0,0.0,0.0,0.0,0.0,0.0,0.0,0.0,0.0,0.0,0.0,0.0,0.0,0.0,0.0,0.0,0.0,0.0,0.0,0.0,0.0,-1.5245,-1.529,-1.5379,0.0,-1.4114,0.0,0.0,0.0,0.0,0.0,0.0,0.0,0.0,0.0,0.0,0.0,0.0,0.0,0.0,0.0,0.0,0.0,0.0,0.0,0.0,0.0,0.0,0.0,0.0,0.0,0.0,0.0,0.0,0.0,0.0,0.0,0.0,0.0,0.0,0.0,0.0,0.0,0.0,0.0,0.0,0.0,0.0,0.0,0.0,0.0,0.0,0.0,0.0,0.0,0.0,0.0,0.0,0.0,0.0,0.0,0.0,0.0,0.0,0.0,0.0,0.0,0.0,0.0,0.0,0.0,0.0,0.0,0.0,0.0,0.0,0.0,0.0,0.0,0.0,0.0,0.0,0.0,0.0,0.0,0.0,0.0,0.0,0.0,0.0,0.0,0.0,0.0,0.0,0.0,0.0,0.0,0.0,0.0,0.0,0.0,0.0,0.0,0.0,0.0,0.0,0.0,0.0,0.0,0.0,0.0,0.0,0.0,0.0,0.0,0.0,-1.5422,-1.6009,-1.6097,-1.5516,0.0,0.0,0.0,0.0,0.0,0.0,0.0,0.0,0.0,0.0,0.0,0.0,0.0,0.0,0.0,0.0,0.0,0.0,0.0,0.0,0.0,0.0,0.0,0.0,0.0,0.0,0.0,0.0,0.0,0.0,0.0,0.0,0.0,0.0,0.0,0.0,0.0,0.0,0.0,0.0,0.0,0.0,0.0,0.0,0.0,0.0,0.0,0.0,0.0,0.0,0.0,0.0,0.0,0.0,0.0,0.0,0.0,0.0,0.0,0.0,0.0,0.0,0.0,0.0,0.0,0.0,0.0,0.0,0.0,0.0,0.0,0.0,0.0,0.0,0.0,0.0,0.0,0.0,0.0,0.0,0.0,0.0,0.0,0.0,0.0,0.0,0.0,0.0,0.0,0.0,0.0,0.0,0.0,0.0,0.0,0.0,0.0,0.0,0.0,0.0,0.0,0.0,0.0,0.0,0.0,0.0,0.0,0.0,0.0,0.0,-1.5269,-1.5763,-1.6452,-1.6602,-1.5974,-1.4517,0.0,0.0,0.0,0.0,0.0,0.0,0.0,0.0,0.0,0.0,0.0,0.0,0.0,0.0,0.0,0.0,0.0,0.0,0.0,0.0,0.0,0.0,0.0,0.0,0.0,0.0,0.0,0.0,0.0,0.0,0.0,0.0,0.0,0.0,0.0,0.0,0.0,0.0,0.0,0.0,0.0,0.0,0.0,0.0,0.0,0.0,0.0,0.0,0.0,0.0,0.0,0.0,0.0,0.0,0.0,0.0,0.0,0.0,0.0,0.0,0.0,0.0,0.0,0.0,0.0,0.0,0.0,0.0,0.0,0.0,0.0,0.0,0.0,0.0,0.0,0.0,0.0,0.0,0.0,0.0,0.0,0.0,0.0,0.0,0.0,0.0,0.0,0.0,0.0,0.0,0.0,0.0,0.0,0.0,0.0,0.0,0.0,0.0,0.0,0.0,0.0,0.0,0.0,0.0,0.0,0.0,0.0,0.0,-1.4927,-1.5793,-1.6322,-1.6486,-1.6564,-1.6206,0.0,0.0,0.0,0.0,0.0,0.0,0.0,0.0,0.0,0.0,0.0,0.0,0.0,0.0,0.0,0.0,0.0,0.0,0.0,0.0,0.0,0.0,0.0,0.0,0.0,0.0,0.0,0.0,0.0,0.0,0.0,0.0,0.0,0.0,0.0,0.0,0.0,0.0,0.0,0.0,0.0,0.0,0.0,0.0,0.0,0.0,0.0,0.0,0.0,0.0,0.0,0.0,0.0,0.0,0.0,0.0,0.0,0.0,0.0,0.0,0.0,0.0,0.0,0.0,0.0,0.0,0.0,0.0,0.0,0.0,0.0,0.0,0.0,0.0,0.0,0.0,0.0,0.0,0.0,0.0,0.0,0.0,0.0,0.0,0.0,0.0,0.0,0.0,0.0,0.0,0.0,0.0,0.0,0.0,0.0,0.0,0.0,0.0,0.0,0.0,0.0,0.0,0.0,0.0,0.0,0.0,0.0,0.0,0.0,-1.4832,-1.6288,-1.6624,-1.5763,-1.6769,-1.6744,0.0,0.0,0.0,0.0,0.0,0.0,0.0,0.0,0.0,0.0,0.0,0.0,0.0,0.0,0.0,0.0,0.0,0.0,0.0,0.0,0.0,0.0,0.0,0.0,0.0,0.0,0.0,0.0,0.0,0.0,0.0,0.0,0.0,0.0,0.0,0.0,0.0,0.0,0.0,0.0,0.0,0.0,0.0,0.0,0.0,0.0,0.0,0.0,0.0,0.0,0.0,0.0,0.0,0.0,0.0,0.0,0.0,0.0,0.0,0.0,0.0,0.0,0.0,0.0,0.0,0.0,0.0,0.0,0.0,0.0,0.0,0.0,0.0,0.0,0.0,0.0,0.0,0.0,0.0,0.0,0.0,0.0,0.0,0.0,0.0,0.0,0.0,0.0,0.0,0.0,0.0,0.0,0.0,0.0,0.0,0.0,0.0,0.0,0.0,0.0,0.0,0.0,0.0,0.0,0.0,0.0,0.0,0.0,0.0,-1.5547,0.0,-1.6991,-1.6077,-1.7125,-1.7016,0.0,0.0,0.0,0.0,0.0,0.0,0.0,0.0,0.0,0.0,0.0,0.0,0.0,0.0,0.0,0.0,0.0,0.0,0.0,0.0,0.0,0.0,0.0,0.0,0.0,0.0,0.0,0.0,0.0,0.0,0.0,0.0,0.0,0.0,0.0,0.0,0.0,0.0,0.0,0.0,0.0,0.0,0.0,0.0,0.0,0.0,0.0,0.0,0.0,0.0,0.0,0.0,0.0,0.0,0.0,0.0,0.0,0.0,0.0,0.0,0.0,0.0,0.0,0.0,0.0,0.0,0.0,0.0,0.0,0.0,0.0,0.0,0.0,0.0,0.0,0.0,0.0,0.0,0.0,0.0,0.0,0.0,0.0,0.0,0.0,0.0,0.0,0.0,0.0,0.0,0.0,0.0,0.0,0.0,0.0,0.0,0.0,0.0,0.0,0.0,0.0,0.0,0.0,0.0,0.0,0.0,0.0,0.0,-1.5395,-1.7144,-1.7348,-1.7458,-1.7584,-1.7628,-1.6963,0.0,0.0,0.0,0.0,0.0,0.0,0.0,0.0,0.0,0.0,0.0,0.0,0.0,0.0,0.0,0.0,0.0,0.0,0.0,0.0,0.0,0.0,0.0,0.0,0.0,0.0,0.0,0.0,0.0,0.0,0.0,0.0,0.0,0.0,0.0,0.0,0.0,0.0,0.0,0.0,0.0,0.0,0.0,0.0,0.0,0.0,0.0,0.0,0.0,0.0,0.0,0.0,0.0,0.0,0.0,0.0,0.0,0.0,0.0,0.0,0.0,0.0,0.0,0.0,0.0,0.0,0.0,0.0,0.0,0.0,0.0,0.0,0.0,0.0,0.0,0.0,0.0,0.0,0.0,0.0,0.0,0.0,0.0,0.0,0.0,0.0,0.0,0.0,0.0,0.0,0.0,0.0,0.0,0.0,0.0,0.0,0.0,0.0,0.0,0.0,0.0,0.0,0.0,0.0,0.0,0.0,0.0,0.0,0.0,-1.6319,-1.7543,-1.7957,-1.7559,-1.7608,-1.7141,0.0,0.0,0.0,0.0,0.0,0.0,0.0,0.0,0.0,0.0,0.0,0.0,0.0,0.0,0.0,0.0,0.0,0.0,0.0,0.0,0.0,0.0,0.0,0.0,0.0,0.0,0.0,0.0,0.0,0.0,0.0,0.0,0.0,0.0,0.0,0.0,0.0,0.0,0.0,0.0,0.0,0.0,0.0,0.0,0.0,0.0,0.0,0.0,0.0,0.0,0.0,0.0,0.0,0.0,0.0,0.0,0.0,0.0,0.0,0.0,0.0,0.0,0.0,0.0,0.0,0.0,0.0,0.0,0.0,0.0,0.0,0.0,0.0,0.0,0.0,0.0,0.0,0.0,0.0,0.0,0.0,0.0,0.0,0.0,0.0,0.0,0.0,0.0,0.0,0.0,0.0,0.0,0.0,0.0,0.0,0.0,0.0,0.0,0.0,0.0,0.0,0.0,0.0,0.0,0.0,0.0,0.0,0.0,0.0,-1.6744,-1.7857,-1.8277,-1.7923,-1.7668,-1.7229,-1.6449,0.0,0.0,0.0,0.0,0.0,0.0,0.0,0.0,0.0,0.0,0.0,0.0,0.0,0.0,0.0,0.0,0.0,0.0,0.0,0.0,0.0,0.0,0.0,0.0,0.0,0.0,0.0,0.0,0.0,0.0,0.0,0.0,0.0,0.0,0.0,0.0,0.0,0.0,0.0,0.0,0.0,0.0,0.0,0.0,0.0,0.0,0.0,0.0,0.0,0.0,0.0,0.0,0.0,0.0,0.0,0.0,0.0,0.0,0.0,0.0,0.0,0.0,0.0,0.0,0.0,0.0,0.0,0.0,0.0,0.0,0.0,0.0,0.0,0.0,0.0,0.0,0.0,0.0,0.0,0.0,0.0,0.0,0.0,0.0,0.0,0.0,0.0,0.0,0.0,0.0,0.0,0.0,0.0,0.0,0.0,0.0,0.0,0.0,0.0,0.0,0.0,0.0,0.0,0.0,0.0,0.0,0.0,0.0,-1.8089,-1.8327,-1.852,-1.8645,-1.7914,-1.7163,0.0,0.0,0.0,0.0,0.0,0.0,0.0,0.0,0.0,0.0,0.0,0.0,0.0,0.0,0.0,0.0,0.0,0.0,0.0,0.0,0.0,0.0,0.0,0.0,0.0,0.0,0.0,0.0,0.0,0.0,0.0,0.0,0.0,0.0,0.0,0.0,0.0,0.0,0.0,0.0,0.0,0.0,0.0,0.0,0.0,0.0,0.0,0.0,0.0,0.0,0.0,0.0,0.0,0.0,0.0,0.0,0.0,0.0,0.0,0.0,0.0,0.0,0.0,0.0,0.0,0.0,0.0,0.0,0.0,0.0,0.0,0.0,0.0,0.0,0.0,0.0,0.0,0.0,0.0,0.0,0.0,0.0,0.0,0.0,0.0,0.0,0.0,0.0,0.0,0.0,0.0,0.0,0.0,0.0,0.0,0.0,0.0,0.0,0.0,0.0,0.0,0.0,0.0,0.0,0.0,0.0,0.0,0.0,0.0,-1.8093,-1.8821,-1.9274,-1.9375,-1.8127,-1.7386,0.0,0.0,0.0,0.0,0.0,0.0,0.0,0.0,0.0,0.0,0.0,0.0,0.0,0.0,0.0,0.0,0.0,0.0,0.0,0.0,0.0,0.0,0.0,0.0,0.0,0.0,0.0,0.0,0.0,0.0,0.0,0.0,0.0,0.0,0.0,0.0,0.0,0.0,0.0,0.0,0.0,0.0,0.0,0.0,0.0,0.0,0.0,0.0,0.0,0.0,0.0,0.0,0.0,0.0,0.0,0.0,0.0,0.0,0.0,0.0,0.0,0.0,0.0,0.0,0.0,0.0,0.0,0.0,0.0,0.0,0.0,0.0,0.0,0.0,0.0,0.0,0.0,0.0,0.0,0.0,0.0,0.0,0.0,0.0,0.0,0.0,0.0,0.0,0.0,0.0,0.0,0.0,0.0,0.0,0.0,0.0,0.0,0.0,0.0,0.0,0.0,0.0,0.0,0.0,0.0,0.0,0.0,0.0,-1.7888,-1.9055,-1.9667,-2.0058,-2.0159,-1.8704,-1.7785,0.0,0.0,0.0,0.0,0.0,0.0,0.0,0.0,0.0,0.0,0.0,0.0,0.0,0.0,0.0,0.0,0.0,0.0,0.0,0.0,0.0,0.0,0.0,0.0,0.0,0.0,0.0,0.0,0.0,0.0,0.0,0.0,0.0,0.0,0.0,0.0,0.0,0.0,0.0,0.0,0.0,0.0,0.0,0.0,0.0,0.0,0.0,0.0,0.0,0.0,0.0,0.0,0.0,0.0,0.0,0.0,0.0,0.0,0.0,0.0,0.0,0.0,0.0,0.0,0.0,0.0,0.0,0.0,0.0,0.0,0.0,0.0,0.0,0.0,0.0,0.0,0.0,0.0,0.0,0.0,0.0,0.0,0.0,0.0,0.0,0.0,0.0,0.0,0.0,0.0,0.0,0.0,0.0,0.0,0.0,0.0,0.0,0.0,0.0,0.0,0.0,0.0,0.0,0.0,0.0,0.0,0.0,0.0,-1.8783,-2.0366,-2.0586,-2.0722,-2.0741,-1.9451,-1.8321,0.0,0.0,0.0,0.0,0.0,0.0,0.0,0.0,0.0,0.0,0.0,0.0,0.0,0.0,0.0,0.0,0.0,0.0,0.0,0.0,0.0,0.0,0.0,0.0,0.0,0.0,0.0,0.0,0.0,0.0,0.0,0.0,0.0,0.0,0.0,0.0,0.0,0.0,0.0,0.0,0.0,0.0,0.0,0.0,0.0,0.0,0.0,0.0,0.0,0.0,0.0,0.0,0.0,0.0,0.0,0.0,0.0,0.0,0.0,0.0,0.0,0.0,0.0,0.0,0.0,0.0,0.0,0.0,0.0,0.0,0.0,0.0,0.0,0.0,0.0,0.0,0.0,0.0,0.0,0.0,0.0,0.0,0.0,0.0,0.0,0.0,0.0,0.0,0.0,0.0,0.0,0.0,0.0,0.0,0.0,0.0,0.0,0.0,0.0,0.0,0.0,0.0,0.0,0.0,0.0,0.0,0.0,0.0,-1.8817,-2.0425,-2.062,-2.0722,-2.079,-1.9994,-1.8887,0.0,0.0,0.0,0.0,0.0,0.0,0.0,0.0,0.0,0.0,0.0,0.0,0.0,0.0,0.0,0.0,0.0,0.0,0.0,0.0,0.0,0.0,0.0,0.0,0.0,0.0,0.0,0.0,0.0,0.0,0.0,0.0,0.0,0.0,0.0,0.0,0.0,0.0,0.0,0.0,0.0,0.0,0.0,0.0,0.0,0.0,0.0,0.0,-0.7842,0.0,0.0,0.0,0.0,0.0,0.0,0.0,0.0,0.0,0.0,0.0,0.0,0.0,0.0,0.0,0.0,0.0,0.0,0.0,0.0,0.0,0.0,0.0,0.0,0.0,0.0,0.0,0.0,0.0,0.0,0.0,0.0,0.0,0.0,0.0,0.0,0.0,0.0,0.0,0.0,0.0,0.0,0.0,0.0,0.0,0.0,0.0,0.0,0.0,0.0,0.0,0.0,0.0,0.0,0.0,0.0,0.0,0.0,0.0,-1.9405,-2.1001,-2.1199,-2.1295,-2.1354,-2.1078,-1.9812,0.0,0.0,0.0,0.0,0.0,0.0,0.0,0.0,0.0,0.0,0.0,0.0,0.0,0.0,0.0,0.0,0.0,0.0,0.0,0.0,0.0,0.0,0.0,0.0,0.0,0.0,0.0,0.0,0.0,0.0,0.0,0.0,0.0,0.0,0.0,0.0,0.0,0.0,0.0,0.0,0.0,0.0,0.0,0.0,0.0,0.0,0.0,0.0,0.0,0.0,0.0,0.0,0.0,0.0,0.0,0.0,0.0,0.0,0.0,0.0,0.0,0.0,0.0,0.0,0.0,0.0,0.0,0.0,0.0,0.0,0.0,0.0,0.0,0.0,0.0,0.0,0.0,0.0,0.0,0.0,0.0,0.0,0.0,0.0,0.0,0.0,0.0,0.0,0.0,0.0,0.0,0.0,0.0,0.0,0.0,0.0,0.0,0.0,0.0,0.0,0.0,0.0,0.0,0.0,0.0,0.0,0.0,-1.8421,-2.0077,-2.1641,-2.1715,-2.1821,-2.1996,-2.189,-2.0433,-1.7529,0.0,0.0,0.0,0.0,0.0,0.0,0.0,0.0,0.0,0.0,0.0,0.0,0.0,0.0,0.0,0.0,0.0,0.0,0.0,0.0,0.0,0.0,0.0,0.0,0.0,0.0,0.0,0.0,0.0,0.0,0.0,0.0,0.0,0.0,0.0,0.0,0.0,0.0,-0.6404,-0.7268,0.0,0.0,0.0,0.0,0.0,0.0,0.0,0.0,-0.8597,0.0,0.0,0.0,0.0,0.0,0.0,0.0,0.0,0.0,0.0,0.0,0.0,0.0,0.0,0.0,0.0,0.0,0.0,0.0,0.0,0.0,0.0,0.0,0.0,0.0,0.0,0.0,0.0,0.0,0.0,0.0,0.0,0.0,0.0,0.0,0.0,0.0,0.0,0.0,0.0,0.0,0.0,0.0,0.0,0.0,0.0,0.0,0.0,0.0,0.0,0.0,0.0,0.0,0.0,0.0,0.0,-1.6883,-1.847,-2.012,-2.1712,-2.1197,-2.1258,-2.1922,-2.077,-1.9268,-1.751,0.0,0.0,0.0,0.0,0.0,0.0,0.0,0.0,0.0,0.0,0.0,0.0,0.0,0.0,0.0,0.0,0.0,0.0,0.0,0.0,0.0,0.0,0.0,0.0,0.0,0.0,0.0,0.0,0.0,0.0,0.0,0.0,0.0,0.0,0.0,0.0,0.0,0.0,0.0,-0.7741,-0.8329,0.0,0.0,0.0,0.0,0.0,0.0,0.0,0.0,-0.8976,0.0,0.0,0.0,0.0,0.0,0.0,0.0,0.0,0.0,0.0,0.0,0.0,0.0,0.0,0.0,0.0,0.0,0.0,0.0,0.0,0.0,0.0,0.0,0.0,0.0,0.0,0.0,0.0,0.0,0.0,0.0,0.0,0.0,0.0,0.0,0.0,0.0,0.0,0.0,0.0,0.0,0.0,0.0,0.0,0.0,0.0,0.0,0.0,0.0,0.0,0.0,0.0,0.0,0.0,0.0,-1.6984,-1.8481,-1.9924,-2.1121,-2.0863,-2.0922,-2.1339,-2.0291,-1.8986,0.0,0.0,0.0,0.0,0.0,0.0,0.0,0.0,0.0,0.0,0.0,0.0,0.0,0.0,0.0,0.0,0.0,0.0,0.0,0.0,0.0,0.0,0.0,0.0,0.0,0.0,0.0,0.0,0.0,0.0,0.0,0.0,0.0,0.0,0.0,0.0,0.0,0.0,0.0,0.0,-0.8506,-0.8927,-0.9209,0.0,0.0,0.0,0.0,0.0,0.0,-0.9272,-0.9259,0.0,0.0,0.0,0.0,0.0,0.0,0.0,0.0,0.0,0.0,0.0,0.0,0.0,0.0,0.0,0.0,0.0,0.0,0.0,0.0,0.0,0.0,0.0,0.0,0.0,0.0,0.0,0.0,0.0,0.0,0.0,0.0,0.0,0.0,0.0,0.0,0.0,0.0,0.0,0.0,0.0,0.0,0.0,0.0,0.0,0.0,0.0,0.0,0.0,0.0,0.0,0.0,0.0,0.0,0.0,-1.6954,-1.8493,-1.9743,-2.0547,-2.0517,-2.0593,-2.0781,-1.9794,-1.8665,0.0,0.0,0.0,0.0,0.0,0.0,0.0,0.0,0.0,0.0,0.0,0.0,0.0,0.0,0.0,0.0,0.0,0.0,0.0,0.0,0.0,0.0,0.0,0.0,0.0,0.0,0.0,0.0,0.0,0.0,0.0,0.0,0.0,0.0,0.0,0.0,0.0,0.0,0.0,0.0,0.0,-0.9657,-0.9722,-0.9818,0.0,0.0,0.0,0.0,-0.9719,-0.9656,0.0,0.0,0.0,0.0,0.0,0.0,0.0,0.0,0.0,0.0,0.0,0.0,0.0,0.0,0.0,0.0,0.0,0.0,0.0,0.0,0.0,0.0,0.0,0.0,0.0,0.0,0.0,0.0,0.0,0.0,0.0,0.0,0.0,0.0,0.0,0.0,0.0,0.0,0.0,0.0,0.0,0.0,0.0,0.0,0.0,0.0,0.0,0.0,0.0,0.0,0.0,0.0,0.0,0.0,0.0,0.0,-1.6963,-1.8548,-1.9802,-2.0528,-2.0019,-2.0094,-2.0828,-1.8787,-1.7612,0.0,0.0,0.0,0.0,0.0,0.0,0.0,0.0,0.0,0.0,0.0,0.0,0.0,0.0,0.0,0.0,0.0,0.0,0.0,0.0,0.0,0.0,0.0,0.0,0.0,0.0,0.0,0.0,0.0,0.0,0.0,0.0,0.0,0.0,0.0,0.0,0.0,0.0,0.0,0.0,0.0,-1.0479,-1.0546,-1.0959,-1.1273,0.0,0.0,-1.1001,-1.0454,-1.0381,0.0,0.0,0.0,0.0,0.0,0.0,0.0,0.0,0.0,0.0,0.0,0.0,0.0,0.0,0.0,0.0,0.0,0.0,0.0,0.0,0.0,0.0,0.0,0.0,0.0,0.0,0.0,0.0,0.0,0.0,0.0,0.0,0.0,0.0,0.0,0.0,0.0,0.0,0.0,0.0,0.0,0.0,0.0,0.0,0.0,0.0,0.0,0.0,0.0,0.0,0.0,0.0,0.0,0.0,0.0,-1.6507,-1.6987,-1.8116,-1.914,-1.9993,-1.975,-1.9808,-2.0249,-1.842,-1.7434,0.0,0.0,0.0,0.0,0.0,0.0,0.0,0.0,0.0,0.0,0.0,0.0,0.0,0.0,0.0,0.0,0.0,0.0,0.0,0.0,0.0,0.0,0.0,0.0,0.0,0.0,0.0,0.0,0.0,0.0,0.0,0.0,0.0,0.0,0.0,0.0,0.0,0.0,0.0,0.0,0.0,0.0,-1.0857,-1.134,0.0,0.0,0.0,-1.147,-1.1219,0.0,0.0,0.0,0.0,0.0,0.0,0.0,0.0,0.0,0.0,0.0,0.0,0.0,0.0,0.0,0.0,0.0,0.0,0.0,0.0,0.0,0.0,0.0,0.0,0.0,0.0,0.0,0.0,0.0,0.0,0.0,0.0,0.0,0.0,0.0,0.0,0.0,0.0,0.0,0.0,0.0,0.0,0.0,0.0,0.0,0.0,0.0,0.0,0.0,0.0,0.0,0.0,0.0,0.0,0.0,0.0,0.0,-1.7021,-1.7821,-1.8675,-1.958,-1.9647,-1.96,-1.9475,-1.8149,0.0,0.0,0.0,0.0,0.0,0.0,0.0,0.0,0.0,0.0,0.0,0.0,0.0,0.0,0.0,0.0,0.0,0.0,0.0,0.0,0.0,0.0,0.0,0.0,0.0,0.0,0.0,-0.7715,0.0,0.0,0.0,0.0,0.0,0.0,0.0,0.0,0.0,0.0,0.0,0.0,0.0,0.0,-1.1364,-1.1506,-1.1982,-1.2314,0.0,0.0,-1.2112,-1.1969,-1.1454,-1.0976,0.0,0.0,0.0,0.0,0.0,0.0,0.0,0.0,0.0,0.0,0.0,0.0,0.0,0.0,0.0,0.0,0.0,0.0,0.0,0.0,0.0,0.0,0.0,0.0,0.0,0.0,0.0,0.0,0.0,0.0,0.0,0.0,0.0,0.0,0.0,0.0,0.0,0.0,0.0,0.0,0.0,0.0,0.0,0.0,0.0,0.0,0.0,0.0,0.0,0.0,0.0,0.0,0.0,0.0,0.0,-1.7083,-1.7887,-1.8744,-1.9642,-1.9763,-1.9418,-1.8688,-1.7908,-1.7139,0.0,0.0,0.0,0.0,0.0,0.0,0.0,0.0,0.0,0.0,0.0,0.0,0.0,0.0,0.0,0.0,0.0,0.0,0.0,0.0,0.0,0.0,0.0,0.0,0.0,0.0,0.0,0.0,0.0,0.0,0.0,0.0,0.0,0.0,0.0,0.0,0.0,0.0,0.0,0.0,0.0,-1.2324,-1.2896,-1.3417,-1.3736,0.0,0.0,-1.3297,-1.2707,-1.2478,-1.2014,-1.0963,0.0,0.0,0.0,0.0,0.0,0.0,0.0,0.0,0.0,0.0,0.0,0.0,0.0,0.0,0.0,0.0,0.0,0.0,0.0,0.0,0.0,0.0,0.0,0.0,0.0,0.0,0.0,0.0,0.0,0.0,0.0,0.0,0.0,0.0,0.0,0.0,0.0,0.0,0.0,0.0,0.0,0.0,0.0,0.0,0.0,0.0,0.0,0.0,0.0,0.0,0.0,0.0,0.0,-1.5836,-1.7189,-1.7483,-1.8322,-1.9738,-1.9316,-1.8933,-1.8667,-1.7434,-1.6626,0.0,0.0,0.0,0.0,0.0,0.0,0.0,0.0,0.0,0.0,0.0,0.0,0.0,0.0,0.0,0.0,0.0,0.0,0.0,0.0,0.0,0.0,0.0,0.0,0.0,0.0,0.0,0.0,-1.0957,-1.1278,-1.1402,0.0,0.0,0.0,0.0,0.0,0.0,0.0,0.0,0.0,0.0,-1.2981,-1.3229,-1.3733,0.0,0.0,-1.3908,-1.3713,-1.3474,-1.3006,-1.2537,-1.2101,-1.1564,0.0,0.0,0.0,0.0,0.0,0.0,0.0,0.0,0.0,0.0,0.0,0.0,0.0,0.0,0.0,0.0,0.0,0.0,0.0,0.0,0.0,0.0,0.0,0.0,0.0,0.0,0.0,0.0,0.0,0.0,0.0,0.0,0.0,0.0,0.0,0.0,0.0,0.0,0.0,0.0,0.0,0.0,0.0,0.0,0.0,0.0,0.0,0.0,0.0,0.0,0.0,0.0,-1.5484,-1.6971,-1.7165,-1.7869,-1.9168,-1.8825,-1.8449,-1.797,-1.6916,-1.6231,0.0,0.0,0.0,0.0,0.0,0.0,0.0,0.0,0.0,0.0,0.0,0.0,0.0,0.0,0.0,0.0,0.0,0.0,0.0,0.0,0.0,0.0,0.0,0.0,0.0,0.0,0.0,0.0,-1.1602,-1.1679,-1.1888,0.0,0.0,0.0,0.0,0.0,0.0,0.0,0.0,0.0,0.0,-1.3852,-1.4034,-1.455,-1.4893,-1.4843,-1.4708,-1.4553,-1.4316,-1.3815,-1.3294,-1.2949,0.0,0.0,0.0,0.0,0.0,0.0,0.0,0.0,0.0,0.0,0.0,0.0,0.0,0.0,0.0,0.0,0.0,0.0,0.0,0.0,0.0,0.0,0.0,0.0,0.0,0.0,0.0,0.0,0.0,0.0,-1.3027,0.0,0.0,0.0,0.0,0.0,0.0,0.0,0.0,0.0,0.0,0.0,0.0,0.0,0.0,0.0,0.0,0.0,0.0,0.0,0.0,0.0,0.0,-1.535,-1.6223,-1.7023,-1.7468,-1.762,-1.8351,-1.8012,-1.6476,-1.6376,-1.603,-1.5248,0.0,0.0,0.0,0.0,0.0,0.0,0.0,0.0,0.0,0.0,0.0,0.0,0.0,0.0,0.0,0.0,0.0,0.0,0.0,0.0,0.0,0.0,0.0,0.0,0.0,0.0,-1.1743,-1.2142,-1.2302,0.0,0.0,0.0,0.0,0.0,0.0,0.0,0.0,0.0,0.0,-1.437,-1.5051,-1.5482,-1.611,-1.6434,-1.6253,-1.6231,-1.5972,-1.5284,-1.4994,-1.4452,0.0,0.0,0.0,0.0,0.0,0.0,0.0,0.0,0.0,0.0,0.0,0.0,0.0,0.0,0.0,0.0,0.0,0.0,0.0,0.0,0.0,0.0,0.0,0.0,0.0,0.0,0.0,-1.75,-1.6719,0.0,0.0,0.0,0.0,0.0,0.0,0.0,0.0,0.0,0.0,0.0,-1.7907,-1.7919,0.0,0.0,0.0,0.0,0.0,0.0,0.0,0.0,0.0,0.0,0.0,0.0,-1.5723,-1.7073,-1.7394,-1.7841,-1.8395,-1.8151,-1.7485,-1.639,-1.5823,-1.5437,-1.521,0.0,0.0,0.0,0.0,0.0,0.0,0.0,0.0,0.0,0.0,0.0,0.0,0.0,0.0,0.0,0.0,0.0,0.0,0.0,0.0,0.0,0.0,0.0,0.0,0.0,-1.195,0.0,0.0,0.0,0.0,0.0,0.0,0.0,0.0,0.0,0.0,0.0,-1.4425,-1.4669,-1.566,-1.6407,-1.657,-1.6747,-1.682,0.0,0.0,0.0,0.0,0.0,0.0,0.0,0.0,0.0,0.0,0.0,0.0,0.0,0.0,-1.0993,-1.0404,-1.0205,-1.0026,-0.9702,0.0,0.0,0.0,0.0,0.0,0.0,0.0,0.0,0.0,0.0,0.0,0.0,0.0,0.0,-2.043,0.0,-1.9355,0.0,0.0,0.0,0.0,0.0,0.0,0.0,0.0,-1.972,-1.9711,-1.971,-1.9701,-1.9717,0.0,-1.9714,-1.9673,0.0,0.0,0.0,0.0,0.0,0.0,0.0,0.0,-1.6533,-1.7585,-1.7909,-1.8028,-1.8033,-1.7773,-1.7114,-1.6016,-1.5431,-1.5171,-1.52,-1.4648,-1.4212,0.0,0.0,0.0,0.0,0.0,0.0,0.0,0.0,0.0,0.0,0.0,0.0,0.0,0.0,0.0,0.0,0.0,0.0,0.0,0.0,0.0,0.0,0.0,-1.2757,0.0,0.0,0.0,0.0,0.0,0.0,0.0,0.0,0.0,-1.4229,-1.5067,-1.5814,-1.6079,-1.7018,-1.7641,-1.7553,0.0,0.0,0.0,0.0,0.0,0.0,0.0,-1.6215,-1.5834,-1.5223,-1.4644,-1.417,-1.3443,-1.2815,-1.2585,0.0,0.0,-1.1347,-1.1101,-1.0939,-1.0664,-1.046,-1.031,-1.026,-1.0132,-1.0074,0.0,0.0,0.0,0.0,0.0,0.0,0.0,0.0,-2.4102,-2.3477,0.0,-2.1953,0.0,0.0,0.0,0.0,0.0,-2.0676,0.0,0.0,-2.2998,-2.3085,-2.3038,-2.3019,-2.3058,-2.3095,-2.301,-2.3021,-2.2851,-1.9629,0.0,0.0,0.0,0.0,0.0,0.0,-1.7713,-1.7784,-1.8505,-1.8118,-1.6664,-1.7315,-1.69,-1.5293,-1.5209,-1.5192,-1.5192,-1.5176,-1.4808,-1.3997,-1.3178,0.0,0.0,0.0,0.0,0.0,0.0,0.0,0.0,0.0,0.0,0.0,0.0,0.0,0.0,0.0,0.0,0.0,0.0,0.0,0.0,-1.3145,0.0,0.0,0.0,0.0,0.0,0.0,0.0,0.0,0.0,0.0,-1.6045,-1.6562,-1.7182,-1.7767,0.0,0.0,0.0,0.0,-1.9254,-1.9124,-1.912,-1.885,-1.8148,-1.7946,-1.7573,-1.6708,0.0,0.0,-1.4915,-1.4257,-1.379,-1.3484,-1.3433,-1.325,-1.2643,-1.2413,-1.2166,-1.16,-1.141,-1.1291,-1.1177,-1.1097,-1.1155,-2.8331,0.0,0.0,0.0,0.0,-2.5898,-2.5762,-2.5039,-2.5879,-2.5293,-2.3672,-2.3672,0.0,0.0,0.0,0.0,0.0,0.0,-2.265,-2.309,-2.3107,-2.3101,-2.3109,-2.3097,-2.3096,-2.3109,-2.3095,-2.311,-2.3058,-2.208,-2.0932,-1.9649,0.0,0.0,0.0,0.0,-1.8076,-1.867,-1.8936,-1.882,-1.8342,-1.7979,-1.6955,-1.5251,-1.5196,-1.519,-1.5195,-1.5195,-1.5096,-1.4824,-1.4074,0.0,0.0,0.0,0.0,0.0,0.0,0.0,0.0,0.0,0.0,0.0,0.0,0.0,0.0,0.0,0.0,0.0,0.0,0.0,-1.3443,-1.3594,-1.3847,0.0,0.0,0.0,0.0,0.0,0.0,0.0,0.0,0.0,-1.897,-1.8887,-1.8811,0.0,0.0,-1.9771,-1.9564,-1.9606,-1.9599,-1.9468,-1.945,0.0,0.0,-1.8484,-1.7996,-1.7684,-1.693,-1.6225,-1.5775,-1.5439,-1.5039,-1.4489,-1.4371,-1.4102,-1.342,-1.3,-1.2695,-1.2498,-1.2381,-1.2306,-1.2242,-1.2119,-1.203,-3.1383,-2.9408,-2.787,-2.7031,-2.6816,-2.7656,-2.7539,-2.6777,-2.7656,-2.7246,-2.5937,-2.5586,-2.4941,-2.4102,-2.3477,0.0,0.0,0.0,-2.3806,-2.4134,-2.4133,-2.4129,-2.4125,-2.4148,-2.4128,-2.4143,-2.4126,-2.4123,-2.4132,-2.3788,-2.3065,-2.1941,0.0,0.0,-1.932,-1.9006,-1.9088,-1.9603,-1.9623,-1.9452,-1.9085,-1.792,-1.6769,-1.5755,-1.5386,-1.5204,-1.5193,-1.5193,-1.519,-1.5193,-1.4433,-1.3612,0.0,0.0,0.0,0.0,0.0,0.0,0.0,0.0,0.0,0.0,0.0,-1.0495,0.0,0.0,0.0,0.0,-1.304,-1.358,-1.3956,-1.4151,0.0,0.0,0.0,0.0,0.0,0.0,0.0,-1.7933,-1.8784,-1.9637,-2.0459,-2.0464,-2.0336,-2.0114,-2.0312,-2.0441,-2.0235,0.0,-1.9887,-1.9812,-1.9777,-1.9702,-1.956,-1.911,-1.8701,-1.8495,-1.764,-1.6892,-1.6606,-1.6282,-1.5802,-1.5153,-1.4905,-1.4646,-1.395,-1.3543,-1.3254,-1.3116,-1.296,-1.2868,-1.285,-1.2709,-1.2556,-3.3487,-3.3299,-3.097,-2.9471,-2.8691,-2.9453,-2.9297,-2.8574,-2.9355,-2.9219,-2.8359,-2.7559,-2.668,-2.5723,-2.4121,0.0,-2.4512,-2.4492,-2.4921,-2.5702,-2.5701,-2.57,-2.57,-2.5681,-2.57,-2.5681,-2.5696,-2.5693,-2.563,-2.488,-2.45,-2.4454,-2.2765,-2.1883,-2.1765,-2.0931,-2.0504,-2.0485,-2.045,-1.9988,-1.9107,-1.7545,-1.6659,-1.6486,-1.573,-1.5286,-1.5226,-1.5226,-1.5206,-1.5165,-1.4495,-1.3708,-1.2848,0.0,0.0,0.0,0.0,0.0,0.0,0.0,0.0,0.0,0.0,0.0,0.0,0.0,0.0,0.0,-1.395,0.0,-1.4316,-1.4916,0.0,0.0,0.0,-1.6464,-1.7139,-1.7755,-1.8364,-1.9026,0.0,0.0,-2.0922,-2.1454,-2.1661,-2.1214,-2.099,-2.0762,-2.0578,-2.034,-2.0152,-2.0118,-2.0078,-1.9955,-1.9762,-1.9678,-1.9467,-1.9058,-1.8471,-1.7886,-1.7497,-1.7042,-1.6328,-1.5503,-1.525,-1.4982,-1.4357,-1.4056,-1.3841,-1.3527,-1.3288,-1.3129,-1.3124,-1.2955,-1.2803,-3.4915,-3.4273,-3.3707,-3.2607,-3.1227,-3.1403,-3.1033,-3.0312,-3.0507,-3.0097,-2.9277,-2.9082,-2.8125,-2.6621,-2.5586,-2.5215,-2.5391,-2.5371,-2.5508,-2.5683,-2.5702,-2.5701,-2.57,-2.5701,-2.5701,-2.57,-2.5701,-2.57,-2.5678,-2.5497,-2.5395,-2.5331,-2.43,-2.3416,-2.2758,-2.186,-2.1395,-2.1393,-2.0789,-2.0068,-1.9209,-1.878,-1.7932,-1.6612,-1.638,-1.5947,-1.5296,-1.5258,-1.5275,-1.5255,-1.5091,-1.4596,-1.3735,-1.3485,0.0,0.0,0.0,0.0,0.0,0.0,0.0,0.0,0.0,-1.2397,-1.2948,0.0,-1.3505,0.0,-1.4903,-1.5499,-1.6114,-1.6211,0.0,0.0,-1.716,-1.7645,-1.8845,-1.9073,-1.9612,-2.0744,-2.1156,-2.1496,-2.19,-2.2093,-2.2063,-2.1751,-2.1448,-2.1182,-2.099,-2.0778,-2.0578,-2.0443,-2.0304,-2.0183,-2.0028,-1.9833,-1.9632,-1.9354,-1.91,-1.8846,-1.8513,-1.8342,-1.7814,-1.6571,-1.6201,-1.5717,-1.4644,-1.4305,-1.4157,-1.401,-1.3728,-1.3459,-1.3357,-1.3215,-1.3094,-3.595,-3.5188,-3.524,-3.4475,-3.3184,-3.2432,-3.1636,-3.0916,-3.0916,-3.0623,-3.0155,-2.9785,-2.8847,-2.7578,-2.707,-2.6855,-2.6816,-2.6465,-2.6269,-2.6269,-2.5879,-2.5703,-2.5702,-2.5703,-2.5703,-2.5702,-2.5703,-2.5703,-2.5701,-2.5699,-2.5697,-2.5694,-2.5219,-2.4741,-2.422,-2.2983,-2.2146,-2.1735,-2.0916,-2.0249,-1.9785,-1.9398,-1.8727,-1.7773,-1.6993,-1.6366,-1.5894,-1.5517,-1.5298,-1.5298,-1.5291,-1.4913,-1.4106,-1.4035,-1.3671,0.0,0.0,0.0,0.0,0.0,0.0,0.0,0.0,0.0,0.0,0.0,-1.4991,-1.5751,-1.6084,-1.6441,-1.6855,-1.7089,-1.74,-1.7837,-1.8348,-1.8957,-1.9704,-2.0287,-2.0928,-2.163,-2.193,-2.2164,-2.245,-2.2405,-2.2265,-2.2106,-2.1871,-2.1649,-2.1372,-2.1103,-2.0876,-2.0712,-2.0561,-2.0407,-2.022,-2.0028,-1.98,-1.9632,-1.9545,-1.9417,-1.9124,-1.8803,-1.8242,-1.7109,-1.6545,-1.5966,-1.4961,-1.4592,-1.4447,-1.4321,-1.4111,-1.3861,-1.3641,-1.3459,-1.3306,-3.6635,-3.5897,-3.5883,-3.5434,-3.4579,-3.3067,-3.1906,-3.1029,-3.0932,-3.0894,-3.0855,-2.9978,-2.9178,-2.8475,-2.8359,-2.8301,-2.8242,-2.7519,-2.7168,-2.7109,-2.6269,-2.5879,-2.5879,-2.5762,-2.5703,-2.5703,-2.5703,-2.5703,-2.5703,-2.5703,-2.5702,-2.57,-2.5697,-2.5695,-2.5636,-2.4173,-2.2948,-2.1968,-2.1109,-2.0672,-2.0651,-1.9818,-1.9323,-1.9163,-1.7719,-1.6821,-1.6606,-1.5876,-1.5418,-1.5323,-1.5315,-1.4994,-1.4299,-1.427,-1.3942,0.0,-1.3117,0.0,0.0,0.0,0.0,0.0,0.0,0.0,0.0,-1.542,-1.6572,-1.7317,-1.7311,-1.73,-1.7336,-1.7839,-1.8191,-1.8213,-1.934,-2.0137,-2.0223,-2.1352,-2.2151,-2.2166,-2.2569,-2.2816,-2.2712,-2.2555,-2.2419,-2.2321,-2.224,-2.2053,-2.1756,-2.1403,-2.1135,-2.0958,-2.0843,-2.0627,-2.0407,-2.0252,-2.0098,-1.9922,-1.9851,-1.9744,-1.9523,-1.8936,-1.8187,-1.7401,-1.6624,-1.5862,-1.5173,-1.4859,-1.4702,-1.4594,-1.4433,-1.4189,-1.3891,-1.3674,-1.3476,-3.6544,-3.5842,-3.584,-3.5343,-3.4589,-3.4276,-3.3262,-3.1838,-3.1136,-3.0849,-3.0816,-2.9976,-2.9508,-2.9293,-2.8612,-2.83,-2.83,-2.8125,-2.8047,-2.8027,-2.7148,-2.6758,-2.6719,-2.6016,-2.5703,-2.5703,-2.5703,-2.5703,-2.5703,-2.5703,-2.5703,-2.5702,-2.5702,-2.57,-2.568,0.0,0.0,0.0,-2.1992,-2.1556,-2.1528,-2.0699,-1.9909,-1.9232,-1.8882,0.0,-1.677,-1.6514,-1.6104,-1.5443,-1.5387,0.0,0.0,0.0,0.0,0.0,0.0,0.0,0.0,0.0,0.0,0.0,-1.6689,-1.6645,-1.5914,-1.6679,-1.7519,-1.8174,-1.8234,-1.8485,-1.9045,-1.9121,-1.9122,-1.9091,-1.9837,-2.0526,-2.1011,-2.1837,-2.2495,-2.3006,-2.3056,-2.2982,-2.2799,-2.2699,-2.2592,-2.2474,-2.2366,-2.2254,-2.2183,-2.1814,-2.1511,-2.1262,-2.1007,-2.0827,-2.0644,-2.051,-2.0392,-2.0287,-2.0148,-2.001,-1.9856,-1.9223,-1.8476,-1.767,-1.6919,-1.6164,-1.546,-1.5104,-1.4951,-1.4907,-1.4688,-1.4372,-1.4046,-1.3845,-1.3695,-3.6876,0.0,-3.5799,-3.5553,0.0,-3.4778,-3.4121,-3.3251,-3.1994,-3.1227,-3.0827,-3.0421,-3.0247,-3.0208,-2.9782,-2.9587,-2.9568,-2.9139,-2.8944,-2.8886,-2.8046,-2.7401,-2.6991,-2.6542,-2.6112,-2.5722,-2.5702,-2.5702,-2.5702,-2.5702,-2.5703,-2.5703,-2.5703,-2.5703,-2.5703,-2.5703,-2.5057,-2.3744,-2.2882,-2.2234,-2.1798,-2.1384,-2.0711,-1.9873,0.0,0.0,0.0,0.0,0.0,0.0,0.0,0.0,0.0,0.0,0.0,-1.5416,-1.5773,-1.5969,-1.5982,-1.6738,-1.7178,-1.7161,-1.788,-1.8129,-1.7618,-1.7909,-1.8395,-1.9154,-1.9193,-1.9307,-1.9642,-1.9567,-1.9623,-1.9962,-2.0613,-2.1297,-2.193,-2.2646,-2.316,-2.3323,-2.3313,-2.318,-2.2982,-2.2868,-2.2768,-2.2619,-2.2515,-2.2436,-2.2338,-2.2005,-2.1663,-2.1387,-2.1183,-2.099,-2.0909,-2.0794,-2.0663,-2.0595,-2.0477,-2.0357,-2.027,-1.9322,-1.8382,-1.7876,-1.6983,-1.6055,-1.5699,-1.5404,-1.5254,-1.518,-1.4953,-1.4721,-1.4501,-1.4225,-1.3944,-3.7323,-3.5994,-3.5823,-3.5799,-3.5753,-3.5083,-3.4721,-3.4478,0.0,0.0,0.0,-3.086,-3.0885,-3.0886,-3.089,-3.0892,-3.0855,-3.0171,-2.982,-2.9801,-2.8941,-2.816,-2.7457,-2.7144,-2.6617,-2.5934,-2.5759,-2.57,-2.57,-2.57,-2.57,-2.57,-2.57,-2.57,-2.57,-2.5702,-2.5351,-2.4628,-2.3611,-2.2749,-2.2043,-2.1729,-2.1253,-2.0512,-1.9804,-1.9368,-1.9223,-1.8517,-1.7772,-1.6994,-1.694,-1.6591,-1.591,-1.5855,-1.5853,-1.5865,-1.6541,-1.6896,-1.685,-1.759,-1.8111,-1.8241,-1.8863,-1.9216,-1.9126,-1.9031,-1.9237,-1.9961,-1.9884,-1.9826,-1.9801,-1.9705,-1.992,-2.0652,-2.1328,-2.198,-2.2673,-2.3375,-2.3732,-2.3589,-2.3476,-2.336,-2.318,-2.3028,-2.2906,-2.2777,-2.2685,-2.2565,-2.2419,-2.2089,-2.1766,-2.1525,-2.1387,-2.1262,-2.1151,-2.1055,-2.0958,-2.0876,-2.081,-2.0727,-2.0407,-1.9341,-1.8408,-1.8191,-1.6968,-1.6107,-1.5871,-1.5711,-1.5551,-1.5477,-1.527,-1.5089,-1.5014,-1.4672,-1.4305,-3.762,-3.6687,-3.6003,-3.5747,-3.5803,-3.5686,-3.5247,-3.4471,-3.2825,-3.1617,-3.0801,-3.0803,-3.0809,-3.0815,-3.0821,-3.0846,-3.0889,-3.0776,-3.0718,-3.0679,-2.982,-2.9351,-2.9156,-2.7691,-2.6929,-2.6753,-2.6051,-2.57,-2.57,-2.57,-2.57,-2.57,-2.57,-2.57,-2.57,-2.57,-2.5622,-2.5487,-2.3926,-2.3046,-2.2908,-2.1499,-2.0714,-2.059,-2.0405,-1.9986,-1.9315,-1.9116,-1.8644,-1.788,-1.7804,-1.7745,-1.7648,-1.761,-1.7608,-1.7563,-1.7717,-1.7787,-1.7742,-1.8529,-1.9299,-1.996,-2.0079,-2.0084,-2.002,-1.9935,-1.995,-1.9998,-1.9974,-1.9921,-1.982,-1.9763,-2.0055,-2.0741,-2.1433,-2.2155,-2.2905,-2.3512,-2.3847,-2.3761,-2.3645,-2.3528,-2.3372,-2.3241,-2.3107,-2.2982,-2.2855,-2.2699,-2.2497,-2.2186,-2.1926,-2.1766,-2.1678,-2.1541,-2.1402,-2.134,-2.1261,-2.1167,-2.1087,-2.099,-2.0861,-1.9578,-1.8622,-1.8453,-1.723,-1.6314,-1.6081,-1.5997,-1.5884,-1.5755,-1.5551,-1.5418,-1.5344,-1.5089,-1.4797,-3.8048,-3.6919,-3.6502,-3.61,-3.5761,-3.5782,-3.5321,-3.4508,-3.3779,-3.2969,-3.2201,-3.2196,-3.195,-3.1507,-3.151,-3.1259,-3.0834,-3.0858,-3.0859,-3.082,-3.0429,-2.9999,-2.9491,-2.8729,-2.789,-2.7013,-2.6604,-2.6175,-2.5746,-2.5687,-2.5688,-2.5688,-2.5688,-2.5688,-2.5691,-2.5691,-2.5693,-2.5677,-2.492,-2.4062,-2.3105,-2.2343,-2.1521,-2.0636,-2.0551,-2.0369,-1.9974,-1.9908,-1.9532,-1.8747,-1.8689,-1.8491,-1.802,-1.7999,-1.7978,-1.7934,-1.8363,-1.8627,-1.8611,-1.9418,-2.0061,-2.0369,-2.0365,-2.0331,-2.0318,-2.0214,-2.0112,-2.0069,-2.0033,-1.9988,-1.9915,-1.9844,-2.0257,-2.1465,-2.1797,-2.2416,-2.3428,-2.3876,-2.3988,-2.3858,-2.3761,-2.3671,-2.3578,-2.3441,-2.3313,-2.3163,-2.3033,-2.2842,-2.2685,-2.2494,-2.2301,-2.2075,-2.193,-2.1825,-2.1706,-2.1646,-2.1587,-2.1481,-2.1402,-2.1309,-2.1118,-1.9886,-1.8969,-1.8688,-1.7501,-1.6505,-1.6289,-1.6205,-1.6094,-1.5983,-1.587,-1.5769,-1.5668,-1.5448,-1.5104,-3.8593,-3.7437,-3.7042,-3.6419,-3.5683,-3.5756,-3.539,-3.4792,-3.4835,-3.4478,-3.388,-3.3536,-3.3007,-3.2407,-3.2368,-3.1904,-3.1168,-3.109,-3.0973,-3.0819,-3.0799,-3.0445,-2.9817,-2.9602,-2.8822,-2.7612,-2.7183,-2.6619,-2.6016,-2.5782,-2.5684,-2.5665,-2.5684,-2.5687,-2.5694,-2.5694,-2.5699,-2.5689,-2.5694,-2.4938,-2.3457,-2.3047,-2.2207,-2.1013,-2.0716,-2.0574,-2.0532,-2.0526,-2.0227,-1.9635,-1.9577,-1.9261,-1.8631,-1.8571,-1.853,-1.8547,-1.913,-1.9495,-1.9523,-2.0115,-2.047,-2.0432,-2.0415,-2.041,-2.0411,-2.0292,-2.0205,-2.0144,-2.0074,-2.0014,-1.9985,-1.9915,-2.0477,-2.1969,-2.2118,-2.2664,-2.3961,-2.4247,-2.4152,-2.3978,-2.3907,-2.3852,-2.3747,-2.3616,-2.347,-2.3319,-2.318,-2.3033,-2.2902,-2.2829,-2.2646,-2.2412,-2.22,-2.2058,-2.1986,-2.1913,-2.1842,-2.1784,-2.1693,-2.1602,-2.1266,-2.0156,-1.9215,-1.8901,-1.7723,-1.6752,-1.6503,-1.6421,-1.6326,-1.6205,-1.6108,-1.6038,-1.5912,-1.5755,-1.5404,-3.9201,-3.8861,-3.7469,-3.6342,-3.567,-3.5713,-3.5655,-3.5582,-3.5646,-3.5667,-3.5345,-3.3978,-3.3309,-3.3198,-3.3198,-3.2764,-3.2003,-3.1985,-3.1556,-3.0874,-3.0798,-3.0734,-3.0568,-2.9885,-2.9433,-2.9033,-2.7725,-2.6965,-2.6695,-2.5952,-2.5603,-2.5603,-2.5603,-2.5627,-2.5692,-2.5696,-2.5701,-2.5692,-2.5693,-2.5236,-2.4274,-2.2792,-2.1933,-2.1777,-2.1014,-2.0601,-2.064,-2.0596,-2.0532,-2.0409,-2.0369,-2.0347,-2.0243,-2.0242,-2.0242,-2.0223,-2.0319,-2.0375,-2.0386,-2.0432,-2.0498,-2.0504,-2.0502,-2.0478,-2.0413,-2.0372,-2.0332,-2.0215,-2.0134,-2.0069,-2.002,-1.9972,-2.0574,-2.1964,-2.2182,-2.2772,-2.4063,-2.4367,-2.4266,-2.418,-2.4103,-2.4016,-2.3832,-2.3608,-2.3465,-2.3181,-2.3153,-2.3112,-2.3021,-2.3022,-2.2927,-2.2803,-2.2579,-2.2332,-2.222,-2.218,-2.2089,-2.1928,-2.1868,-2.1811,-2.1442,-2.0469,-1.9355,-1.9156,-1.7998,-1.6969,-1.6792,-1.6696,-1.6578,-1.6436,-1.6342,-1.6274,-1.6066,-1.5983,-1.5696,-3.9718,-3.9232,-3.8553,-3.7507,-3.6342,-3.5845,-3.5639,-3.5644,-3.5713,-3.5736,-3.5678,-3.4997,-3.4478,-3.4085,-3.4068,-3.3607,-3.2797,-3.2296,-3.1868,-3.1478,-3.0991,-3.0735,-3.0708,-3.0397,-2.9985,-2.9491,-2.8724,-2.7865,-2.6892,-2.6031,-2.5598,-2.5598,-2.5603,-2.563,-2.5634,-2.5643,-2.5634,-2.5644,-2.5646,-2.546,-2.5048,-2.3986,-2.3135,-2.2592,-2.1776,-2.1328,-2.1308,-2.0878,-2.0582,-2.0558,-2.0577,-2.0574,-2.0549,-2.0549,-2.0568,-2.0548,-2.0568,-2.0567,-2.0564,-2.0517,-2.0509,-2.0501,-2.0505,-2.0502,-2.0451,-2.0424,-2.0365,-2.0317,-2.0215,-2.012,-2.0074,-2.0015,-2.047,-2.1475,-2.199,-2.2691,-2.3694,-2.42,-2.4393,-2.4312,-2.4228,-2.3923,-2.3398,-2.2789,-2.2367,-2.2264,-2.2486,-2.277,-2.2651,-2.2911,-2.3139,-2.3082,-2.2932,-2.2725,-2.2511,-2.2429,-2.236,-2.2248,-2.2163,-2.2092,-2.1805,-2.0644,-1.9587,-1.9547,-1.8169,-1.7207,-1.7055,-1.6926,-1.6812,-1.6672,-1.6543,-1.645,-1.6274,-1.6248,-1.6038,-4.0162,-3.9615,-3.9148,-3.8129,-3.6749,-3.5942,-3.5623,-3.561,-3.5653,-3.5679,-3.5689,-3.5694,-3.5406,-3.4948,-3.4908,-3.4441,-3.3589,-3.2743,-3.2221,-3.1929,-3.1106,-3.0694,-3.071,-3.0704,-3.0387,-2.9836,-2.9512,-2.8495,-2.6964,-2.6272,-2.5819,-2.5609,-2.5579,-2.5565,-2.5571,-2.5587,-2.5578,-2.5608,-2.561,-2.5595,-2.5531,-2.5024,-2.4321,-2.3477,-2.2606,-2.2083,-2.1871,-2.1248,-2.082,-2.0605,-2.0604,-2.0603,-2.0599,-2.0599,-2.0599,-2.0599,-2.0599,-2.0599,-2.0599,-2.0555,-2.0531,-2.0525,-2.0514,-2.0513,-2.0488,-2.0463,-2.0429,-2.0385,-2.0317,-2.0238,-2.0162,-2.0093,-2.0402,-2.1151,-2.1896,-2.2644,-2.3378,-2.4108,-2.4539,-2.4455,-2.4089,-2.3603,-2.2786,-2.2072,-2.1616,-2.1573,-2.1894,-2.2186,-2.2118,-2.2558,-2.3017,-2.3,-2.3053,-2.3028,-2.2764,-2.2685,-2.2619,-2.2501,-2.2405,-2.2349,-2.2161,-2.0827,-1.9813,-1.9623,-1.8224,-1.7416,-1.7293,-1.7163,-1.7052,-1.6942,-1.6805,-1.6662,-1.6543,-1.6506,-1.6355,-4.0491,-4.021,-3.8741,-3.7672,-3.6754,-3.5971,-3.5623,-3.561,-3.5601,-3.5623,-3.5612,-3.5678,-3.5689,-3.5597,-3.5618,-3.5259,-3.4427,-3.3608,-3.2817,-3.2039,-3.1148,-3.0707,-3.0694,-3.0695,-3.0634,-3.0409,-2.9804,-2.8578,-2.6927,-2.6733,-2.6329,-2.5554,-2.5495,-2.5506,-2.5515,-2.5502,-2.555,-2.5582,-2.5604,-2.559,-2.5601,-2.5529,-2.5109,-2.4346,-2.3504,-2.2671,-2.1953,-2.1766,-2.14,-2.0621,-2.0584,-2.0605,-2.0605,-2.0605,-2.0605,-2.0605,-2.0605,-2.0605,-2.0605,-2.0604,-2.0581,-2.0578,-2.0528,-2.0511,-2.0518,-2.049,-2.048,-2.0417,-2.039,-2.0366,-2.0277,-2.0229,-2.0455,-2.1155,-2.2004,-2.276,-2.3455,-2.42,-2.4612,-2.4476,-2.3771,-2.2901,-2.2001,-2.1777,-2.1487,-2.1416,-2.1516,-2.1505,-2.1544,-2.206,-2.2428,-2.2543,-2.2836,-2.3224,-2.2947,-2.2876,-2.2786,-2.2685,-2.2623,-2.2487,-2.1932,-2.1307,-2.0513,-1.9656,-1.8447,-1.7711,-1.7536,-1.7403,-1.7313,-1.7179,-1.705,-1.6927,-1.6818,-1.6675,-1.6557,-4.0477,-4.0386,-3.9258,-3.8308,-3.7509,-3.6716,-3.6061,-3.5573,-3.5578,-3.5622,-3.5608,-3.5626,-3.5631,-3.5648,-3.5662,-3.5539,-3.5197,-3.4434,-3.3599,-3.2749,-3.1868,-3.1162,-3.0669,-3.0641,-3.0629,-3.055,-3.0285,-2.9257,-2.7602,-2.7003,-2.6288,-2.5557,-2.5434,-2.5441,-2.5449,-2.5476,-2.5513,-2.5527,-2.5527,-2.5538,-2.5538,-2.5531,-2.5415,-2.515,-2.437,-2.3532,-2.266,-2.2102,-2.1406,-2.0573,-2.0536,-2.0557,-2.06,-2.0601,-2.0601,-2.0601,-2.0601,-2.0601,-2.0603,-2.0604,-2.0605,-2.0604,-2.058,-2.055,-2.0499,-2.0498,-2.0494,-2.047,-2.0461,-2.0421,-2.036,-2.0307,-2.0344,-2.0689,-2.1773,-2.2641,-2.3063,-2.4008,-2.4805,-2.4531,-2.345,-2.214,-2.1394,-2.0688,-2.0275,-2.0249,-2.0613,-2.083,-2.0907,-2.1415,-2.1893,-2.1804,-2.1949,-2.2064,-2.1918,-2.2659,-2.301,-2.2902,-2.2777,-2.2367,-2.1888,-2.1061,-2.024,-1.9553,-1.8484,-1.7935,-1.7732,-1.7624,-1.7514,-1.742,-1.7297,-1.7175,-1.708,-1.6946,-1.6818,-4.0379,-4.0323,-3.9536,-3.8861,-3.8258,-3.7204,-3.6411,-3.5821,-3.5598,-3.5515,-3.5528,-3.5554,-3.5566,-3.5585,-3.5577,-3.5618,-3.5576,-3.4817,-3.4144,-3.3505,-3.2401,-3.1564,-3.1012,-3.0698,-3.0573,-3.0564,-3.0564,-2.9748,-2.8401,-2.7494,-2.6664,-2.5873,-2.5558,-2.5393,-2.5412,-2.5444,-2.546,-2.5468,-2.5472,-2.5464,-2.5467,-2.5478,-2.5495,-2.548,-2.5038,-2.4352,-2.3495,-2.2666,-2.1815,-2.1021,-2.0654,-2.0521,-2.0584,-2.0564,-2.0566,-2.0566,-2.0567,-2.0568,-2.0574,-2.0598,-2.0602,-2.0605,-2.0605,-2.0581,-2.0534,-2.052,-2.0503,-2.0503,-2.0517,-2.0493,-2.0446,-2.0363,-2.0311,-2.0454,-2.167,-2.2587,-2.2683,-2.3974,-2.4774,-2.4622,-2.3331,-2.1962,-2.0994,-2.0122,-1.9683,-1.9488,-1.9993,-2.0205,-2.0211,-2.0747,-2.1242,-2.1171,-2.1396,-2.1548,-2.1578,-2.2078,-2.2226,-2.2124,-2.22,-2.193,-2.1556,-2.0732,-2.0039,-1.936,-1.8788,-1.8286,-1.7966,-1.7845,-1.7726,-1.763,-1.7519,-1.7394,-1.7293,-1.7195,-1.7072,-4.028,-4.0274,-3.9467,-3.9103,-3.8786,-3.7471,-3.6684,-3.6397,-3.5726,-3.5468,-3.5439,-3.5467,-3.5482,-3.5502,-3.5547,-3.5591,-3.5443,-3.4822,-3.4431,-3.4127,-3.2636,-3.1853,-3.166,-3.0877,-3.0495,-3.0504,-3.0504,-3.0016,-2.9056,-2.8265,-2.7456,-2.6636,-2.5836,-2.5489,-2.5387,-2.5378,-2.5402,-2.5387,-2.5406,-2.5419,-2.5397,-2.5406,-2.5445,-2.5476,-2.5427,-2.5059,-2.4331,-2.3532,-2.2645,-2.1751,-2.0979,-2.0537,-2.0519,-2.05,-2.0521,-2.0506,-2.0506,-2.051,-2.0517,-2.0567,-2.0594,-2.0601,-2.0604,-2.0605,-2.0582,-2.0554,-2.0542,-2.0663,-2.0643,-2.062,-2.0683,-2.0708,-2.06,-2.0497,-2.1812,-2.2657,-2.3059,-2.4081,-2.4974,-2.4719,-2.3504,-2.2104,-2.1141,-2.0363,-1.9868,-1.9742,-1.9719,-1.9736,-1.9675,-2.0199,-2.051,-2.0621,-2.0793,-2.0951,-2.1225,-2.1451,-2.1241,-2.1095,-2.1228,-2.1194,-2.091,-2.0275,-1.9847,-1.9234,-1.8788,-1.8301,-1.8138,-1.802,-1.7955,-1.7861,-1.7726,-1.7617,-1.7507,-1.7413,-1.7264,-4.0177,-4.0244,-3.9976,-3.9526,-3.9018,-3.845,-3.7636,-3.6572,-3.6259,-3.5879,-3.54,-3.5357,-3.5352,-3.5367,-3.5381,-3.5407,-3.5369,-3.5102,-3.479,-3.4208,-3.3134,-3.2279,-3.1675,-3.089,-3.0483,-3.0439,-3.0377,-2.9917,-2.9183,-2.8774,-2.7986,-2.6738,-2.6301,-2.5835,-2.5288,-2.5264,-2.5274,-2.5327,-2.5327,-2.5322,-2.5346,-2.5364,-2.541,-2.5417,-2.5441,-2.5313,-2.5117,-2.4349,-2.3227,-2.185,-2.1465,-2.1081,-2.064,-2.0506,-2.0509,-2.0499,-2.0499,-2.0508,-2.0503,-2.051,-2.0561,-2.0594,-2.0601,-2.0604,-2.0605,-2.0602,-2.0829,-2.1269,-2.1394,-2.1594,-2.2123,-2.2278,-2.1952,-2.1348,-2.2157,-2.3065,-2.3644,-2.4513,-2.5019,-2.4948,-2.4043,-2.2797,-2.1531,-2.0771,-2.0402,-1.9963,-1.9789,-1.9693,-1.9696,-1.9836,-1.9957,-1.9952,-2.0128,-2.0304,-2.0446,-2.0515,-2.0378,-2.0418,-2.0566,-2.0547,-2.0255,-2.001,-1.9597,-1.9202,-1.8765,-1.8473,-1.8315,-1.8215,-1.8152,-1.8074,-1.7944,-1.7845,-1.7726,-1.7624,-1.7491,-4.0077,-4.0166,-4.0166,-3.9881,-3.9376,-3.9098,-3.8363,-3.7332,-3.6716,-3.617,-3.5693,-3.5353,-3.5239,-3.5227,-3.5289,-3.5297,-3.5289,-3.5278,-3.5062,-3.4487,-3.3404,-3.2621,-3.1967,-3.0933,-3.0416,-3.038,-3.0317,-3.0024,-2.95,-2.9123,-2.8312,-2.7131,-2.6634,-2.6016,-2.5236,-2.516,-2.519,-2.5206,-2.5241,-2.5271,-2.5268,-2.5298,-2.5346,-2.5365,-2.536,-2.5378,-2.538,-2.4931,-2.4038,-2.2762,-2.207,-2.1416,-2.0961,-2.0692,-2.0471,-2.0467,-2.0472,-2.0461,-2.048,-2.0506,-2.0519,-2.056,-2.0569,-2.0577,-2.0642,-2.0801,-2.1327,-2.1673,-2.2097,-2.252,-2.2972,-2.3097,-2.2917,-2.2802,-2.3092,-2.3682,-2.4465,-2.4985,-2.52,-2.502,-2.4383,-2.3375,-2.2544,-2.1417,-2.1055,-2.0469,-2.0096,-1.9837,-1.9788,-1.977,-1.9725,-1.9685,-1.9766,-1.9799,-1.9618,-1.9575,-1.9516,-1.9735,-2.0005,-1.992,-1.9723,-1.9641,-1.9362,-1.9137,-1.8751,-1.8648,-1.8487,-1.8448,-1.8371,-1.8266,-1.8148,-1.8074,-1.796,-1.7856,-1.7715,-3.9954,-4.0086,-4.0086,-4.0057,-3.9915,-3.924,-3.8803,-3.846,-3.7234,-3.6482,-3.6148,-3.5574,-3.5191,-3.516,-3.5218,-3.5234,-3.5209,-3.5234,-3.5215,-3.4725,-3.3692,-3.2783,-3.2286,-3.097,-3.0331,-3.0279,-3.0273,-3.0254,-3.0081,-2.9506,-2.8619,-2.7771,-2.695,-2.6059,-2.5397,-2.518,-2.5103,-2.5103,-2.517,-2.5201,-2.5187,-2.519,-2.5212,-2.5276,-2.5268,-2.5278,-2.5259,-2.5178,-2.4874,-2.4057,-2.2557,-2.1791,-2.1614,-2.0943,-2.0554,-2.0565,-2.0454,-2.0427,-2.0485,-2.0495,-2.0494,-2.0518,-2.0509,-2.0522,-2.0651,-2.1225,-2.1756,-2.2031,-2.2713,-2.3238,-2.3365,-2.3455,-2.3736,-2.4277,-2.4305,-2.4635,-2.5239,-2.538,-2.5355,-2.5187,-2.4594,-2.3985,-2.3708,-2.2437,-2.1757,-2.1259,-2.0717,-2.0291,-2.01,-2.0091,-1.9905,-1.9813,-1.9732,-1.9719,-1.9681,-1.964,-1.9592,-1.9655,-1.9789,-1.9651,-1.9494,-1.94,-1.9314,-1.9074,-1.8905,-1.8816,-1.8724,-1.865,-1.8547,-1.8428,-1.8355,-1.8284,-1.818,-1.8042,-1.7911,-3.9777,-3.9811,-3.9792,-3.9811,-3.9804,-3.9602,-3.9188,-3.8658,-3.8264,-3.7298,-3.6407,-3.6008,-3.557,-3.5129,-3.5127,-3.5136,-3.5127,-3.5136,-3.5145,-3.4956,-3.4006,-3.2786,-3.1804,-3.0748,-3.0199,-3.0152,-3.0145,-3.0157,-3.0142,-2.988,-2.932,-2.8505,-2.7613,-2.6763,-2.5983,-2.5317,-2.5057,-2.5044,-2.5107,-2.512,-2.5126,-2.5112,-2.513,-2.5136,-2.5145,-2.5143,-2.5154,-2.5154,-2.48,-2.4081,-2.3088,-2.2488,-2.2439,-2.1733,-2.1248,-2.1146,-2.073,-2.0418,-2.0421,-2.0415,-2.0437,-2.0492,-2.0499,-2.0516,-2.054,-2.1311,-2.2043,-2.2693,-2.3535,-2.4297,-2.482,-2.4935,-2.5122,-2.5273,-2.5187,-2.524,-2.5424,-2.5483,-2.5437,-2.5333,-2.5133,-2.4725,-2.4154,-2.3583,-2.293,-2.2345,-2.1636,-2.0932,-2.0749,-2.0394,-2.0191,-1.9971,-1.9883,-1.9867,-1.9825,-1.9789,-1.975,-1.9738,-1.9733,-1.9636,-1.9501,-1.9384,-1.9287,-1.9134,-1.9109,-1.9034,-1.8922,-1.8825,-1.8725,-1.8612,-1.8544,-1.8475,-1.8325,-1.818,-1.8081,-3.9606,-3.9611,-3.9611,-3.963,-3.963,-3.9658,-3.9418,-3.9007,-3.8682,-3.8102,-3.715,-3.6365,-3.5893,-3.5477,-3.5145,-3.4974,-3.4983,-3.4955,-3.4974,-3.4813,-3.3989,-3.2755,-3.1442,-3.0483,-3.0049,-3.0015,-3.0026,-3.0011,-3.0022,-3.0007,-2.9535,-2.8761,-2.8218,-2.7369,-2.6157,-2.574,-2.5241,-2.5002,-2.4979,-2.5024,-2.5024,-2.5012,-2.5006,-2.5013,-2.5019,-2.5006,-2.5012,-2.5031,-2.4812,-2.4366,-2.3721,-2.3261,-2.3226,-2.2519,-2.1929,-2.1606,-2.1092,-2.0743,-2.0427,-2.0362,-2.0391,-2.0449,-2.0465,-2.0467,-2.0727,-2.1584,-2.2671,-2.3053,-2.4211,-2.5076,-2.5547,-2.5702,-2.5698,-2.5648,-2.5658,-2.5615,-2.5546,-2.554,-2.5515,-2.5452,-2.5399,-2.5302,-2.4717,-2.4362,-2.3869,-2.3293,-2.2516,-2.188,-2.1383,-2.0896,-2.0408,-2.0154,-1.999,-1.9966,-1.9934,-1.9908,-1.9867,-1.9855,-1.9819,-1.9694,-1.9576,-1.9464,-1.9383,-1.9334,-1.9311,-1.9256,-1.9117,-1.9008,-1.8913,-1.8834,-1.8752,-1.8638,-1.8493,-1.8355,-1.8232,-3.9433,-3.9489,-3.9489,-3.9489,-3.9508,-3.9489,-3.9477,-3.9431,-3.8886,-3.8489,-3.8026,-3.6774,-3.6107,-3.5956,-3.5141,-3.4791,-3.4798,-3.4811,-3.4781,-3.4514,-3.3785,-3.2656,-3.1437,-3.0583,-3.0072,-2.992,-2.9864,-2.9864,-2.9893,-2.9876,-2.95,-2.8917,-2.8649,-2.7802,-2.6709,-2.62,-2.5627,-2.5107,-2.4906,-2.487,-2.4877,-2.4879,-2.4893,-2.4907,-2.4914,-2.4902,-2.4902,-2.4902,-2.4898,-2.5036,-2.4373,-2.4083,-2.3997,-2.3289,-2.2585,-2.2012,-2.1765,-2.1343,-2.0739,-2.0687,-2.0624,-2.0781,-2.0723,-2.0636,-2.1135,-2.2349,-2.3263,-2.3358,-2.476,-2.5475,-2.5661,-2.5703,-2.5702,-2.57,-2.5691,-2.5669,-2.5619,-2.56,-2.5581,-2.552,-2.5499,-2.5518,-2.5323,-2.4907,-2.432,-2.4292,-2.35,-2.272,-2.207,-2.146,-2.0824,-2.0199,-2.0093,-2.0036,-2.0025,-2.0014,-1.9982,-1.998,-1.9952,-1.9866,-1.9738,-1.9635,-1.956,-1.9504,-1.9475,-1.9394,-1.9246,-1.9166,-1.9109,-1.9,-1.8905,-1.8788,-1.8675,-1.8534,-1.8398,-3.9309,-3.9425,-3.9438,-3.9406,-3.9425,-3.9425,-3.9419,-3.9413,-3.9264,-3.8802,-3.8146,-3.7202,-3.6453,-3.591,-3.5141,-3.4699,-3.4697,-3.4708,-3.4676,-3.4467,-3.3714,-3.2801,-3.183,-3.1044,-3.034,-2.9916,-2.9747,-2.9747,-2.9747,-2.9719,-2.9653,-2.94,-2.8744,-2.8183,-2.7714,-2.6541,-2.5903,-2.5566,-2.508,-2.4727,-2.4719,-2.4734,-2.4776,-2.4798,-2.4827,-2.4816,-2.4823,-2.4823,-2.4837,-2.483,-2.4802,-2.4683,-2.4579,-2.4005,-2.3468,-2.3157,-2.2685,-2.2345,-2.2105,-2.1598,-2.1544,-2.1999,-2.1635,-2.1662,-2.2396,-2.3287,-2.3937,-2.4194,-2.5042,-2.5651,-2.5689,-2.5699,-2.5702,-2.5703,-2.5702,-2.5698,-2.569,-2.5668,-2.566,-2.5604,-2.5586,-2.5571,-2.5582,-2.5428,-2.5111,-2.5071,-2.445,-2.358,-2.2801,-2.2034,-2.1244,-2.0469,-2.0192,-2.0146,-2.0124,-2.0116,-2.0103,-2.0079,-2.0054,-2.0029,-1.9917,-1.9806,-1.9732,-1.9687,-1.9653,-1.9539,-1.9405,-1.9357,-1.9285,-1.9176,-1.9052,-1.8949,-1.8833,-1.8705,-1.8555,-3.9092,-3.9152,-3.9152,-3.9152,-3.9184,-3.9166,-3.918,-3.9207,-3.9248,-3.9045,-3.8482,-3.7493,-3.6749,-3.6264,-3.515,-3.455,-3.455,-3.4517,-3.4465,-3.4311,-3.3855,-3.3238,-3.2396,-3.1555,-3.0692,-2.9765,-2.956,-2.955,-2.9531,-2.9512,-2.9502,-2.9483,-2.8969,-2.8557,-2.8128,-2.699,-2.6207,-2.5647,-2.4983,-2.4551,-2.4551,-2.4594,-2.4637,-2.4676,-2.47,-2.4689,-2.4707,-2.4715,-2.4723,-2.4746,-2.4824,-2.491,-2.4942,-2.4581,-2.4195,-2.3763,-2.3519,-2.2964,-2.259,-2.2282,-2.2202,-2.2741,-2.2336,-2.2443,-2.2921,-2.3705,-2.4187,-2.4455,-2.5039,-2.5677,-2.569,-2.5704,-2.5692,-2.5698,-2.5702,-2.5703,-2.5702,-2.5693,-2.5692,-2.5662,-2.565,-2.5658,-2.5626,-2.5586,-2.5526,-2.5315,-2.529,-2.4441,-2.3182,-2.2404,-2.1575,-2.0875,-2.0432,-2.0246,-2.025,-2.0223,-2.0205,-2.0184,-2.0148,-2.013,-2.0065,-1.9981,-1.9915,-1.9841,-1.9788,-1.9712,-1.9601,-1.9539,-1.9453,-1.9323,-1.9206,-1.9102,-1.8993,-1.8861,-1.8697,-3.8881,-3.8877,-3.8877,-3.891,-3.891,-3.8925,-3.8954,-3.8993,-3.905,-3.8971,-3.871,-3.7435,-3.6702,-3.6298,-3.503,-3.4389,-3.4328,-3.4311,-3.4245,-3.4196,-3.4105,-3.35,-3.276,-3.2026,-3.1027,-2.9654,-2.9417,-2.937,-2.9291,-2.9251,-2.9299,-2.9251,-2.9222,-2.8878,-2.8211,-2.7461,-2.6672,-2.594,-2.5115,-2.4503,-2.4409,-2.4444,-2.4478,-2.4547,-2.4553,-2.4553,-2.4561,-2.458,-2.4588,-2.4658,-2.4639,-2.4718,-2.4798,-2.4825,-2.465,-2.3915,-2.3948,-2.3714,-2.3245,-2.2924,-2.286,-2.2981,-2.2905,-2.304,-2.3396,-2.3987,-2.4397,-2.4703,-2.5159,-2.5617,-2.566,-2.5676,-2.5689,-2.5702,-2.5693,-2.5698,-2.5702,-2.5703,-2.5698,-2.5687,-2.5681,-2.5675,-2.5666,-2.5634,-2.5621,-2.5607,-2.5563,-2.5124,-2.3816,-2.2763,-2.1934,-2.1044,-2.0551,-2.0331,-2.0318,-2.0318,-2.0287,-2.0269,-2.025,-2.0239,-2.0208,-2.015,-2.0065,-1.9958,-1.9889,-1.9824,-1.9751,-1.9668,-1.9569,-1.9452,-1.9335,-1.9248,-1.9145,-1.9037,-1.8861,-3.8747,-3.8822,-3.8881,-3.891,-3.891,-3.891,-3.8896,-3.8906,-3.8884,-3.8547,-3.7896,-3.6985,-3.6186,-3.5545,-3.4668,-3.4167,-3.4136,-3.4086,-3.4067,-3.4049,-3.3979,-3.3566,-3.2926,-3.2495,-3.1532,-3.0239,-2.9565,-2.9289,-2.9145,-2.9134,-2.91,-2.9055,-2.9026,-2.886,-2.8621,-2.8051,-2.7132,-2.6268,-2.5459,-2.4817,-2.434,-2.4266,-2.433,-2.442,-2.4418,-2.4417,-2.4434,-2.4442,-2.4442,-2.4469,-2.4451,-2.4468,-2.4518,-2.4634,-2.461,-2.4531,-2.4499,-2.4327,-2.4173,-2.3815,-2.3986,-2.4251,-2.3989,-2.4052,-2.4541,-2.4884,-2.4951,-2.5146,-2.5293,-2.5553,-2.5593,-2.5617,-2.5634,-2.5675,-2.569,-2.5699,-2.5686,-2.5694,-2.5701,-2.5703,-2.57,-2.5696,-2.569,-2.5684,-2.5658,-2.565,-2.5644,-2.4992,-2.3807,-2.2974,-2.228,-2.1392,-2.0541,-2.0444,-2.0407,-2.0391,-2.0371,-2.0379,-2.0344,-2.0334,-2.0321,-2.0294,-2.0227,-2.013,-2.0025,-1.9947,-1.9875,-1.9806,-1.9707,-1.9577,-1.9485,-1.9361,-1.9253,-1.916,-1.9026,-3.853,-3.8606,-3.8618,-3.8652,-3.8634,-3.8652,-3.8634,-3.8579,-3.8239,-3.7849,-3.7239,-3.6311,-3.556,-3.5034,-3.4315,-3.3965,-3.3921,-3.3868,-3.386,-3.3829,-3.3784,-3.3633,-3.308,-3.2787,-3.1837,-3.0726,-2.9948,-2.9318,-2.8977,-2.8899,-2.8881,-2.8827,-2.8791,-2.8785,-2.8603,-2.7966,-2.7212,-2.641,-2.5629,-2.4847,-2.413,-2.4096,-2.4191,-2.4266,-2.4284,-2.4303,-2.4284,-2.4303,-2.4303,-2.4303,-2.4303,-2.4303,-2.433,-2.4384,-2.4488,-2.4588,-2.465,-2.4707,-2.4727,-2.438,-2.4471,-2.4742,-2.449,-2.4562,-2.4928,-2.5082,-2.5215,-2.5317,-2.5423,-2.5483,-2.5541,-2.5556,-2.5587,-2.5622,-2.5638,-2.5648,-2.5658,-2.5665,-2.5681,-2.5696,-2.5702,-2.5703,-2.5701,-2.5699,-2.5698,-2.5695,-2.5691,-2.4885,-2.3824,-2.3152,-2.2539,-2.1554,-2.0688,-2.0482,-2.0449,-2.0439,-2.0446,-2.0434,-2.0425,-2.0417,-2.0399,-2.038,-2.0341,-2.0299,-2.0199,-2.0083,-1.9995,-1.9915,-1.9817,-1.972,-1.9641,-1.9539,-1.9405,-1.9292,-1.9166,-3.8272,-3.8318,-3.8334,-3.835,-3.8298,-3.8168,-3.8111,-3.8,-3.7332,-3.6903,-3.6625,-3.5556,-3.4889,-3.4559,-3.4106,-3.3712,-3.3712,-3.3657,-3.3629,-3.3615,-3.3605,-3.3563,-3.3334,-3.2865,-3.2042,-3.0908,-3.04,-2.9588,-2.8852,-2.8694,-2.8657,-2.8637,-2.8574,-2.8536,-2.8386,-2.8007,-2.7091,-2.623,-2.5595,-2.4867,-2.4151,-2.3986,-2.4074,-2.4103,-2.4103,-2.4113,-2.4095,-2.4113,-2.4113,-2.4113,-2.4113,-2.4113,-2.4113,-2.4113,-2.4172,-2.4293,-2.4435,-2.4522,-2.4564,-2.4575,-2.4579,-2.4742,-2.4749,-2.4818,-2.4929,-2.5025,-2.5087,-2.5225,-2.5313,-2.5391,-2.5434,-2.546,-2.5506,-2.5549,-2.5571,-2.5581,-2.5595,-2.5607,-2.5636,-2.5663,-2.5683,-2.5694,-2.5681,-2.5703,-2.5703,-2.5703,-2.5683,-2.5214,-2.4197,-2.3392,-2.2664,-2.1644,-2.0897,-2.0598,-2.0494,-2.049,-2.0482,-2.0472,-2.0487,-2.0464,-2.0469,-2.0452,-2.0439,-2.0405,-2.0324,-2.0204,-2.0124,-2.0025,-1.9931,-1.9841,-1.9776,-1.9693,-1.956,-1.9435,-1.9297,-3.8035,-3.8052,-3.8101,-3.8153,-3.8008,-3.7446,-3.7205,-3.7124,-3.6394,-3.569,-3.5264,-3.4819,-3.428,-3.3811,-3.3571,-3.3452,-3.3437,-3.3419,-3.3422,-3.339,-3.3408,-3.3364,-3.3337,-3.3301,-3.2108,-3.0995,-3.0611,-2.9782,-2.8809,-2.8479,-2.8484,-2.8432,-2.8367,-2.834,-2.8304,-2.8125,-2.7412,-2.6223,-2.5877,-2.5144,-2.4039,-2.3813,-2.3834,-2.3845,-2.3855,-2.3855,-2.3855,-2.3863,-2.3845,-2.3845,-2.3837,-2.3837,-2.3837,-2.3837,-2.3837,-2.3949,-2.4135,-2.4348,-2.4402,-2.4418,-2.4495,-2.4588,-2.4623,-2.47,-2.4808,-2.4941,-2.5019,-2.5119,-2.5179,-2.5239,-2.5327,-2.5372,-2.5441,-2.5483,-2.5499,-2.5496,-2.5514,-2.5549,-2.5582,-2.5595,-2.5609,-2.566,-2.568,-2.5687,-2.5693,-2.5695,-2.5599,-2.5132,-2.4548,-2.371,-2.2461,-2.1347,-2.0877,-2.0601,-2.0502,-2.05,-2.0516,-2.0511,-2.0509,-2.0506,-2.0497,-2.0485,-2.0489,-2.0461,-2.0395,-2.0334,-2.0246,-2.0146,-2.0036,-1.9958,-1.9894,-1.9794,-1.9699,-1.958,-1.9445,-3.7613,-3.7827,-3.7862,-3.7644,-3.7299,-3.6938,-3.6575,-3.6065,-3.5343,-3.4834,-3.4434,-3.3967,-3.356,-3.3262,-3.3183,-3.3135,-3.3137,-3.3122,-3.3137,-3.3137,-3.3122,-3.3088,-3.3057,-3.2968,-3.2153,-3.0901,-3.0324,-2.9514,-2.8641,-2.8232,-2.8264,-2.8237,-2.8182,-2.8122,-2.8122,-2.8122,-2.7464,-2.6516,-2.5645,-2.47,-2.3905,-2.3634,-2.3645,-2.3638,-2.3638,-2.3638,-2.3627,-2.3594,-2.3582,-2.3553,-2.3542,-2.3531,-2.3553,-2.3565,-2.3576,-2.3649,-2.38,-2.3986,-2.4143,-2.4192,-2.4312,-2.4393,-2.4455,-2.4505,-2.4676,-2.4801,-2.4881,-2.4921,-2.5019,-2.5109,-2.5176,-2.5248,-2.5308,-2.5359,-2.5401,-2.543,-2.5453,-2.549,-2.5531,-2.5544,-2.5538,-2.5565,-2.5585,-2.5605,-2.5618,-2.5648,-2.5594,-2.5344,-2.4704,-2.3909,-2.2468,-2.0851,-2.0621,-2.0526,-2.0507,-2.0507,-2.0508,-2.0508,-2.0546,-2.0545,-2.0522,-2.0516,-2.0508,-2.0512,-2.0464,-2.0415,-2.0349,-2.0249,-2.0137,-2.0055,-1.9984,-1.9898,-1.9824,-1.9738,-1.9582,-3.6921,-3.7201,-3.7255,-3.7006,-3.6521,-3.6145,-3.5625,-3.5048,-3.4261,-3.3936,-3.3793,-3.3329,-3.3031,-3.2916,-3.2884,-3.2836,-3.2804,-3.2787,-3.2753,-3.2753,-3.2753,-3.2753,-3.2737,-3.2597,-3.1854,-3.0267,-3.0207,-2.9248,-2.8232,-2.7836,-2.794,-2.7996,-2.7925,-2.7896,-2.7896,-2.7844,-2.7455,-2.6653,-2.5265,-2.4341,-2.378,-2.349,-2.343,-2.3395,-2.3383,-2.3389,-2.3378,-2.3313,-2.3259,-2.3265,-2.3241,-2.3223,-2.3259,-2.3283,-2.3324,-2.3372,-2.3458,-2.3594,-2.3789,-2.3925,-2.4056,-2.4163,-2.4266,-2.4321,-2.4515,-2.4634,-2.4727,-2.4742,-2.4891,-2.498,-2.5051,-2.5116,-2.5179,-2.5238,-2.5288,-2.5322,-2.5354,-2.5395,-2.5412,-2.5414,-2.543,-2.5441,-2.5457,-2.5501,-2.5532,-2.5576,-2.5511,-2.544,-2.4686,-2.3814,-2.2474,-2.084,-2.0516,-2.0504,-2.0506,-2.0509,-2.0494,-2.0517,-2.054,-2.0543,-2.0507,-2.0508,-2.0507,-2.05,-2.0507,-2.0482,-2.0422,-2.0329,-2.0231,-2.0171,-2.0102,-2.0035,-1.9961,-1.9879,-1.9738,-3.5686,-3.5859,-3.609,-3.6112,-3.5971,-3.4588,-3.4036,-3.3945,-3.325,-3.2996,-3.3046,-3.2855,-3.2739,-3.2657,-3.259,-3.254,-3.2506,-3.2404,-3.2352,-3.2352,-3.2335,-3.237,-3.2335,-3.2072,-3.1493,-3.0147,-2.9766,-2.8847,-2.7795,-2.7448,-2.7585,-2.7686,-2.7644,-2.7615,-2.7615,-2.758,-2.7259,-2.643,-2.5142,-2.4353,-2.3879,-2.3523,-2.3132,-2.3119,-2.3082,-2.3045,-2.3045,-2.2965,-2.2927,-2.2944,-2.2919,-2.2919,-2.2927,-2.2982,-2.3008,-2.307,-2.3089,-2.3223,-2.3389,-2.3609,-2.3803,-2.3909,-2.4029,-2.4163,-2.4312,-2.4392,-2.4486,-2.4596,-2.4715,-2.4832,-2.4898,-2.4974,-2.5032,-2.5087,-2.514,-2.519,-2.5222,-2.5268,-2.5293,-2.5298,-2.5298,-2.5307,-2.533,-2.5371,-2.5462,-2.5476,-2.5437,-2.5349,-2.4233,-2.3286,-2.2284,-2.1141,-2.0642,-2.0472,-2.0474,-2.0482,-2.0471,-2.048,-2.0489,-2.0498,-2.0487,-2.0496,-2.0504,-2.0507,-2.0507,-2.0517,-2.0498,-2.0406,-2.0333,-2.0292,-2.0215,-2.0133,-2.0035,-1.9952,-1.9806,-3.459,-3.469,-3.4395,-3.4353,-3.4446,-3.3864,-3.3353,-3.2913,-3.2612,-3.2506,-3.2539,-3.2506,-3.2456,-3.237,-3.2318,-3.2249,-3.2144,-3.2109,-3.2037,-3.2019,-3.2001,-3.2001,-3.188,-3.1411,-3.0699,-2.9711,-2.9175,-2.845,-2.7351,-2.7168,-2.7168,-2.7263,-2.7308,-2.7338,-2.7338,-2.7321,-2.6953,-2.6259,-2.5285,-2.4524,-2.3831,-2.3236,-2.279,-2.279,-2.2725,-2.2699,-2.2685,-2.2619,-2.2609,-2.2596,-2.2538,-2.2552,-2.2561,-2.2619,-2.2672,-2.2738,-2.279,-2.2868,-2.3033,-2.3277,-2.3549,-2.3757,-2.3865,-2.3959,-2.4105,-2.4173,-2.4293,-2.441,-2.4505,-2.4594,-2.4718,-2.4791,-2.4837,-2.4907,-2.4967,-2.5025,-2.5069,-2.5118,-2.5128,-2.5138,-2.5154,-2.516,-2.5187,-2.5224,-2.5317,-2.539,-2.5333,-2.5081,-2.4043,-2.3198,-2.2349,-2.1503,-2.0967,-2.0588,-2.0571,-2.0523,-2.0459,-2.0437,-2.0433,-2.043,-2.0445,-2.0488,-2.0503,-2.0514,-2.0503,-2.0508,-2.0503,-2.0484,-2.0441,-2.0363,-2.0302,-2.0227,-2.0115,-2.0019,-1.9892,-3.3576,-3.3567,-3.2902,-3.2939,-3.3352,-3.3142,-3.2704,-3.2249,-3.2161,-3.2144,-3.2161,-3.2161,-3.2144,-3.2073,-3.2019,-3.1948,-3.1839,-3.1802,-3.1746,-3.1727,-3.1726,-3.1587,-3.126,-3.0779,-3.0073,-2.9162,-2.8511,-2.7758,-2.6958,-2.6909,-2.6876,-2.6909,-2.6924,-2.6989,-2.7103,-2.7052,-2.6762,-2.6247,-2.5545,-2.4807,-2.4056,-2.328,-2.2607,-2.2525,-2.2371,-2.2315,-2.2301,-2.2245,-2.222,-2.2206,-2.2192,-2.2194,-2.2206,-2.2248,-2.2318,-2.2402,-2.2453,-2.2521,-2.2708,-2.3003,-2.3295,-2.3526,-2.3605,-2.3728,-2.3884,-2.3958,-2.4037,-2.4201,-2.4275,-2.4355,-2.4507,-2.4588,-2.4642,-2.47,-2.4768,-2.4832,-2.4886,-2.494,-2.4961,-2.4974,-2.4987,-2.4994,-2.5006,-2.5024,-2.5135,-2.5235,-2.5288,-2.497,-2.4161,-2.3428,-2.2923,-2.208,-2.1313,-2.0977,-2.0676,-2.0536,-2.0395,-2.0321,-2.0326,-2.0352,-2.0381,-2.0435,-2.0501,-2.05,-2.05,-2.0517,-2.0507,-2.0487,-2.0482,-2.0439,-2.0377,-2.0299,-2.0235,-2.014,-2.0035,-3.2608,-3.2542,-3.1859,-3.219,-3.2958,-3.2295,-3.1947,-3.1894,-3.1838,-3.1819,-3.1801,-3.1818,-3.18,-3.1781,-3.169,-3.1617,-3.1578,-3.1538,-3.1498,-3.1462,-3.1255,-3.1003,-3.0557,-3.0026,-2.9222,-2.8286,-2.7759,-2.7283,-2.6623,-2.6606,-2.6572,-2.6537,-2.6572,-2.664,-2.6842,-2.6775,-2.6691,-2.6556,-2.5862,-2.5101,-2.4458,-2.3555,-2.2801,-2.2389,-2.2034,-2.1928,-2.1899,-2.1871,-2.1827,-2.1827,-2.1827,-2.1812,-2.1811,-2.1869,-2.1943,-2.203,-2.2084,-2.22,-2.2402,-2.2773,-2.3028,-2.3223,-2.3307,-2.3424,-2.3634,-2.3732,-2.3789,-2.3945,-2.4046,-2.4153,-2.4275,-2.4365,-2.4426,-2.4503,-2.4559,-2.4642,-2.47,-2.473,-2.4749,-2.4782,-2.4797,-2.4792,-2.4811,-2.4828,-2.4949,-2.5055,-2.5165,-2.4823,-2.4189,-2.3656,-2.3219,-2.2722,-2.19,-2.133,-2.0976,-2.0553,-2.034,-2.0253,-2.0212,-2.0248,-2.0286,-2.0346,-2.0404,-2.048,-2.0494,-2.0483,-2.0485,-2.05,-2.0486,-2.0475,-2.0428,-2.0377,-2.0308,-2.0235,-2.0146,-3.1486,-3.1509,-3.1255,-3.1443,-3.1827,-3.1716,-3.1634,-3.1632,-3.154,-3.1466,-3.1447,-3.1426,-3.1404,-3.1385,-3.1366,-3.1291,-3.1213,-3.1193,-3.1171,-3.1044,-3.0673,-3.0299,-2.9793,-2.8967,-2.8222,-2.7612,-2.7156,-2.6786,-2.6329,-2.6312,-2.6312,-2.6293,-2.6222,-2.6294,-2.6418,-2.6452,-2.6418,-2.6232,-2.5647,-2.5013,-2.4713,-2.365,-2.2774,-2.2381,-2.1878,-2.1555,-2.1509,-2.1495,-2.148,-2.148,-2.148,-2.1464,-2.1464,-2.1526,-2.1587,-2.1693,-2.1766,-2.1855,-2.203,-2.2281,-2.25,-2.2756,-2.3008,-2.3119,-2.3289,-2.3395,-2.3504,-2.3649,-2.3768,-2.3873,-2.3949,-2.4077,-2.4154,-2.4229,-2.4302,-2.4392,-2.4462,-2.4507,-2.4522,-2.4578,-2.4591,-2.4626,-2.4634,-2.4583,-2.4674,-2.4749,-2.4835,-2.4923,-2.448,-2.3936,-2.3442,-2.3158,-2.259,-2.188,-2.1333,-2.0912,-2.0492,-2.0308,-2.0216,-2.0146,-2.0192,-2.0235,-2.0311,-2.0362,-2.0407,-2.0443,-2.0467,-2.0499,-2.0504,-2.0485,-2.0454,-2.0418,-2.0366,-2.0311,-2.0268,-3.0834,-3.0895,-3.0935,-3.0992,-3.1055,-3.1249,-3.1308,-3.1288,-3.1193,-3.1137,-3.1078,-3.1055,-3.1012,-3.0955,-3.0935,-3.0915,-3.0834,-3.0834,-3.055,-3.0403,-2.9969,-2.9404,-2.8686,-2.7946,-2.7376,-2.6904,-2.6465,-2.6064,-2.601,-2.5992,-2.5974,-2.5937,-2.5917,-2.5864,-2.5956,-2.5992,-2.6048,-2.586,-2.5462,-2.5116,-2.4556,-2.3718,-2.2834,-2.2313,-2.1778,-2.1278,-2.1183,-2.1167,-2.1151,-2.1135,-2.1119,-2.1119,-2.1135,-2.1151,-2.123,-2.1372,-2.1496,-2.1556,-2.1676,-2.1825,-2.2058,-2.2245,-2.2561,-2.2816,-2.2957,-2.3095,-2.3211,-2.3354,-2.3476,-2.3582,-2.3667,-2.3782,-2.3865,-2.3939,-2.4029,-2.4125,-2.4191,-2.4229,-2.4257,-2.4321,-2.4356,-2.4383,-2.441,-2.4384,-2.4383,-2.4426,-2.4478,-2.4567,-2.4678,-2.4208,-2.3787,-2.3562,-2.325,-2.2621,-2.1933,-2.1324,-2.0878,-2.0426,-2.0196,-2.0015,-2.0079,-2.0115,-2.0184,-2.0261,-2.0295,-2.0352,-2.0439,-2.049,-2.0483,-2.0503,-2.0506,-2.0467,-2.0425,-2.0381,-2.0352,-3.0671,-3.0729,-3.0831,-3.079,-3.0712,-3.0855,-3.0915,-3.0892,-3.0892,-3.0814,-3.0692,-3.0695,-3.063,-3.0526,-3.0489,-3.0468,-3.0385,-3.0381,-3.0022,-2.9542,-2.9141,-2.8401,-2.7703,-2.7104,-2.6617,-2.6149,-2.5828,-2.5717,-2.5682,-2.5624,-2.5586,-2.5567,-2.5546,-2.5489,-2.5454,-2.5476,-2.557,-2.5503,-2.5438,-2.5095,-2.459,-2.3826,-2.3129,-2.2531,-2.1823,-2.1309,-2.1117,-2.0988,-2.0892,-2.0827,-2.0794,-2.0794,-2.0794,-2.0778,-2.0909,-2.1071,-2.1198,-2.1262,-2.1324,-2.1464,-2.1573,-2.1753,-2.2118,-2.2426,-2.2628,-2.276,-2.2889,-2.3015,-2.3126,-2.3283,-2.3406,-2.3474,-2.3542,-2.3635,-2.3732,-2.3824,-2.3886,-2.3927,-2.3976,-2.4008,-2.4047,-2.4067,-2.4077,-2.4075,-2.4039,-2.4058,-2.4098,-2.4164,-2.4274,-2.4451,-2.4107,-2.4079,-2.3733,-2.334,-2.2648,-2.1772,-2.108,-2.0574,-2.0039,-1.9822,-1.9901,-1.999,-2.0046,-2.0111,-2.0156,-2.0237,-2.0349,-2.043,-2.0474,-2.0494,-2.0478,-2.0508,-2.0472,-2.0468,-2.0455,-3.0253,-3.0338,-3.038,-3.0316,-3.021,-3.0172,-3.0305,-3.0572,-3.0568,-3.0522,-3.0464,-3.038,-3.0274,-3.0146,-3.013,-3.007,-2.9831,-2.9533,-2.9244,-2.8755,-2.8057,-2.7388,-2.6833,-2.6322,-2.5905,-2.5664,-2.547,-2.5359,-2.5266,-2.5204,-2.5182,-2.5162,-2.5162,-2.5064,-2.4985,-2.4914,-2.5029,-2.5123,-2.5143,-2.4987,-2.4649,-2.4023,-2.3507,-2.2993,-2.2057,-2.1561,-2.1272,-2.0879,-2.0704,-2.0578,-2.0526,-2.0509,-2.0525,-2.0509,-2.0594,-2.0793,-2.0892,-2.0958,-2.0974,-2.1119,-2.123,-2.1262,-2.157,-2.1869,-2.2113,-2.2323,-2.249,-2.2624,-2.2773,-2.2892,-2.3005,-2.3091,-2.3194,-2.3301,-2.3394,-2.3474,-2.3535,-2.3591,-2.3653,-2.3718,-2.3742,-2.3732,-2.375,-2.3732,-2.3703,-2.3703,-2.3714,-2.3767,-2.3862,-2.405,-2.4173,-2.4127,-2.398,-2.3493,-2.2857,-2.2028,-2.1342,-2.0706,-2.0098,-1.9636,-1.9688,-1.9793,-1.9873,-1.9965,-2.0041,-2.0144,-2.0245,-2.0311,-2.0377,-2.0439,-2.0448,-2.0473,-2.0508,-2.0503,-2.051,-2.9924,-2.9995,-3.0022,-2.9973,-2.9782,-2.9671,-2.9744,-2.9957,-3.0087,-3.0151,-3.0119,-3.0017,-2.9946,-2.975,-2.9463,-2.9226,-2.9118,-2.8447,-2.7944,-2.7329,-2.6836,-2.637,-2.5921,-2.5632,-2.5416,-2.524,-2.5143,-2.5045,-2.495,-2.4846,-2.4786,-2.471,-2.471,-2.4645,-2.4564,-2.4472,-2.4431,-2.4533,-2.463,-2.4706,-2.4476,-2.4085,-2.3745,-2.3425,-2.2422,-2.1882,-2.1404,-2.0859,-2.0593,-2.0264,-2.0131,-2.0131,-2.0148,-2.0183,-2.0235,-2.0424,-2.0543,-2.0578,-2.0628,-2.0712,-2.0811,-2.0893,-2.1039,-2.1261,-2.1584,-2.1853,-2.2027,-2.2215,-2.2354,-2.2487,-2.2598,-2.2703,-2.2825,-2.294,-2.3028,-2.3114,-2.3182,-2.3265,-2.3348,-2.3411,-2.3422,-2.3411,-2.3399,-2.337,-2.3347,-2.3307,-2.3283,-2.3295,-2.3427,-2.3599,-2.3738,-2.3793,-2.3746,-2.3555,-2.2885,-2.2252,-2.1516,-2.073,-1.9895,-1.9553,-1.9536,-1.9591,-1.9701,-1.9822,-1.9944,-2.0026,-2.009,-2.018,-2.0241,-2.0299,-2.0349,-2.0398,-2.0436,-2.0483,-2.0488,-2.9637,-2.9659,-2.9716,-2.9611,-2.9448,-2.9328,-2.9213,-2.9098,-2.9515,-2.9694,-2.9637,-2.9653,-2.9522,-2.9154,-2.8726,-2.8347,-2.7995,-2.7396,-2.6778,-2.5967,-2.5882,-2.5535,-2.5183,-2.4946,-2.491,-2.4886,-2.4806,-2.4686,-2.4645,-2.4544,-2.44,-2.4261,-2.4261,-2.4219,-2.412,-2.4057,-2.4015,-2.3973,-2.4057,-2.4141,-2.4066,-2.3703,-2.3323,-2.3237,-2.2631,-2.1942,-2.1371,-2.0948,-2.062,-2.0074,-1.9776,-1.9839,-1.9744,-1.983,-1.9919,-2.0008,-2.0133,-2.0202,-2.0254,-2.0325,-2.0393,-2.0477,-2.0594,-2.0761,-2.1023,-2.1416,-2.1661,-2.1796,-2.194,-2.207,-2.2184,-2.2298,-2.2395,-2.2504,-2.2594,-2.2699,-2.2773,-2.2879,-2.2973,-2.3047,-2.303,-2.3017,-2.3022,-2.301,-2.298,-2.2897,-2.2876,-2.2889,-2.2917,-2.3075,-2.3248,-2.3387,-2.3421,-2.3332,-2.3044,-2.2378,-2.1654,-2.0822,-1.9911,-1.936,-1.9274,-1.9376,-1.9527,-1.9649,-1.9751,-1.9845,-1.992,-1.9983,-2.0063,-2.0152,-2.02,-2.0283,-2.0351,-2.0404,-2.0461,-2.9144,-2.9213,-2.9152,-2.909,-2.902,-2.8951,-2.8834,-2.874,-2.8818,-2.8982,-2.919,-2.915,-2.8858,-2.8261,-2.7964,-2.7567,-2.6983,-2.6359,-2.592,-2.5472,-2.515,-2.4911,-2.4549,-2.4523,-2.4487,-2.4426,-2.4343,-2.4261,-2.4213,-2.413,-2.4067,-2.3931,-2.3903,-2.3824,-2.3702,-2.3674,-2.3588,-2.3501,-2.3458,-2.3588,-2.3621,-2.3664,-2.3504,-2.3288,-2.2774,-2.2303,-2.1783,-2.1376,-2.0867,-2.0277,-2.0131,-1.9832,-1.9395,-1.9501,-1.956,-1.9636,-1.9744,-1.9815,-1.9869,-1.9907,-1.9977,-2.0098,-2.0218,-2.0321,-2.0561,-2.1006,-2.1261,-2.1386,-2.1509,-2.1661,-2.1781,-2.1869,-2.1974,-2.2073,-2.2169,-2.2265,-2.2344,-2.2473,-2.2619,-2.2646,-2.2642,-2.2659,-2.2646,-2.2632,-2.2605,-2.2579,-2.2555,-2.2497,-2.2392,-2.2462,-2.2665,-2.2819,-2.301,-2.296,-2.281,-2.2365,-2.154,-2.0866,-2.0032,-1.9505,-1.902,-1.9109,-1.9251,-1.9424,-1.9553,-1.9611,-1.9682,-1.9799,-1.9877,-1.9938,-2.0022,-2.008,-2.0157,-2.0218,-2.0313,-2.828,-2.8373,-2.8576,-2.8637,-2.8605,-2.8549,-2.8299,-2.7926,-2.7895,-2.782,-2.7829,-2.8077,-2.7928,-2.7174,-2.6887,-2.6594,-2.5926,-2.5265,-2.4939,-2.4666,-2.4553,-2.4342,-2.4193,-2.4151,-2.4114,-2.4057,-2.3931,-2.3846,-2.379,-2.3769,-2.3704,-2.3545,-2.348,-2.3436,-2.3312,-2.3238,-2.3194,-2.3142,-2.2963,-2.2971,-2.3135,-2.3179,-2.3268,-2.3069,-2.2856,-2.241,-2.1952,-2.1497,-2.0979,-2.0367,-1.9984,-1.9726,-1.931,-1.9161,-1.9116,-1.918,-1.9273,-1.938,-1.942,-1.9479,-1.9566,-1.969,-1.9777,-1.9866,-2.001,-2.0412,-2.0663,-2.0779,-2.1039,-2.1198,-2.1308,-2.1417,-2.1541,-2.1646,-2.1735,-2.1836,-2.1969,-2.2115,-2.2215,-2.2298,-2.2284,-2.2271,-2.226,-2.2203,-2.2144,-2.2073,-2.2077,-2.2017,-2.1926,-2.1849,-2.2053,-2.2181,-2.2334,-2.2537,-2.2535,-2.2021,-2.1314,-2.0668,-2.0108,-1.9417,-1.8838,-1.8878,-1.8974,-1.9117,-1.9238,-1.9331,-1.9405,-1.9518,-1.9586,-1.9632,-1.9747,-1.9866,-1.9953,-2.0007,-2.009,-2.7211,-2.7319,-2.7849,-2.7999,-2.7902,-2.7871,-2.7463,-2.6888,-2.6803,-2.644,-2.5978,-2.6658,-2.6581,-2.6097,-2.554,-2.5221,-2.485,-2.4426,-2.4104,-2.4016,-2.397,-2.3882,-2.3876,-2.3876,-2.3775,-2.3696,-2.3588,-2.3501,-2.3429,-2.3407,-2.3319,-2.3105,-2.3016,-2.2957,-2.2867,-2.2799,-2.2754,-2.2678,-2.2563,-2.2449,-2.2518,-2.2632,-2.2754,-2.2754,-2.2606,-2.2241,-2.18,-2.1389,-2.101,-2.0447,-1.9859,-1.9593,-1.9404,-1.9192,-1.8987,-1.902,-1.9075,-1.9085,-1.9031,-1.9011,-1.9139,-1.9246,-1.9302,-1.9413,-1.9566,-1.9747,-2.0013,-2.0206,-2.0479,-2.0713,-2.0828,-2.0958,-2.1087,-2.1215,-2.1293,-2.1417,-2.1572,-2.1693,-2.1764,-2.1851,-2.1853,-2.1823,-2.1779,-2.1736,-2.1676,-2.1586,-2.1525,-2.1447,-2.14,-2.1369,-2.1446,-2.1491,-2.155,-2.1772,-2.2074,-2.1817,-2.1187,-2.0624,-2.004,-1.926,-1.865,-1.8604,-1.8615,-1.8771,-1.8877,-1.8964,-1.9091,-1.9193,-1.9257,-1.9302,-1.9467,-1.96,-1.9676,-1.9749,-1.9824,-2.6283,-2.6283,-2.6412,-2.6404,-2.6295,-2.6272,-2.6064,-2.5815,-2.58,-2.5371,-2.4848,-2.4759,-2.4881,-2.5091,-2.4993,-2.464,-2.4063,-2.3719,-2.3655,-2.3596,-2.3581,-2.3516,-2.3458,-2.3458,-2.3363,-2.326,-2.3194,-2.3113,-2.3016,-2.2979,-2.2934,-2.2777,-2.2692,-2.2623,-2.2486,-2.2402,-2.2296,-2.2217,-2.2147,-2.203,-2.202,-2.2123,-2.2287,-2.224,-2.21,-2.1936,-2.1712,-2.1509,-2.1045,-2.0493,-1.9925,-1.9639,-1.9484,-1.9371,-1.9175,-1.9003,-1.9037,-1.8893,-1.8846,-1.875,-1.8853,-1.8779,-1.8855,-1.8936,-1.9053,-1.918,-1.9369,-1.9515,-1.9788,-2.0139,-2.0311,-2.0446,-2.0596,-2.0712,-2.0795,-2.0974,-2.1135,-2.1151,-2.1182,-2.1213,-2.1213,-2.1213,-2.1181,-2.115,-2.1134,-2.1071,-2.1055,-2.1007,-2.0926,-2.0893,-2.0861,-2.0861,-2.0861,-2.1166,-2.1506,-2.1655,-2.1218,-2.0619,-1.9969,-1.9181,-1.8569,-1.8249,-1.8273,-1.8383,-1.8481,-1.8567,-1.8698,-1.8825,-1.8912,-1.8977,-1.9154,-1.9308,-1.938,-1.9441,-1.9487]},{"header":{"parameterUnit":"m.s-1","parameterCategory":1,"la1":31.0,"la2":29.5877,"lo1":-88.7671,"lo2":-86.6584,"dy":0.0162,"dx":0.0185,"nx":115,"ny":88,"refTime":"2023-09-23T12:00:00:Z","depth":0,"parameterNumber":3,"parameterNumberName":"V-component_of_WINDS"},"data":[0.0,0.0,0.0,0.0,0.0,0.0,0.0,0.0,0.0,0.0,0.0,0.0,0.0,0.0,0.0,0.0,0.0,0.0,0.0,0.0,0.0,0.0,0.0,0.0,0.0,0.0,0.0,0.0,0.0,0.0,0.0,0.0,0.0,0.0,0.0,0.0,0.0,0.0,0.0,0.0,0.0,0.0,0.0,0.0,0.0,0.0,0.0,0.0,0.0,0.0,0.0,0.0,0.0,0.0,0.0,0.0,0.0,0.0,0.0,0.0,0.0,0.0,0.0,0.0,0.0,0.0,0.0,0.0,0.0,0.0,0.0,0.0,0.0,0.0,0.0,0.0,0.0,0.0,0.0,0.0,0.0,0.0,0.0,0.0,0.0,0.0,0.0,0.0,0.0,0.0,0.0,0.0,0.0,0.0,0.0,0.0,0.0,0.0,0.0,0.0,0.0,0.0,0.0,0.0,0.0,0.0,0.0,0.0,0.0,0.0,0.0,0.0,0.0,0.0,0.0,0.0,0.0,0.0,0.0,0.0,0.0,0.0,0.0,0.0,0.0,0.0,0.0,0.0,0.0,0.0,0.0,0.0,0.0,0.0,0.0,0.0,0.0,0.0,0.0,0.0,0.0,0.0,0.0,0.0,0.0,0.0,0.0,0.0,0.0,0.0,0.0,0.0,0.0,0.0,0.0,0.0,0.0,0.0,0.0,0.0,0.0,0.0,0.0,0.0,0.0,0.0,0.0,0.0,0.0,0.0,0.0,0.0,0.0,0.0,0.0,0.0,0.0,0.0,0.0,0.0,0.0,0.0,0.0,0.0,0.0,0.0,0.0,0.0,0.0,0.0,0.0,0.0,0.0,0.0,0.0,0.0,0.0,0.0,0.0,0.0,0.0,0.0,0.0,0.0,0.0,0.0,0.0,0.0,0.0,0.0,0.0,0.0,0.0,0.0,0.0,0.0,0.0,0.0,0.0,0.0,0.0,0.0,0.0,0.0,0.0,0.0,0.0,0.0,0.0,0.0,0.0,0.0,0.0,0.0,0.0,0.0,0.0,0.0,0.0,0.0,0.0,0.0,0.0,0.0,0.0,0.0,0.0,0.0,0.0,0.0,0.0,0.0,0.0,0.0,0.0,0.0,0.0,0.0,0.0,0.0,0.0,0.0,0.0,0.0,0.0,0.0,0.0,0.0,0.0,0.0,0.0,0.0,0.0,0.0,0.0,0.0,0.0,0.0,0.0,0.0,0.0,0.0,0.0,0.0,0.0,0.0,0.0,0.0,0.0,0.0,0.0,0.0,0.0,0.0,0.0,0.0,0.0,0.0,0.0,0.0,0.0,0.0,0.0,0.0,0.0,0.0,0.0,0.0,0.0,0.0,0.0,0.0,0.0,0.0,0.0,0.0,0.0,0.0,0.0,0.0,0.0,0.0,0.0,0.0,0.0,0.0,0.0,0.0,0.0,0.0,0.0,0.0,0.0,0.0,0.0,0.0,0.0,0.0,0.0,0.0,0.0,0.0,0.0,0.0,0.0,0.0,0.0,0.0,0.0,0.0,0.0,0.0,0.0,0.0,0.0,0.0,0.0,0.0,0.0,0.0,0.0,0.0,0.0,0.0,0.0,0.0,0.0,0.0,0.0,0.0,0.0,0.0,0.0,0.0,0.0,0.0,0.0,0.0,0.0,0.0,0.0,0.0,0.0,0.0,0.0,0.0,0.0,0.0,0.0,0.0,0.0,0.0,0.0,0.0,0.0,0.0,0.0,0.0,0.0,0.0,0.0,0.0,0.0,0.0,0.0,0.0,0.0,0.0,0.0,0.0,0.0,0.0,0.0,0.0,0.0,0.0,0.0,0.0,0.0,0.0,0.0,0.0,0.0,0.0,0.0,0.0,0.0,0.0,0.0,0.0,0.0,0.0,0.0,0.0,0.0,0.0,0.0,0.0,0.0,0.0,0.0,0.0,0.0,0.0,0.0,0.0,0.0,0.0,0.0,0.0,0.0,0.0,0.0,0.0,0.0,0.0,0.0,0.0,0.0,0.0,0.0,0.0,0.0,0.0,0.0,0.0,0.0,0.0,0.0,0.0,0.0,0.0,0.0,0.0,0.0,0.0,0.0,0.0,0.0,0.0,0.0,0.0,0.0,0.0,0.0,0.0,0.0,0.0,0.0,0.0,0.0,0.0,0.0,0.0,0.0,0.0,0.0,0.0,0.0,0.0,0.0,0.0,0.0,0.0,0.0,0.0,0.0,0.0,0.0,0.0,0.0,0.0,0.0,0.0,0.0,0.0,0.0,0.0,0.0,0.0,0.0,0.0,0.0,0.0,0.0,0.0,0.0,0.0,0.0,0.0,0.0,0.0,0.0,0.0,0.0,0.0,0.0,0.0,0.0,0.0,0.0,0.0,0.0,0.0,0.0,0.0,0.0,0.0,0.0,0.0,0.0,0.0,0.0,0.0,0.0,0.0,0.0,0.0,0.0,0.0,0.0,0.0,0.0,0.0,0.0,0.0,0.0,0.0,0.0,0.0,0.0,0.0,0.0,0.0,0.0,0.0,0.0,0.0,0.0,0.0,0.0,0.0,0.0,0.0,0.0,0.0,0.0,0.0,0.0,0.0,0.0,0.0,0.0,0.0,0.0,0.0,0.0,0.0,0.0,0.0,0.0,0.0,0.0,0.0,0.0,0.0,0.0,0.0,0.0,0.0,0.0,0.0,0.0,0.0,0.0,0.0,0.0,0.0,0.0,0.0,0.0,0.0,0.0,0.0,0.0,0.0,0.0,0.0,0.0,0.0,0.0,0.0,0.0,0.0,0.0,0.0,0.0,0.0,0.0,0.0,0.0,0.0,0.0,0.0,0.0,0.0,0.0,0.0,0.0,0.0,0.0,0.0,0.0,0.0,0.0,0.0,0.0,0.0,0.0,0.0,0.0,0.0,0.0,0.0,0.0,0.0,0.0,0.0,0.0,0.0,0.0,0.0,0.0,0.0,0.0,0.0,0.0,0.0,0.0,0.0,0.0,0.0,0.0,0.0,0.0,0.0,0.0,0.0,0.0,0.0,0.0,0.0,0.0,0.0,0.0,0.0,0.0,0.0,0.0,0.0,0.0,0.0,0.0,0.0,0.0,0.0,0.0,0.0,0.0,0.0,0.0,0.0,0.0,0.0,0.0,0.0,0.0,0.0,0.0,0.0,0.0,0.0,0.0,0.0,0.0,0.0,0.0,0.0,0.0,0.0,0.0,0.0,0.0,0.0,0.0,0.0,0.0,0.0,0.0,0.0,0.0,0.0,0.0,0.0,0.0,0.0,0.0,0.0,0.0,0.0,0.0,0.0,0.0,0.0,0.0,0.0,0.0,0.0,0.0,0.0,0.0,0.0,0.0,0.0,0.0,0.0,0.0,0.0,0.0,0.0,0.0,0.0,0.0,0.0,0.0,0.0,0.0,0.0,0.0,0.0,0.0,0.0,0.0,0.0,0.0,0.0,0.0,0.0,0.0,0.0,0.0,0.0,0.0,0.0,0.0,0.0,0.0,0.0,0.0,0.0,0.0,0.0,0.0,0.0,0.0,0.0,0.0,0.0,0.0,0.0,0.0,0.0,0.0,0.0,0.0,0.0,0.0,0.0,0.0,0.0,0.0,0.0,0.0,0.0,0.0,0.0,0.0,0.0,0.0,0.0,0.0,0.0,0.0,0.0,0.0,0.0,0.0,0.0,0.0,0.0,0.0,0.0,0.0,0.0,0.0,0.0,0.0,0.0,0.0,0.0,0.0,0.0,0.0,0.0,0.0,0.0,0.0,0.0,0.0,0.0,0.0,0.0,0.0,0.0,0.0,0.0,0.0,0.0,0.0,0.0,0.0,0.0,0.0,0.0,0.0,0.0,0.0,0.0,0.0,0.0,0.0,0.0,0.0,0.0,0.0,0.0,0.0,0.0,0.0,0.0,0.0,0.0,0.0,0.0,0.0,0.0,0.0,0.0,0.0,0.0,0.0,0.0,0.0,0.0,0.0,0.0,0.0,0.0,0.0,0.0,0.0,0.0,0.0,0.0,0.0,0.0,0.0,0.0,0.0,0.0,0.0,0.0,0.0,0.0,0.0,0.0,0.0,0.0,0.0,0.0,0.0,0.0,0.0,0.0,0.0,0.0,0.0,0.0,0.0,0.0,0.0,0.0,0.0,0.0,0.0,0.0,0.0,0.0,0.0,0.0,0.0,0.0,0.0,0.0,0.0,0.0,0.0,0.0,0.0,0.0,0.0,0.0,0.0,0.0,0.0,0.0,0.0055,0.0,0.0,0.0,0.0,0.0,0.0,0.0,0.0,0.0,0.0,0.0,0.0,0.0,0.0,0.0,0.0,0.0,0.0,0.0,0.0,0.0,0.0,0.0,0.0,0.0,0.0,0.0,0.0,0.0,0.0,0.0,0.0,0.0,0.0,0.0,0.0,0.0,0.0,0.0,0.0,0.0,0.0,0.0,0.0,0.0,0.0,0.0,0.0,0.0,0.0,0.0,0.0,0.0,0.0,0.0,0.0,0.0,0.0,0.0,0.0,0.0,0.0,0.0,0.0,0.0,0.0,0.0,0.0,0.0,0.0,0.0,0.0,0.0,0.0,0.0,0.0,0.0,0.0,0.0,0.0,0.0,0.0,0.0,0.0,0.0,0.0,0.0,0.0,0.0,0.0,0.0,0.0,0.0,0.0,0.0,0.0,0.0,0.0,0.0,0.0,0.0,0.0,0.0,0.0,0.0,0.0,0.0,0.0,0.0,0.0,-0.1459,-0.0995,-0.0683,-0.0413,-0.0163,0.0,0.0,0.0,0.0,0.0,0.0,0.0,0.0,0.0,0.0,0.0,0.0,0.0,0.0,0.0,0.0,0.0,0.0,0.0,0.0,0.0,0.0,0.0,0.0,0.0,0.0,0.0,0.0,0.0,0.0,0.0,0.0,0.0,0.0,0.0,0.0,0.0,0.0,0.0,0.0,0.0,0.0,0.0,0.0,0.0,0.0,0.0,0.0,0.0,0.0,0.0,0.0,0.0,0.0,0.0,0.0,0.0,0.0,0.0,0.0,0.0,0.0,0.0,0.0,0.0,0.0,0.0,0.0,0.0,0.0,0.0,0.0,0.0,0.0,0.0,0.0,0.0,0.0,0.0,0.0,0.0,0.0,0.0,0.0,0.0,0.0,0.0,0.0,0.0,0.0,0.0,0.0,0.0,0.0,0.0,0.0,0.0,0.0,0.0,0.0,0.0,0.0,0.0,0.0,0.0,0.0,0.0,0.0,0.0,0.0,0.0,0.0,-0.0958,-0.0638,-0.0338,0.0,0.0,0.0,0.0,0.0,0.0,0.0,0.0,0.0,0.0,0.0,0.0,0.0,0.0,0.0,0.0,0.0,0.0,0.0,0.0,0.0,0.0,0.0,0.0,0.0,0.0,0.0,0.0,0.0,0.0,0.0,0.0,0.0,0.0,0.0,0.0,0.0,0.0,0.0,0.0,0.0,0.0,0.0,0.0,0.0,0.0,0.0,0.0,0.0,0.0,0.0,0.0,0.0,0.0,0.0,0.0,0.0,0.0,0.0,0.0,0.0,0.0,0.0,0.0,0.0,0.0,0.0,0.0,0.0,0.0,0.0,0.0,0.0,0.0,0.0,0.0,0.0,0.0,0.0,0.0,0.0,0.0,0.0,0.0,0.0,0.0,0.0,0.0,0.0,0.0,0.0,0.0,0.0,0.0,0.0,0.0,0.0,0.0,0.0,0.0,0.0,0.0,0.0,0.0,0.0,0.0,0.0,0.0,0.0,0.0,-0.2109,-0.1573,-0.1244,0.0,-0.0431,0.0,0.0,0.0,0.0,0.0,0.0,0.0,0.0,0.0,0.0,0.0,0.0,0.0,0.0,0.0,0.0,0.0,0.0,0.0,0.0,0.0,0.0,0.0,0.0,0.0,0.0,0.0,0.0,0.0,0.0,0.0,0.0,0.0,0.0,0.0,0.0,0.0,0.0,0.0,0.0,0.0,0.0,0.0,0.0,0.0,0.0,0.0,0.0,0.0,0.0,0.0,0.0,0.0,0.0,0.0,0.0,0.0,0.0,0.0,0.0,0.0,0.0,0.0,0.0,0.0,0.0,0.0,0.0,0.0,0.0,0.0,0.0,0.0,0.0,0.0,0.0,0.0,0.0,0.0,0.0,0.0,0.0,0.0,0.0,0.0,0.0,0.0,0.0,0.0,0.0,0.0,0.0,0.0,0.0,0.0,0.0,0.0,0.0,0.0,0.0,0.0,0.0,0.0,0.0,0.0,0.0,0.0,0.0,0.0,0.0,-0.2512,-0.2143,-0.155,-0.0983,0.0,0.0,0.0,0.0,0.0,0.0,0.0,0.0,0.0,0.0,0.0,0.0,0.0,0.0,0.0,0.0,0.0,0.0,0.0,0.0,0.0,0.0,0.0,0.0,0.0,0.0,0.0,0.0,0.0,0.0,0.0,0.0,0.0,0.0,0.0,0.0,0.0,0.0,0.0,0.0,0.0,0.0,0.0,0.0,0.0,0.0,0.0,0.0,0.0,0.0,0.0,0.0,0.0,0.0,0.0,0.0,0.0,0.0,0.0,0.0,0.0,0.0,0.0,0.0,0.0,0.0,0.0,0.0,0.0,0.0,0.0,0.0,0.0,0.0,0.0,0.0,0.0,0.0,0.0,0.0,0.0,0.0,0.0,0.0,0.0,0.0,0.0,0.0,0.0,0.0,0.0,0.0,0.0,0.0,0.0,0.0,0.0,0.0,0.0,0.0,0.0,0.0,0.0,0.0,0.0,0.0,0.0,0.0,0.0,0.0,-0.3315,-0.2939,-0.2496,-0.18,-0.1152,-0.0634,0.0,0.0,0.0,0.0,0.0,0.0,0.0,0.0,0.0,0.0,0.0,0.0,0.0,0.0,0.0,0.0,0.0,0.0,0.0,0.0,0.0,0.0,0.0,0.0,0.0,0.0,0.0,0.0,0.0,0.0,0.0,0.0,0.0,0.0,0.0,0.0,0.0,0.0,0.0,0.0,0.0,0.0,0.0,0.0,0.0,0.0,0.0,0.0,0.0,0.0,0.0,0.0,0.0,0.0,0.0,0.0,0.0,0.0,0.0,0.0,0.0,0.0,0.0,0.0,0.0,0.0,0.0,0.0,0.0,0.0,0.0,0.0,0.0,0.0,0.0,0.0,0.0,0.0,0.0,0.0,0.0,0.0,0.0,0.0,0.0,0.0,0.0,0.0,0.0,0.0,0.0,0.0,0.0,0.0,0.0,0.0,0.0,0.0,0.0,0.0,0.0,0.0,0.0,0.0,0.0,0.0,0.0,0.0,-0.3982,-0.3828,-0.3339,-0.2537,-0.196,-0.1436,0.0,0.0,0.0,0.0,0.0,0.0,0.0,0.0,0.0,0.0,0.0,0.0,0.0,0.0,0.0,0.0,0.0,0.0,0.0,0.0,0.0,0.0,0.0,0.0,0.0,0.0,0.0,0.0,0.0,0.0,0.0,0.0,0.0,0.0,0.0,0.0,0.0,0.0,0.0,0.0,0.0,0.0,0.0,0.0,0.0,0.0,0.0,0.0,0.0,0.0,0.0,0.0,0.0,0.0,0.0,0.0,0.0,0.0,0.0,0.0,0.0,0.0,0.0,0.0,0.0,0.0,0.0,0.0,0.0,0.0,0.0,0.0,0.0,0.0,0.0,0.0,0.0,0.0,0.0,0.0,0.0,0.0,0.0,0.0,0.0,0.0,0.0,0.0,0.0,0.0,0.0,0.0,0.0,0.0,0.0,0.0,0.0,0.0,0.0,0.0,0.0,0.0,0.0,0.0,0.0,0.0,0.0,0.0,0.0,-0.4323,-0.4023,-0.342,-0.2479,-0.2208,-0.176,0.0,0.0,0.0,0.0,0.0,0.0,0.0,0.0,0.0,0.0,0.0,0.0,0.0,0.0,0.0,0.0,0.0,0.0,0.0,0.0,0.0,0.0,0.0,0.0,0.0,0.0,0.0,0.0,0.0,0.0,0.0,0.0,0.0,0.0,0.0,0.0,0.0,0.0,0.0,0.0,0.0,0.0,0.0,0.0,0.0,0.0,0.0,0.0,0.0,0.0,0.0,0.0,0.0,0.0,0.0,0.0,0.0,0.0,0.0,0.0,0.0,0.0,0.0,0.0,0.0,0.0,0.0,0.0,0.0,0.0,0.0,0.0,0.0,0.0,0.0,0.0,0.0,0.0,0.0,0.0,0.0,0.0,0.0,0.0,0.0,0.0,0.0,0.0,0.0,0.0,0.0,0.0,0.0,0.0,0.0,0.0,0.0,0.0,0.0,0.0,0.0,0.0,0.0,0.0,0.0,0.0,0.0,0.0,0.0,-0.4661,0.0,-0.367,-0.2853,-0.2617,-0.2127,0.0,0.0,0.0,0.0,0.0,0.0,0.0,0.0,0.0,0.0,0.0,0.0,0.0,0.0,0.0,0.0,0.0,0.0,0.0,0.0,0.0,0.0,0.0,0.0,0.0,0.0,0.0,0.0,0.0,0.0,0.0,0.0,0.0,0.0,0.0,0.0,0.0,0.0,0.0,0.0,0.0,0.0,0.0,0.0,0.0,0.0,0.0,0.0,0.0,0.0,0.0,0.0,0.0,0.0,0.0,0.0,0.0,0.0,0.0,0.0,0.0,0.0,0.0,0.0,0.0,0.0,0.0,0.0,0.0,0.0,0.0,0.0,0.0,0.0,0.0,0.0,0.0,0.0,0.0,0.0,0.0,0.0,0.0,0.0,0.0,0.0,0.0,0.0,0.0,0.0,0.0,0.0,0.0,0.0,0.0,0.0,0.0,0.0,0.0,0.0,0.0,0.0,0.0,0.0,0.0,0.0,0.0,0.0,-0.5077,-0.4977,-0.4608,-0.4171,-0.3698,-0.3168,-0.2516,0.0,0.0,0.0,0.0,0.0,0.0,0.0,0.0,0.0,0.0,0.0,0.0,0.0,0.0,0.0,0.0,0.0,0.0,0.0,0.0,0.0,0.0,0.0,0.0,0.0,0.0,0.0,0.0,0.0,0.0,0.0,0.0,0.0,0.0,0.0,0.0,0.0,0.0,0.0,0.0,0.0,0.0,0.0,0.0,0.0,0.0,0.0,0.0,0.0,0.0,0.0,0.0,0.0,0.0,0.0,0.0,0.0,0.0,0.0,0.0,0.0,0.0,0.0,0.0,0.0,0.0,0.0,0.0,0.0,0.0,0.0,0.0,0.0,0.0,0.0,0.0,0.0,0.0,0.0,0.0,0.0,0.0,0.0,0.0,0.0,0.0,0.0,0.0,0.0,0.0,0.0,0.0,0.0,0.0,0.0,0.0,0.0,0.0,0.0,0.0,0.0,0.0,0.0,0.0,0.0,0.0,0.0,0.0,0.0,-0.5009,-0.5072,-0.4749,-0.3993,-0.3582,-0.3003,0.0,0.0,0.0,0.0,0.0,0.0,0.0,0.0,0.0,0.0,0.0,0.0,0.0,0.0,0.0,0.0,0.0,0.0,0.0,0.0,0.0,0.0,0.0,0.0,0.0,0.0,0.0,0.0,0.0,0.0,0.0,0.0,0.0,0.0,0.0,0.0,0.0,0.0,0.0,0.0,0.0,0.0,0.0,0.0,0.0,0.0,0.0,0.0,0.0,0.0,0.0,0.0,0.0,0.0,0.0,0.0,0.0,0.0,0.0,0.0,0.0,0.0,0.0,0.0,0.0,0.0,0.0,0.0,0.0,0.0,0.0,0.0,0.0,0.0,0.0,0.0,0.0,0.0,0.0,0.0,0.0,0.0,0.0,0.0,0.0,0.0,0.0,0.0,0.0,0.0,0.0,0.0,0.0,0.0,0.0,0.0,0.0,0.0,0.0,0.0,0.0,0.0,0.0,0.0,0.0,0.0,0.0,0.0,0.0,-0.5602,-0.5523,-0.5133,-0.4407,-0.3957,-0.3388,-0.2642,0.0,0.0,0.0,0.0,0.0,0.0,0.0,0.0,0.0,0.0,0.0,0.0,0.0,0.0,0.0,0.0,0.0,0.0,0.0,0.0,0.0,0.0,0.0,0.0,0.0,0.0,0.0,0.0,0.0,0.0,0.0,0.0,0.0,0.0,0.0,0.0,0.0,0.0,0.0,0.0,0.0,0.0,0.0,0.0,0.0,0.0,0.0,0.0,0.0,0.0,0.0,0.0,0.0,0.0,0.0,0.0,0.0,0.0,0.0,0.0,0.0,0.0,0.0,0.0,0.0,0.0,0.0,0.0,0.0,0.0,0.0,0.0,0.0,0.0,0.0,0.0,0.0,0.0,0.0,0.0,0.0,0.0,0.0,0.0,0.0,0.0,0.0,0.0,0.0,0.0,0.0,0.0,0.0,0.0,0.0,0.0,0.0,0.0,0.0,0.0,0.0,0.0,0.0,0.0,0.0,0.0,0.0,0.0,-0.6606,-0.5977,-0.542,-0.4974,-0.4363,-0.3707,0.0,0.0,0.0,0.0,0.0,0.0,0.0,0.0,0.0,0.0,0.0,0.0,0.0,0.0,0.0,0.0,0.0,0.0,0.0,0.0,0.0,0.0,0.0,0.0,0.0,0.0,0.0,0.0,0.0,0.0,0.0,0.0,0.0,0.0,0.0,0.0,0.0,0.0,0.0,0.0,0.0,0.0,0.0,0.0,0.0,0.0,0.0,0.0,0.0,0.0,0.0,0.0,0.0,0.0,0.0,0.0,0.0,0.0,0.0,0.0,0.0,0.0,0.0,0.0,0.0,0.0,0.0,0.0,0.0,0.0,0.0,0.0,0.0,0.0,0.0,0.0,0.0,0.0,0.0,0.0,0.0,0.0,0.0,0.0,0.0,0.0,0.0,0.0,0.0,0.0,0.0,0.0,0.0,0.0,0.0,0.0,0.0,0.0,0.0,0.0,0.0,0.0,0.0,0.0,0.0,0.0,0.0,0.0,0.0,-0.6652,-0.6412,-0.6031,-0.5556,-0.4794,-0.4134,0.0,0.0,0.0,0.0,0.0,0.0,0.0,0.0,0.0,0.0,0.0,0.0,0.0,0.0,0.0,0.0,0.0,0.0,0.0,0.0,0.0,0.0,0.0,0.0,0.0,0.0,0.0,0.0,0.0,0.0,0.0,0.0,0.0,0.0,0.0,0.0,0.0,0.0,0.0,0.0,0.0,0.0,0.0,0.0,0.0,0.0,0.0,0.0,0.0,0.0,0.0,0.0,0.0,0.0,0.0,0.0,0.0,0.0,0.0,0.0,0.0,0.0,0.0,0.0,0.0,0.0,0.0,0.0,0.0,0.0,0.0,0.0,0.0,0.0,0.0,0.0,0.0,0.0,0.0,0.0,0.0,0.0,0.0,0.0,0.0,0.0,0.0,0.0,0.0,0.0,0.0,0.0,0.0,0.0,0.0,0.0,0.0,0.0,0.0,0.0,0.0,0.0,0.0,0.0,0.0,0.0,0.0,0.0,-0.6866,-0.7148,-0.6892,-0.659,-0.6211,-0.5275,-0.4476,0.0,0.0,0.0,0.0,0.0,0.0,0.0,0.0,0.0,0.0,0.0,0.0,0.0,0.0,0.0,0.0,0.0,0.0,0.0,0.0,0.0,0.0,0.0,0.0,0.0,0.0,0.0,0.0,0.0,0.0,0.0,0.0,0.0,0.0,0.0,0.0,0.0,0.0,0.0,0.0,0.0,0.0,0.0,0.0,0.0,0.0,0.0,0.0,0.0,0.0,0.0,0.0,0.0,0.0,0.0,0.0,0.0,0.0,0.0,0.0,0.0,0.0,0.0,0.0,0.0,0.0,0.0,0.0,0.0,0.0,0.0,0.0,0.0,0.0,0.0,0.0,0.0,0.0,0.0,0.0,0.0,0.0,0.0,0.0,0.0,0.0,0.0,0.0,0.0,0.0,0.0,0.0,0.0,0.0,0.0,0.0,0.0,0.0,0.0,0.0,0.0,0.0,0.0,0.0,0.0,0.0,0.0,0.0,-0.7257,-0.7767,-0.734,-0.7009,-0.6764,-0.5716,-0.4824,0.0,0.0,0.0,0.0,0.0,0.0,0.0,0.0,0.0,0.0,0.0,0.0,0.0,0.0,0.0,0.0,0.0,0.0,0.0,0.0,0.0,0.0,0.0,0.0,0.0,0.0,0.0,0.0,0.0,0.0,0.0,0.0,0.0,0.0,0.0,0.0,0.0,0.0,0.0,0.0,0.0,0.0,0.0,0.0,0.0,0.0,0.0,0.0,0.0,0.0,0.0,0.0,0.0,0.0,0.0,0.0,0.0,0.0,0.0,0.0,0.0,0.0,0.0,0.0,0.0,0.0,0.0,0.0,0.0,0.0,0.0,0.0,0.0,0.0,0.0,0.0,0.0,0.0,0.0,0.0,0.0,0.0,0.0,0.0,0.0,0.0,0.0,0.0,0.0,0.0,0.0,0.0,0.0,0.0,0.0,0.0,0.0,0.0,0.0,0.0,0.0,0.0,0.0,0.0,0.0,0.0,0.0,0.0,-0.7223,-0.7611,-0.7302,-0.7009,-0.6805,-0.5946,-0.5127,0.0,0.0,0.0,0.0,0.0,0.0,0.0,0.0,0.0,0.0,0.0,0.0,0.0,0.0,0.0,0.0,0.0,0.0,0.0,0.0,0.0,0.0,0.0,0.0,0.0,0.0,0.0,0.0,0.0,0.0,0.0,0.0,0.0,0.0,0.0,0.0,0.0,0.0,0.0,0.0,0.0,0.0,0.0,0.0,0.0,0.0,0.0,0.0,-1.2672,0.0,0.0,0.0,0.0,0.0,0.0,0.0,0.0,0.0,0.0,0.0,0.0,0.0,0.0,0.0,0.0,0.0,0.0,0.0,0.0,0.0,0.0,0.0,0.0,0.0,0.0,0.0,0.0,0.0,0.0,0.0,0.0,0.0,0.0,0.0,0.0,0.0,0.0,0.0,0.0,0.0,0.0,0.0,0.0,0.0,0.0,0.0,0.0,0.0,0.0,0.0,0.0,0.0,0.0,0.0,0.0,0.0,0.0,0.0,-0.7328,-0.78,-0.7481,-0.7203,-0.6964,-0.6344,-0.5518,0.0,0.0,0.0,0.0,0.0,0.0,0.0,0.0,0.0,0.0,0.0,0.0,0.0,0.0,0.0,0.0,0.0,0.0,0.0,0.0,0.0,0.0,0.0,0.0,0.0,0.0,0.0,0.0,0.0,0.0,0.0,0.0,0.0,0.0,0.0,0.0,0.0,0.0,0.0,0.0,0.0,0.0,0.0,0.0,0.0,0.0,0.0,0.0,0.0,0.0,0.0,0.0,0.0,0.0,0.0,0.0,0.0,0.0,0.0,0.0,0.0,0.0,0.0,0.0,0.0,0.0,0.0,0.0,0.0,0.0,0.0,0.0,0.0,0.0,0.0,0.0,0.0,0.0,0.0,0.0,0.0,0.0,0.0,0.0,0.0,0.0,0.0,0.0,0.0,0.0,0.0,0.0,0.0,0.0,0.0,0.0,0.0,0.0,0.0,0.0,0.0,0.0,0.0,0.0,0.0,0.0,0.0,-0.7002,-0.7482,-0.8038,-0.7663,-0.7354,-0.72,-0.6693,-0.5763,-0.4452,0.0,0.0,0.0,0.0,0.0,0.0,0.0,0.0,0.0,0.0,0.0,0.0,0.0,0.0,0.0,0.0,0.0,0.0,0.0,0.0,0.0,0.0,0.0,0.0,0.0,0.0,0.0,0.0,0.0,0.0,0.0,0.0,0.0,0.0,0.0,0.0,0.0,0.0,-0.9698,-1.0929,0.0,0.0,0.0,0.0,0.0,0.0,0.0,0.0,-1.2836,0.0,0.0,0.0,0.0,0.0,0.0,0.0,0.0,0.0,0.0,0.0,0.0,0.0,0.0,0.0,0.0,0.0,0.0,0.0,0.0,0.0,0.0,0.0,0.0,0.0,0.0,0.0,0.0,0.0,0.0,0.0,0.0,0.0,0.0,0.0,0.0,0.0,0.0,0.0,0.0,0.0,0.0,0.0,0.0,0.0,0.0,0.0,0.0,0.0,0.0,0.0,0.0,0.0,0.0,0.0,0.0,-0.6375,-0.6929,-0.7423,-0.7903,-0.7428,-0.719,-0.7176,-0.635,-0.5434,-0.4447,0.0,0.0,0.0,0.0,0.0,0.0,0.0,0.0,0.0,0.0,0.0,0.0,0.0,0.0,0.0,0.0,0.0,0.0,0.0,0.0,0.0,0.0,0.0,0.0,0.0,0.0,0.0,0.0,0.0,0.0,0.0,0.0,0.0,0.0,0.0,0.0,0.0,0.0,0.0,-1.1055,-1.1812,0.0,0.0,0.0,0.0,0.0,0.0,0.0,0.0,-1.2526,0.0,0.0,0.0,0.0,0.0,0.0,0.0,0.0,0.0,0.0,0.0,0.0,0.0,0.0,0.0,0.0,0.0,0.0,0.0,0.0,0.0,0.0,0.0,0.0,0.0,0.0,0.0,0.0,0.0,0.0,0.0,0.0,0.0,0.0,0.0,0.0,0.0,0.0,0.0,0.0,0.0,0.0,0.0,0.0,0.0,0.0,0.0,0.0,0.0,0.0,0.0,0.0,0.0,0.0,0.0,-0.6329,-0.6841,-0.7276,-0.7583,-0.726,-0.7026,-0.6882,-0.6179,-0.5355,0.0,0.0,0.0,0.0,0.0,0.0,0.0,0.0,0.0,0.0,0.0,0.0,0.0,0.0,0.0,0.0,0.0,0.0,0.0,0.0,0.0,0.0,0.0,0.0,0.0,0.0,0.0,0.0,0.0,0.0,0.0,0.0,0.0,0.0,0.0,0.0,0.0,0.0,0.0,0.0,-1.1443,-1.1982,-1.2332,0.0,0.0,0.0,0.0,0.0,0.0,-1.2333,-1.2343,0.0,0.0,0.0,0.0,0.0,0.0,0.0,0.0,0.0,0.0,0.0,0.0,0.0,0.0,0.0,0.0,0.0,0.0,0.0,0.0,0.0,0.0,0.0,0.0,0.0,0.0,0.0,0.0,0.0,0.0,0.0,0.0,0.0,0.0,0.0,0.0,0.0,0.0,0.0,0.0,0.0,0.0,0.0,0.0,0.0,0.0,0.0,0.0,0.0,0.0,0.0,0.0,0.0,0.0,0.0,-0.6297,-0.6754,-0.7088,-0.7276,-0.7065,-0.684,-0.6577,-0.5934,-0.5198,0.0,0.0,0.0,0.0,0.0,0.0,0.0,0.0,0.0,0.0,0.0,0.0,0.0,0.0,0.0,0.0,0.0,0.0,0.0,0.0,0.0,0.0,0.0,0.0,0.0,0.0,0.0,0.0,0.0,0.0,0.0,0.0,0.0,0.0,0.0,0.0,0.0,0.0,0.0,0.0,0.0,-1.2333,-1.2332,-1.2455,0.0,0.0,0.0,0.0,-1.2384,-1.2359,0.0,0.0,0.0,0.0,0.0,0.0,0.0,0.0,0.0,0.0,0.0,0.0,0.0,0.0,0.0,0.0,0.0,0.0,0.0,0.0,0.0,0.0,0.0,0.0,0.0,0.0,0.0,0.0,0.0,0.0,0.0,0.0,0.0,0.0,0.0,0.0,0.0,0.0,0.0,0.0,0.0,0.0,0.0,0.0,0.0,0.0,0.0,0.0,0.0,0.0,0.0,0.0,0.0,0.0,0.0,0.0,-0.6216,-0.6659,-0.7037,-0.7269,-0.6771,-0.6481,-0.6492,-0.5409,-0.4678,0.0,0.0,0.0,0.0,0.0,0.0,0.0,0.0,0.0,0.0,0.0,0.0,0.0,0.0,0.0,0.0,0.0,0.0,0.0,0.0,0.0,0.0,0.0,0.0,0.0,0.0,0.0,0.0,0.0,0.0,0.0,0.0,0.0,0.0,0.0,0.0,0.0,0.0,0.0,0.0,0.0,-1.2826,-1.2822,-1.3265,-1.3614,0.0,0.0,-1.3585,-1.2997,-1.2905,0.0,0.0,0.0,0.0,0.0,0.0,0.0,0.0,0.0,0.0,0.0,0.0,0.0,0.0,0.0,0.0,0.0,0.0,0.0,0.0,0.0,0.0,0.0,0.0,0.0,0.0,0.0,0.0,0.0,0.0,0.0,0.0,0.0,0.0,0.0,0.0,0.0,0.0,0.0,0.0,0.0,0.0,0.0,0.0,0.0,0.0,0.0,0.0,0.0,0.0,0.0,0.0,0.0,0.0,0.0,-0.5927,-0.6036,-0.6415,-0.6684,-0.6787,-0.6465,-0.6222,-0.6046,-0.513,-0.4509,0.0,0.0,0.0,0.0,0.0,0.0,0.0,0.0,0.0,0.0,0.0,0.0,0.0,0.0,0.0,0.0,0.0,0.0,0.0,0.0,0.0,0.0,0.0,0.0,0.0,0.0,0.0,0.0,0.0,0.0,0.0,0.0,0.0,0.0,0.0,0.0,0.0,0.0,0.0,0.0,0.0,0.0,-1.274,-1.3277,0.0,0.0,0.0,-1.373,-1.343,0.0,0.0,0.0,0.0,0.0,0.0,0.0,0.0,0.0,0.0,0.0,0.0,0.0,0.0,0.0,0.0,0.0,0.0,0.0,0.0,0.0,0.0,0.0,0.0,0.0,0.0,0.0,0.0,0.0,0.0,0.0,0.0,0.0,0.0,0.0,0.0,0.0,0.0,0.0,0.0,0.0,0.0,0.0,0.0,0.0,0.0,0.0,0.0,0.0,0.0,0.0,0.0,0.0,0.0,0.0,0.0,0.0,-0.5819,-0.6136,-0.6294,-0.6291,-0.6147,-0.5899,-0.5492,-0.4863,0.0,0.0,0.0,0.0,0.0,0.0,0.0,0.0,0.0,0.0,0.0,0.0,0.0,0.0,0.0,0.0,0.0,0.0,0.0,0.0,0.0,0.0,0.0,0.0,0.0,0.0,0.0,-0.5827,0.0,0.0,0.0,0.0,0.0,0.0,0.0,0.0,0.0,0.0,0.0,0.0,0.0,0.0,-1.2816,-1.2977,-1.3573,-1.401,0.0,0.0,-1.4056,-1.3921,-1.359,-1.3226,0.0,0.0,0.0,0.0,0.0,0.0,0.0,0.0,0.0,0.0,0.0,0.0,0.0,0.0,0.0,0.0,0.0,0.0,0.0,0.0,0.0,0.0,0.0,0.0,0.0,0.0,0.0,0.0,0.0,0.0,0.0,0.0,0.0,0.0,0.0,0.0,0.0,0.0,0.0,0.0,0.0,0.0,0.0,0.0,0.0,0.0,0.0,0.0,0.0,0.0,0.0,0.0,0.0,0.0,0.0,-0.5633,-0.5877,-0.6022,-0.6029,-0.5831,-0.5477,-0.4964,-0.4548,-0.4075,0.0,0.0,0.0,0.0,0.0,0.0,0.0,0.0,0.0,0.0,0.0,0.0,0.0,0.0,0.0,0.0,0.0,0.0,0.0,0.0,0.0,0.0,0.0,0.0,0.0,0.0,0.0,0.0,0.0,0.0,0.0,0.0,0.0,0.0,0.0,0.0,0.0,0.0,0.0,0.0,0.0,-1.345,-1.4012,-1.4674,-1.5122,0.0,0.0,-1.5096,-1.4522,-1.4514,-1.4191,-1.3008,0.0,0.0,0.0,0.0,0.0,0.0,0.0,0.0,0.0,0.0,0.0,0.0,0.0,0.0,0.0,0.0,0.0,0.0,0.0,0.0,0.0,0.0,0.0,0.0,0.0,0.0,0.0,0.0,0.0,0.0,0.0,0.0,0.0,0.0,0.0,0.0,0.0,0.0,0.0,0.0,0.0,0.0,0.0,0.0,0.0,0.0,0.0,0.0,0.0,0.0,0.0,0.0,0.0,-0.4917,-0.5235,-0.5408,-0.5536,-0.5567,-0.5334,-0.5029,-0.4654,-0.4186,-0.3781,0.0,0.0,0.0,0.0,0.0,0.0,0.0,0.0,0.0,0.0,0.0,0.0,0.0,0.0,0.0,0.0,0.0,0.0,0.0,0.0,0.0,0.0,0.0,0.0,0.0,0.0,0.0,0.0,-0.8275,-0.8851,-0.9504,0.0,0.0,0.0,0.0,0.0,0.0,0.0,0.0,0.0,0.0,-1.3799,-1.3941,-1.4567,0.0,0.0,-1.5178,-1.5196,-1.4964,-1.4701,-1.4359,-1.3859,-1.36,0.0,0.0,0.0,0.0,0.0,0.0,0.0,0.0,0.0,0.0,0.0,0.0,0.0,0.0,0.0,0.0,0.0,0.0,0.0,0.0,0.0,0.0,0.0,0.0,0.0,0.0,0.0,0.0,0.0,0.0,0.0,0.0,0.0,0.0,0.0,0.0,0.0,0.0,0.0,0.0,0.0,0.0,0.0,0.0,0.0,0.0,0.0,0.0,0.0,0.0,0.0,0.0,-0.4458,-0.4726,-0.4902,-0.4998,-0.498,-0.4825,-0.4557,-0.4211,-0.3828,-0.3487,0.0,0.0,0.0,0.0,0.0,0.0,0.0,0.0,0.0,0.0,0.0,0.0,0.0,0.0,0.0,0.0,0.0,0.0,0.0,0.0,0.0,0.0,0.0,0.0,0.0,0.0,0.0,0.0,-0.8487,-0.9002,-0.9713,0.0,0.0,0.0,0.0,0.0,0.0,0.0,0.0,0.0,0.0,-1.4127,-1.425,-1.4838,-1.5322,-1.537,-1.5499,-1.5538,-1.5385,-1.5077,-1.4732,-1.4413,0.0,0.0,0.0,0.0,0.0,0.0,0.0,0.0,0.0,0.0,0.0,0.0,0.0,0.0,0.0,0.0,0.0,0.0,0.0,0.0,0.0,0.0,0.0,0.0,0.0,0.0,0.0,0.0,0.0,0.0,0.0,0.0,0.0,0.0,0.0,0.0,0.0,0.0,0.0,0.0,0.0,0.0,0.0,0.0,0.0,0.0,0.0,0.0,0.0,0.0,0.0,0.0,0.0,-0.3988,-0.412,-0.4383,-0.4457,-0.4332,-0.4384,-0.4117,-0.3558,-0.3462,-0.3207,-0.2826,0.0,0.0,0.0,0.0,0.0,0.0,0.0,0.0,0.0,0.0,0.0,0.0,0.0,0.0,0.0,0.0,0.0,0.0,0.0,0.0,0.0,0.0,0.0,0.0,0.0,0.0,-0.7772,-0.8641,-0.9249,0.0,0.0,0.0,0.0,0.0,0.0,0.0,0.0,0.0,0.0,-1.3938,-1.4471,-1.5148,-1.5763,-1.6185,-1.6395,-1.6445,-1.6288,-1.5758,-1.5766,-1.5498,0.0,0.0,0.0,0.0,0.0,0.0,0.0,0.0,0.0,0.0,0.0,0.0,0.0,0.0,0.0,0.0,0.0,0.0,0.0,0.0,0.0,0.0,0.0,0.0,0.0,0.0,0.0,0.0,0.0,0.0,0.0,0.0,0.0,0.0,0.0,0.0,0.0,0.0,0.0,0.0,-0.1705,-0.1785,0.0,0.0,0.0,0.0,0.0,0.0,0.0,0.0,0.0,0.0,0.0,0.0,-0.3612,-0.3844,-0.4016,-0.4078,-0.4015,-0.3941,-0.3697,-0.3297,-0.3147,-0.2983,-0.2819,0.0,0.0,0.0,0.0,0.0,0.0,0.0,0.0,0.0,0.0,0.0,0.0,0.0,0.0,0.0,0.0,0.0,0.0,0.0,0.0,0.0,0.0,0.0,0.0,0.0,-0.7413,0.0,0.0,0.0,0.0,0.0,0.0,0.0,0.0,0.0,0.0,0.0,-1.357,-1.3709,-1.4508,-1.5167,-1.5451,-1.572,-1.5927,0.0,0.0,0.0,0.0,0.0,0.0,0.0,0.0,0.0,0.0,0.0,0.0,0.0,0.0,-1.4655,-1.4722,-1.4813,-1.4864,-1.4658,0.0,0.0,0.0,0.0,0.0,0.0,0.0,0.0,0.0,0.0,0.0,0.0,0.0,0.0,0.0,0.0,0.0,0.0,0.0,0.0,0.0,0.0,0.0,0.0,0.0,-0.1336,-0.1465,-0.1486,-0.1594,-0.1638,0.0,-0.1681,-0.1916,0.0,0.0,0.0,0.0,0.0,0.0,0.0,0.0,-0.3382,-0.3598,-0.3766,-0.377,-0.3648,-0.3555,-0.3365,-0.3077,-0.2912,-0.2812,-0.2766,-0.2632,-0.2522,0.0,0.0,0.0,0.0,0.0,0.0,0.0,0.0,0.0,0.0,0.0,0.0,0.0,0.0,0.0,0.0,0.0,0.0,0.0,0.0,0.0,0.0,0.0,-0.7552,0.0,0.0,0.0,0.0,0.0,0.0,0.0,0.0,0.0,-1.2479,-1.3301,-1.393,-1.4132,-1.4957,-1.5608,-1.5736,0.0,0.0,0.0,0.0,0.0,0.0,0.0,-1.5796,-1.5765,-1.5627,-1.5533,-1.5599,-1.5228,-1.4971,-1.5165,0.0,0.0,-1.5196,-1.528,-1.53,-1.5089,-1.5183,-1.5285,-1.5319,-1.5381,-1.5512,0.0,0.0,0.0,0.0,0.0,0.0,0.0,0.0,0.0,0.0,0.0,0.0,0.0,0.0,0.0,0.0,0.0,-0.0541,0.0,0.0,-0.1155,-0.1361,-0.1485,-0.1484,-0.1486,-0.1514,-0.1609,-0.1736,-0.1899,-0.215,0.0,0.0,0.0,0.0,0.0,0.0,-0.3243,-0.3396,-0.3576,-0.3522,-0.322,-0.3248,-0.3132,-0.28,-0.2716,-0.2696,-0.2696,-0.2676,-0.2628,-0.25,-0.2309,0.0,0.0,0.0,0.0,0.0,0.0,0.0,0.0,0.0,0.0,0.0,0.0,0.0,0.0,0.0,0.0,0.0,0.0,0.0,0.0,-0.7063,0.0,0.0,0.0,0.0,0.0,0.0,0.0,0.0,0.0,0.0,-1.3022,-1.3531,-1.4069,-1.4711,0.0,0.0,0.0,0.0,-1.6997,-1.7144,-1.7178,-1.701,-1.6593,-1.6553,-1.6495,-1.6241,0.0,0.0,-1.6241,-1.5731,-1.5416,-1.5581,-1.5625,-1.5755,-1.6147,-1.6251,-1.6144,-1.5641,-1.5562,-1.5648,-1.5706,-1.5811,-1.608,0.0711,0.0,0.0,0.0,0.0,0.0,0.0,0.0,0.0,0.0,0.0,0.0,0.0,0.0,0.0,0.0,0.0,0.0,-0.0519,-0.0832,-0.0908,-0.1059,-0.1287,-0.1135,-0.116,-0.1287,-0.1185,-0.1262,-0.1486,-0.1738,-0.2085,-0.2478,0.0,0.0,0.0,0.0,-0.2984,-0.3103,-0.3169,-0.3149,-0.3049,-0.2968,-0.2818,-0.2586,-0.256,-0.2593,-0.2679,-0.2679,-0.2679,-0.2647,-0.2403,0.0,0.0,0.0,0.0,0.0,0.0,0.0,0.0,0.0,0.0,0.0,0.0,0.0,0.0,0.0,0.0,0.0,0.0,0.0,-0.6611,-0.6964,-0.7324,0.0,0.0,0.0,0.0,0.0,0.0,0.0,0.0,0.0,-1.3191,-1.3944,-1.4467,0.0,0.0,-1.5868,-1.6092,-1.6378,-1.6629,-1.6812,-1.6833,0.0,0.0,-1.657,-1.6382,-1.6347,-1.6349,-1.6368,-1.6479,-1.6448,-1.634,-1.6021,-1.5996,-1.5975,-1.5713,-1.5911,-1.6031,-1.5889,-1.5955,-1.6037,-1.6062,-1.6155,-1.6294,0.1199,0.061,0.0274,0.0059,0.0,0.0,0.0,0.0,0.0,0.0,0.0,0.0,0.0,0.0,0.0,0.0,0.0,0.0,-0.0338,-0.0553,-0.0606,-0.0737,-0.0869,-0.0764,-0.0764,-0.0896,-0.0842,-0.0921,-0.1159,-0.1377,-0.1663,-0.1992,0.0,0.0,-0.2586,-0.2713,-0.2831,-0.2952,-0.2954,-0.2907,-0.2852,-0.2718,-0.2619,-0.2531,-0.2489,-0.251,-0.2577,-0.2577,-0.2593,-0.2577,-0.2383,-0.2202,0.0,0.0,0.0,0.0,0.0,0.0,0.0,0.0,0.0,0.0,0.0,-0.3347,0.0,0.0,0.0,0.0,-0.5418,-0.5993,-0.6489,-0.6807,0.0,0.0,0.0,0.0,0.0,0.0,0.0,-1.0882,-1.1624,-1.236,-1.3034,-1.3739,-1.4339,-1.4715,-1.5202,-1.5614,-1.5881,0.0,-1.6284,-1.6405,-1.6448,-1.6568,-1.6705,-1.6539,-1.6473,-1.6763,-1.6594,-1.6528,-1.6788,-1.675,-1.6507,-1.6073,-1.5984,-1.5878,-1.5324,-1.5477,-1.5726,-1.5841,-1.5969,-1.6069,-1.6083,-1.6194,-1.6289,0.1792,0.1199,0.0642,0.0257,0.0063,0.0,0.0,0.0031,0.0,0.0032,0.0,0.0,0.0,0.0,0.0,0.0,0.0,-0.0107,-0.019,-0.0224,-0.0336,-0.0393,-0.0393,-0.0392,-0.0393,-0.0392,-0.0589,-0.0729,-0.0867,-0.1059,-0.123,-0.1362,-0.1992,-0.2372,-0.2552,-0.2616,-0.2722,-0.2856,-0.2829,-0.2743,-0.2558,-0.2446,-0.2434,-0.2537,-0.2439,-0.237,-0.2377,-0.2377,-0.2374,-0.2385,-0.2247,-0.2095,-0.1906,0.0,0.0,0.0,0.0,0.0,0.0,0.0,0.0,0.0,0.0,0.0,0.0,0.0,0.0,0.0,-0.546,0.0,-0.6114,-0.6641,0.0,0.0,0.0,-0.8343,-0.8993,-0.954,-1.0179,-1.0874,0.0,0.0,-1.2696,-1.3211,-1.38,-1.4512,-1.4834,-1.5119,-1.5401,-1.5714,-1.5923,-1.5966,-1.6078,-1.6231,-1.6436,-1.6475,-1.6663,-1.716,-1.6963,-1.6789,-1.7082,-1.6821,-1.6293,-1.5845,-1.5792,-1.5616,-1.4997,-1.504,-1.5238,-1.5492,-1.5697,-1.5856,-1.5885,-1.5998,-1.6095,0.2136,0.1721,0.1251,0.0818,0.0443,0.0445,0.0372,0.0231,0.0233,0.0131,0.0,0.0,0.0,0.0,0.0,0.0,0.0,-0.0028,-0.0111,-0.0196,-0.0224,-0.0308,-0.0393,-0.0308,-0.0308,-0.0393,-0.0336,-0.0364,-0.0532,-0.0723,-0.0887,-0.1023,-0.1327,-0.1689,-0.2066,-0.2225,-0.2343,-0.2367,-0.2323,-0.2264,-0.221,-0.2181,-0.2202,-0.2205,-0.2175,-0.217,-0.2167,-0.2161,-0.2181,-0.2178,-0.2087,-0.1954,-0.1763,-0.1716,0.0,0.0,0.0,0.0,0.0,0.0,0.0,0.0,0.0,-0.3235,-0.3667,0.0,-0.4323,0.0,-0.5424,-0.5949,-0.6307,-0.6694,0.0,0.0,-0.7843,-0.8464,-0.9345,-0.9718,-1.0291,-1.1322,-1.1667,-1.21,-1.2771,-1.2982,-1.3224,-1.3658,-1.4129,-1.4524,-1.4834,-1.5131,-1.5401,-1.558,-1.5792,-1.5947,-1.611,-1.6349,-1.662,-1.6973,-1.6936,-1.7044,-1.7377,-1.733,-1.6979,-1.6213,-1.606,-1.5717,-1.4772,-1.4749,-1.4918,-1.5057,-1.5314,-1.5551,-1.5639,-1.5784,-1.5885,0.275,0.2152,0.1924,0.1581,0.1123,0.0778,0.0518,0.0371,0.0371,0.0334,0.023,0.0162,0.0126,0.012,0.003,0.0,0.0,0.0,-0.0029,-0.0115,-0.0085,-0.014,-0.0224,-0.014,-0.0168,-0.0224,-0.014,-0.0168,-0.0308,-0.0449,-0.0561,-0.0673,-0.0881,-0.1107,-0.1349,-0.1708,-0.1889,-0.1878,-0.183,-0.1838,-0.197,-0.1911,-0.1948,-0.2045,-0.1992,-0.1973,-0.1969,-0.1991,-0.2014,-0.2014,-0.1911,-0.1782,-0.1623,-0.1553,-0.1467,0.0,0.0,0.0,0.0,0.0,0.0,0.0,0.0,0.0,0.0,0.0,-0.4405,-0.4928,-0.5421,-0.5822,-0.6114,-0.6603,-0.6986,-0.7207,-0.7859,-0.8515,-0.9136,-0.9731,-1.0377,-1.111,-1.1507,-1.194,-1.2476,-1.2676,-1.292,-1.3152,-1.3501,-1.3892,-1.4314,-1.4708,-1.4994,-1.5187,-1.5424,-1.5659,-1.5869,-1.611,-1.6358,-1.662,-1.6693,-1.6842,-1.7144,-1.7005,-1.6606,-1.599,-1.5735,-1.5351,-1.4479,-1.4465,-1.4637,-1.4733,-1.4935,-1.5193,-1.5418,-1.5551,-1.5682,0.3447,0.2668,0.2588,0.2284,0.185,0.1119,0.0731,0.0609,0.0574,0.0539,0.0505,0.0392,0.0318,0.0311,0.0124,0.0062,0.0031,0.0,0.0,0.0,0.0,0.0,0.0,0.0,0.0,0.0,0.0,-0.0056,-0.0168,-0.0168,-0.0252,-0.0364,-0.0561,-0.0645,-0.0671,-0.1135,-0.1353,-0.1392,-0.136,-0.1446,-0.1716,-0.1603,-0.1669,-0.1908,-0.1823,-0.1768,-0.1764,-0.1791,-0.1842,-0.1814,-0.1711,-0.1592,-0.1471,-0.1374,-0.1312,0.0,-0.1321,0.0,0.0,0.0,0.0,0.0,0.0,0.0,0.0,-0.3952,-0.4557,-0.515,-0.5437,-0.5663,-0.5864,-0.6493,-0.6892,-0.6946,-0.7814,-0.8496,-0.8741,-0.9618,-1.0358,-1.0691,-1.1376,-1.1877,-1.2076,-1.2406,-1.2652,-1.2822,-1.3002,-1.3316,-1.376,-1.4267,-1.4628,-1.4812,-1.5074,-1.5368,-1.5659,-1.5859,-1.6022,-1.6241,-1.6328,-1.6457,-1.6748,-1.6352,-1.5845,-1.5497,-1.5133,-1.4663,-1.4057,-1.4163,-1.4353,-1.4436,-1.4624,-1.4887,-1.5193,-1.5388,-1.5536,0.3962,0.353,0.3136,0.2743,0.2343,0.2021,0.1598,0.1042,0.1019,0.0808,0.0504,0.0491,0.0451,0.0447,0.0312,0.0247,0.0247,0.0061,0.0,0.0,0.0,0.0,0.0,0.0,0.0,0.0,0.0,-0.0028,-0.0028,-0.0028,-0.0112,-0.0252,-0.028,-0.0364,-0.0448,0.0,0.0,0.0,-0.0936,-0.1059,-0.1222,-0.1334,-0.1436,-0.1577,-0.1548,0.0,-0.1486,-0.1499,-0.148,-0.1419,-0.138,0.0,0.0,0.0,0.0,0.0,0.0,0.0,0.0,0.0,0.0,0.0,-0.298,-0.3217,-0.3474,-0.3985,-0.4571,-0.5211,-0.5423,-0.574,-0.6234,-0.656,-0.6795,-0.6996,-0.7565,-0.8163,-0.8784,-0.9438,-1.0075,-1.0789,-1.1183,-1.1553,-1.1868,-1.2101,-1.2298,-1.2554,-1.2783,-1.2978,-1.3099,-1.3631,-1.4104,-1.4443,-1.4777,-1.5062,-1.5345,-1.5491,-1.5647,-1.5814,-1.5991,-1.6132,-1.6259,-1.5952,-1.5537,-1.5159,-1.4773,-1.4301,-1.3799,-1.3901,-1.4065,-1.4084,-1.434,-1.4657,-1.4996,-1.5208,-1.5344,0.4487,0.0,0.3565,0.3267,0.0,0.2699,0.2311,0.1815,0.1537,0.1193,0.0875,0.073,0.0627,0.0626,0.0455,0.042,0.0387,0.0286,0.0253,0.0252,0.0245,0.0269,0.0265,0.0261,0.0228,0.0196,0.0196,0.0196,0.0196,0.0196,0.0168,0.0084,0.0084,0.0056,0.0,-0.0056,-0.0246,-0.0544,-0.0624,-0.0728,-0.0904,-0.098,-0.1131,-0.139,0.0,0.0,0.0,0.0,0.0,0.0,0.0,0.0,0.0,0.0,0.0,-0.1281,-0.1449,-0.1661,-0.1892,-0.2148,-0.2395,-0.2641,-0.2972,-0.336,-0.3725,-0.4217,-0.4693,-0.511,-0.5413,-0.5719,-0.6029,-0.6334,-0.6661,-0.6995,-0.7553,-0.8175,-0.886,-0.938,-0.992,-1.0568,-1.0871,-1.115,-1.1553,-1.1778,-1.2011,-1.2249,-1.248,-1.2661,-1.2832,-1.332,-1.3834,-1.4257,-1.4558,-1.48,-1.4983,-1.5108,-1.5255,-1.5379,-1.5536,-1.5691,-1.5836,-1.5335,-1.4853,-1.467,-1.4187,-1.3652,-1.3497,-1.3598,-1.3765,-1.3818,-1.4035,-1.4278,-1.4501,-1.4827,-1.5118,0.4997,0.43,0.4081,0.3763,0.3443,0.3262,0.2923,0.2524,0.0,0.0,0.0,0.1078,0.091,0.0876,0.0708,0.0607,0.0539,0.0527,0.0488,0.0488,0.0474,0.0492,0.0479,0.0474,0.0465,0.0424,0.0393,0.0393,0.0393,0.0393,0.0393,0.0393,0.0393,0.0393,0.0393,0.028,0.0083,-0.0242,-0.0309,-0.0447,-0.0601,-0.064,-0.0835,-0.1187,-0.1255,-0.1333,-0.145,-0.1457,-0.1457,-0.1393,-0.1333,-0.1288,-0.1217,-0.1178,-0.1196,-0.1301,-0.1411,-0.1608,-0.1864,-0.2101,-0.2344,-0.2543,-0.3009,-0.3496,-0.3957,-0.4394,-0.4707,-0.4954,-0.5328,-0.5615,-0.5701,-0.6024,-0.6448,-0.691,-0.7526,-0.8136,-0.8788,-0.9296,-0.9769,-1.0257,-1.0514,-1.0769,-1.115,-1.1418,-1.1703,-1.1952,-1.2126,-1.2348,-1.2652,-1.3142,-1.3634,-1.4012,-1.4257,-1.4477,-1.4605,-1.4709,-1.4846,-1.4994,-1.5119,-1.5233,-1.5239,-1.4674,-1.4221,-1.4309,-1.3588,-1.3131,-1.3141,-1.3271,-1.3429,-1.3514,-1.3719,-1.3917,-1.397,-1.4356,-1.4749,0.5413,0.5034,0.47,0.4231,0.3724,0.3711,0.3394,0.2864,0.208,0.1657,0.1547,0.1513,0.1379,0.1244,0.1076,0.0909,0.0741,0.0571,0.0503,0.0502,0.0488,0.048,0.0477,0.0483,0.0499,0.0496,0.0426,0.0393,0.0393,0.0421,0.0393,0.0393,0.0393,0.0421,0.0393,0.0393,0.0363,0.0278,-0.0052,-0.0226,-0.0275,-0.0446,-0.061,-0.0787,-0.1002,-0.1157,-0.1245,-0.1295,-0.1324,-0.1329,-0.1304,-0.1299,-0.1292,-0.127,-0.1308,-0.1382,-0.1414,-0.1517,-0.1787,-0.1968,-0.2284,-0.2805,-0.3068,-0.3406,-0.3869,-0.4192,-0.4491,-0.4801,-0.498,-0.5268,-0.5636,-0.5761,-0.6083,-0.6764,-0.7223,-0.7764,-0.845,-0.9055,-0.9484,-0.9751,-1.0128,-1.0445,-1.0744,-1.1023,-1.1301,-1.1553,-1.1803,-1.2101,-1.2471,-1.2939,-1.3338,-1.3634,-1.381,-1.4022,-1.4199,-1.4292,-1.4408,-1.4616,-1.4731,-1.4834,-1.4949,-1.4322,-1.3842,-1.3937,-1.3191,-1.2746,-1.282,-1.2925,-1.3064,-1.322,-1.3429,-1.3581,-1.3635,-1.3917,-1.4227,0.5856,0.5353,0.5089,0.4713,0.4272,0.3919,0.3635,0.3323,0.2696,0.2269,0.204,0.1793,0.1639,0.1513,0.1445,0.1365,0.1245,0.1145,0.1111,0.111,0.1096,0.1113,0.1094,0.1097,0.1065,0.1002,0.0958,0.0914,0.0899,0.0897,0.0869,0.0869,0.0869,0.0869,0.0785,0.0785,0.0729,0.056,0.0272,0.0052,-0.0076,-0.0195,-0.0329,-0.0585,-0.0785,-0.0934,-0.1025,-0.1152,-0.1216,-0.1249,-0.1245,-0.1273,-0.13,-0.1318,-0.1336,-0.1392,-0.1425,-0.1548,-0.1731,-0.1912,-0.2153,-0.2546,-0.2726,-0.297,-0.3309,-0.3792,-0.4206,-0.4495,-0.474,-0.5007,-0.529,-0.555,-0.5952,-0.6614,-0.7056,-0.7609,-0.8383,-0.8808,-0.9178,-0.9458,-0.9751,-1.0017,-1.0283,-1.059,-1.0871,-1.1141,-1.1452,-1.1828,-1.2126,-1.2437,-1.2779,-1.3166,-1.3406,-1.3539,-1.3729,-1.3823,-1.3952,-1.415,-1.4233,-1.4373,-1.4446,-1.3892,-1.3531,-1.3454,-1.2862,-1.2466,-1.2556,-1.2632,-1.2773,-1.2943,-1.3082,-1.3203,-1.3323,-1.3547,-1.3901,0.6285,0.572,0.5453,0.5118,0.4737,0.4153,0.3915,0.381,0.3393,0.3016,0.2666,0.2272,0.1983,0.1876,0.1873,0.1777,0.1633,0.1629,0.1623,0.1581,0.158,0.1629,0.1661,0.1649,0.1605,0.1568,0.1544,0.1482,0.142,0.1408,0.1402,0.1401,0.1402,0.1346,0.1206,0.1206,0.1094,0.0841,0.0673,0.0435,0.0102,0.0075,-0.0073,-0.0321,-0.0542,-0.0696,-0.0784,-0.0919,-0.1038,-0.1136,-0.1133,-0.1178,-0.1242,-0.1258,-0.1275,-0.1317,-0.138,-0.147,-0.1622,-0.1804,-0.1994,-0.217,-0.2326,-0.2529,-0.2823,-0.335,-0.3836,-0.4144,-0.4473,-0.4736,-0.4937,-0.529,-0.5823,-0.6429,-0.6815,-0.7419,-0.828,-0.8586,-0.885,-0.9204,-0.9387,-0.9577,-0.9836,-1.0146,-1.048,-1.0812,-1.115,-1.1452,-1.1669,-1.1852,-1.22,-1.2584,-1.2914,-1.3156,-1.3276,-1.3396,-1.3549,-1.3678,-1.3787,-1.3928,-1.3943,-1.3532,-1.3145,-1.3051,-1.2554,-1.2199,-1.224,-1.2318,-1.2443,-1.2632,-1.2756,-1.2843,-1.303,-1.322,-1.3598,0.656,0.646,0.6018,0.5512,0.4973,0.4504,0.4338,0.429,0.3904,0.3709,0.3598,0.3122,0.2695,0.2358,0.2358,0.2112,0.1747,0.1711,0.1688,0.1652,0.1614,0.1712,0.187,0.1828,0.1865,0.1998,0.1939,0.1886,0.1837,0.1815,0.1762,0.1762,0.1762,0.1708,0.16,0.1543,0.1459,0.1262,0.1234,0.0936,0.0397,0.0249,0.0167,0.0119,-0.0229,-0.045,-0.045,-0.0629,-0.0784,-0.0913,-0.0934,-0.1,-0.1105,-0.1127,-0.1127,-0.1126,-0.1154,-0.1202,-0.1336,-0.1518,-0.1681,-0.1839,-0.2064,-0.2288,-0.2506,-0.2818,-0.322,-0.3678,-0.4096,-0.4403,-0.4622,-0.491,-0.5393,-0.6091,-0.6466,-0.7016,-0.779,-0.8242,-0.8533,-0.8831,-0.8982,-0.9159,-0.9418,-0.9658,-1.0051,-1.0503,-1.0704,-1.0931,-1.1166,-1.1385,-1.1619,-1.1902,-1.2323,-1.2764,-1.2958,-1.3065,-1.3142,-1.3372,-1.3433,-1.3563,-1.3562,-1.3198,-1.269,-1.2709,-1.2226,-1.1827,-1.184,-1.1909,-1.2072,-1.233,-1.2455,-1.2544,-1.2808,-1.2943,-1.3229,0.678,0.6609,0.6408,0.6025,0.5512,0.4998,0.4771,0.4732,0.4345,0.4151,0.4144,0.391,0.3434,0.2795,0.2756,0.2645,0.2473,0.2365,0.2333,0.2305,0.2269,0.2284,0.2383,0.2359,0.236,0.2418,0.245,0.2407,0.2323,0.2306,0.2324,0.2324,0.2268,0.2186,0.213,0.2018,0.1877,0.1737,0.1709,0.1557,0.1231,0.0916,0.0656,0.0493,0.0238,0.0023,-0.0046,-0.0205,-0.0382,-0.0583,-0.0606,-0.0696,-0.0852,-0.0852,-0.0853,-0.0875,-0.0853,-0.0876,-0.0943,-0.1098,-0.1254,-0.1366,-0.1591,-0.1861,-0.2172,-0.2417,-0.2726,-0.3195,-0.3678,-0.4071,-0.4381,-0.4644,-0.5009,-0.5579,-0.5995,-0.6533,-0.7272,-0.7747,-0.8103,-0.8401,-0.8639,-0.8737,-0.8806,-0.892,-0.9236,-0.9681,-0.9953,-1.0227,-1.0532,-1.0898,-1.1192,-1.1352,-1.1653,-1.2051,-1.2446,-1.2593,-1.2715,-1.291,-1.3055,-1.3176,-1.3199,-1.2775,-1.2329,-1.2393,-1.1827,-1.1443,-1.1423,-1.1579,-1.1744,-1.1975,-1.2186,-1.2312,-1.2544,-1.2609,-1.2843,0.7082,0.6807,0.6639,0.6338,0.5944,0.5412,0.5165,0.5124,0.4813,0.4618,0.454,0.4501,0.4112,0.3442,0.3246,0.3203,0.3086,0.2901,0.2819,0.2793,0.279,0.2787,0.2822,0.2889,0.2926,0.2939,0.3037,0.2995,0.2804,0.2848,0.2856,0.2805,0.2717,0.2659,0.2603,0.2436,0.2322,0.2212,0.2184,0.2127,0.1953,0.164,0.1301,0.0948,0.0715,0.053,0.0429,0.0255,0.0068,-0.018,-0.0202,-0.0315,-0.0494,-0.0494,-0.0494,-0.0494,-0.0517,-0.0517,-0.0517,-0.0673,-0.0807,-0.0941,-0.1165,-0.1479,-0.1792,-0.2061,-0.2373,-0.2729,-0.3195,-0.366,-0.4056,-0.4294,-0.4617,-0.5102,-0.5586,-0.6121,-0.6759,-0.7256,-0.7649,-0.7975,-0.8148,-0.83,-0.8265,-0.8335,-0.8542,-0.8908,-0.9153,-0.9417,-0.9819,-1.0221,-1.058,-1.0756,-1.0965,-1.1418,-1.1977,-1.2126,-1.2249,-1.2505,-1.2676,-1.2774,-1.2827,-1.236,-1.1964,-1.1937,-1.1415,-1.1122,-1.1096,-1.1226,-1.1394,-1.159,-1.1822,-1.2023,-1.2186,-1.2269,-1.2437,0.7459,0.7362,0.67,0.6346,0.6151,0.5737,0.5562,0.5521,0.5321,0.5165,0.4965,0.4776,0.454,0.4331,0.3979,0.3667,0.3353,0.3088,0.2943,0.2874,0.2965,0.3058,0.3192,0.3362,0.3558,0.3633,0.3593,0.3477,0.3306,0.3282,0.3204,0.3109,0.3102,0.3019,0.2935,0.2877,0.2798,0.2689,0.2663,0.2605,0.2493,0.243,0.2086,0.1542,0.1206,0.1039,0.0934,0.0713,0.0514,0.0382,0.0247,0.0112,0.0,-0.0022,-0.0045,-0.0045,-0.0022,-0.0045,-0.0067,-0.027,-0.0427,-0.0561,-0.0874,-0.121,-0.1412,-0.177,-0.2085,-0.2304,-0.2684,-0.3135,-0.3553,-0.3818,-0.4185,-0.4738,-0.5232,-0.5754,-0.634,-0.6797,-0.7203,-0.7454,-0.7552,-0.7635,-0.7791,-0.7953,-0.806,-0.8301,-0.8475,-0.8661,-0.8979,-0.9364,-0.9694,-0.9919,-1.0317,-1.0922,-1.1535,-1.1719,-1.1893,-1.2126,-1.2283,-1.2369,-1.2282,-1.2117,-1.1814,-1.1463,-1.0975,-1.0721,-1.0746,-1.0848,-1.1029,-1.1236,-1.1501,-1.1715,-1.1804,-1.2004,-1.2168,0.7639,0.7485,0.7143,0.6798,0.6487,0.6144,0.5913,0.5754,0.5595,0.5443,0.5401,0.5285,0.5246,0.5129,0.4893,0.4482,0.4049,0.3847,0.3754,0.3623,0.3596,0.3585,0.3596,0.3661,0.3761,0.392,0.3987,0.4014,0.4002,0.3915,0.3812,0.3677,0.3574,0.3519,0.3463,0.3411,0.3274,0.3163,0.3163,0.3079,0.291,0.2796,0.2587,0.2283,0.1758,0.1413,0.1262,0.1086,0.0911,0.0718,0.0672,0.0606,0.0472,0.0427,0.045,0.045,0.045,0.0427,0.0315,0.0202,0.0022,-0.0202,-0.0494,-0.083,-0.1074,-0.1411,-0.1725,-0.1994,-0.2263,-0.2598,-0.2907,-0.3376,-0.3839,-0.4209,-0.4752,-0.5253,-0.567,-0.6237,-0.6734,-0.6919,-0.7002,-0.7007,-0.7029,-0.7048,-0.7105,-0.7295,-0.7553,-0.7866,-0.8209,-0.8571,-0.8901,-0.9115,-0.9374,-0.9651,-0.9931,-1.0838,-1.141,-1.1669,-1.1825,-1.1768,-1.1669,-1.1435,-1.1104,-1.0894,-1.0484,-1.0303,-1.0341,-1.0563,-1.0706,-1.0859,-1.1126,-1.1314,-1.1386,-1.1619,-1.1804,0.794,0.761,0.7462,0.7246,0.6961,0.6644,0.642,0.6276,0.6077,0.5983,0.5906,0.587,0.5792,0.5676,0.5476,0.5204,0.4802,0.4584,0.4457,0.4374,0.423,0.4155,0.4152,0.4144,0.4195,0.4261,0.4398,0.4446,0.4467,0.4324,0.4193,0.4069,0.3934,0.3852,0.3855,0.3774,0.3663,0.3608,0.358,0.3494,0.3325,0.3241,0.3102,0.2903,0.2438,0.1997,0.1669,0.1486,0.1334,0.1194,0.1105,0.1031,0.0944,0.0943,0.0898,0.0898,0.0876,0.0853,0.0696,0.0562,0.0382,0.018,-0.0135,-0.0449,-0.0717,-0.1053,-0.1344,-0.1614,-0.1908,-0.2154,-0.2397,-0.2884,-0.3353,-0.3676,-0.4286,-0.4775,-0.4977,-0.5728,-0.6234,-0.6511,-0.6498,-0.6453,-0.6418,-0.6393,-0.6419,-0.645,-0.6787,-0.713,-0.7456,-0.7809,-0.8101,-0.8339,-0.8617,-0.8815,-0.9048,-0.9715,-1.0335,-1.0642,-1.0978,-1.0994,-1.0954,-1.0678,-1.0487,-1.0267,-1.0095,-0.9955,-1.001,-1.0225,-1.039,-1.0515,-1.0736,-1.0975,-1.1096,-1.1247,-1.1434,0.8332,0.7965,0.7716,0.7645,0.7539,0.7241,0.7089,0.7034,0.6904,0.6694,0.6528,0.6374,0.6177,0.5941,0.5789,0.5637,0.5574,0.5243,0.4954,0.4872,0.4805,0.476,0.4732,0.4684,0.4728,0.4797,0.4797,0.4754,0.47,0.4572,0.4441,0.4249,0.4179,0.4123,0.4021,0.4076,0.4052,0.4021,0.4024,0.3941,0.3824,0.3769,0.3633,0.3411,0.3178,0.28,0.2236,0.1955,0.1782,0.1688,0.1536,0.1414,0.139,0.1389,0.1367,0.1299,0.1299,0.1232,0.1098,0.0876,0.0674,0.045,0.0202,-0.0112,-0.0404,-0.0718,-0.1009,-0.1286,-0.1579,-0.1849,-0.2014,-0.2337,-0.2735,-0.3178,-0.3846,-0.4327,-0.4613,-0.5256,-0.5909,-0.6134,-0.6079,-0.5949,-0.5987,-0.6008,-0.6027,-0.6036,-0.6241,-0.6508,-0.6751,-0.7029,-0.7263,-0.7531,-0.7852,-0.8095,-0.8307,-0.8585,-0.9044,-0.9475,-0.9842,-1.0052,-1.0058,-0.9889,-0.9787,-0.9616,-0.9547,-0.9426,-0.9695,-0.9912,-1.003,-1.0157,-1.039,-1.0612,-1.0755,-1.0907,-1.1105,0.8907,0.86,0.8543,0.8311,0.8071,0.7823,0.7614,0.7358,0.713,0.6934,0.6841,0.6753,0.6672,0.6595,0.6518,0.6483,0.6475,0.6308,0.5939,0.538,0.5174,0.5076,0.5017,0.4858,0.493,0.5196,0.5322,0.5343,0.5343,0.53,0.5155,0.4925,0.4815,0.4759,0.4601,0.4625,0.457,0.4494,0.4494,0.4408,0.427,0.4159,0.3996,0.3827,0.366,0.3445,0.314,0.264,0.2288,0.2128,0.2043,0.196,0.1851,0.1817,0.1772,0.1658,0.1658,0.1547,0.1344,0.1232,0.101,0.0697,0.045,0.0202,-0.009,-0.0382,-0.0659,-0.0929,-0.1168,-0.1415,-0.1693,-0.1949,-0.2283,-0.274,-0.3435,-0.3937,-0.4142,-0.4709,-0.5261,-0.5588,-0.5606,-0.5526,-0.5518,-0.5566,-0.5658,-0.556,-0.5744,-0.5997,-0.6186,-0.6326,-0.646,-0.6724,-0.7054,-0.7315,-0.7442,-0.7594,-0.7899,-0.8379,-0.8783,-0.9121,-0.9151,-0.9172,-0.9086,-0.9056,-0.8975,-0.9085,-0.9357,-0.9507,-0.9626,-0.9813,-1.0049,-1.0225,-1.039,-1.0563,-1.0745,0.9345,0.9043,0.9043,0.8887,0.8639,0.8444,0.8242,0.802,0.7721,0.7565,0.7465,0.7273,0.7249,0.7207,0.7099,0.7061,0.7099,0.7057,0.6736,0.6197,0.5815,0.5642,0.5529,0.5315,0.5329,0.5528,0.5653,0.5734,0.5768,0.576,0.5632,0.5366,0.5358,0.5263,0.5077,0.5062,0.5011,0.4928,0.4849,0.4798,0.4712,0.4546,0.4384,0.4273,0.4187,0.4076,0.3935,0.3504,0.3111,0.277,0.2637,0.2511,0.2365,0.2312,0.2174,0.2016,0.1971,0.188,0.1657,0.1569,0.139,0.1033,0.0831,0.0606,0.0315,0.0045,-0.0233,-0.052,-0.0723,-0.0934,-0.1279,-0.1489,-0.1804,-0.2221,-0.2963,-0.3539,-0.3848,-0.4293,-0.4756,-0.5062,-0.5155,-0.5102,-0.5153,-0.5166,-0.525,-0.5175,-0.5291,-0.5501,-0.5674,-0.5739,-0.589,-0.6089,-0.6351,-0.6505,-0.6493,-0.6621,-0.6791,-0.7281,-0.778,-0.8099,-0.827,-0.8363,-0.8369,-0.8495,-0.8496,-0.872,-0.8967,-0.9047,-0.9159,-0.9408,-0.9675,-0.9813,-0.9981,-1.0205,-1.0409,0.9777,0.9393,0.9393,0.9432,0.9353,0.915,0.9048,0.8968,0.8639,0.8422,0.8304,0.8009,0.7842,0.7714,0.7446,0.7369,0.7484,0.7369,0.7365,0.7223,0.6817,0.6484,0.6276,0.5985,0.5896,0.5954,0.5987,0.5984,0.6052,0.6037,0.5888,0.5745,0.5759,0.5628,0.5456,0.5352,0.5336,0.5336,0.5207,0.5156,0.5124,0.5011,0.4901,0.477,0.4712,0.4656,0.4539,0.444,0.4135,0.3542,0.3271,0.3111,0.2966,0.2827,0.2638,0.2389,0.233,0.2215,0.204,0.1928,0.1725,0.1412,0.1254,0.1008,0.0721,0.0486,0.0237,-0.012,-0.0248,-0.0456,-0.0816,-0.0998,-0.127,-0.1698,-0.2501,-0.3216,-0.3828,-0.3935,-0.4215,-0.4611,-0.4697,-0.4662,-0.485,-0.482,-0.4823,-0.4811,-0.4902,-0.5083,-0.5198,-0.5313,-0.5403,-0.5588,-0.5798,-0.5911,-0.597,-0.6169,-0.6319,-0.6505,-0.6959,-0.7225,-0.7532,-0.7666,-0.7828,-0.7949,-0.8049,-0.8304,-0.8508,-0.8622,-0.8797,-0.9088,-0.9277,-0.9417,-0.9616,-0.9873,-1.0108,1.0472,1.0342,1.0337,1.0342,1.0294,1.0058,0.9862,0.9728,0.9452,0.9127,0.8741,0.8562,0.8376,0.803,0.7949,0.791,0.7949,0.791,0.7872,0.791,0.7773,0.7231,0.6688,0.6396,0.635,0.6478,0.6511,0.6548,0.6613,0.6624,0.6534,0.6417,0.6375,0.624,0.6058,0.5903,0.5814,0.5782,0.5681,0.5626,0.5599,0.5481,0.5399,0.5371,0.523,0.5144,0.5089,0.5089,0.4765,0.4138,0.3915,0.3713,0.3529,0.3369,0.3176,0.2925,0.2798,0.262,0.244,0.2326,0.2125,0.1748,0.1658,0.1435,0.1032,0.0861,0.0601,0.0297,0.0128,-0.008,-0.0433,-0.0571,-0.085,-0.1407,-0.2093,-0.2764,-0.3206,-0.3355,-0.3547,-0.3984,-0.4121,-0.4193,-0.4286,-0.4477,-0.4561,-0.4495,-0.455,-0.4664,-0.4766,-0.4826,-0.4917,-0.5072,-0.5258,-0.5393,-0.5545,-0.5744,-0.5874,-0.5917,-0.6198,-0.6499,-0.6834,-0.7103,-0.7307,-0.7489,-0.7551,-0.7739,-0.8008,-0.8185,-0.8459,-0.8704,-0.8895,-0.9036,-0.9337,-0.9616,-0.9842,1.103,1.0939,1.0939,1.0944,1.0944,1.0766,1.0608,1.0406,1.0184,0.9854,0.9478,0.9236,0.9032,0.8763,0.8559,0.8518,0.856,0.8513,0.8518,0.8599,0.8593,0.8053,0.7331,0.6968,0.6937,0.6999,0.7036,0.7101,0.7138,0.7204,0.7159,0.7038,0.7036,0.6887,0.6582,0.6477,0.6381,0.6292,0.6141,0.6037,0.6037,0.5918,0.5859,0.5832,0.5719,0.5687,0.566,0.5664,0.5387,0.4847,0.4584,0.439,0.4148,0.3996,0.3743,0.3422,0.3293,0.3123,0.2848,0.2749,0.2526,0.2194,0.2038,0.1813,0.1495,0.1273,0.1039,0.078,0.0608,0.0328,0.0,-0.0252,-0.0533,-0.0896,-0.1513,-0.2128,-0.2657,-0.2713,-0.2935,-0.3294,-0.3541,-0.3669,-0.3749,-0.3995,-0.4101,-0.4107,-0.4122,-0.4228,-0.4326,-0.437,-0.4408,-0.456,-0.4753,-0.4932,-0.5062,-0.5241,-0.5393,-0.5436,-0.5566,-0.5857,-0.6243,-0.6583,-0.6816,-0.7013,-0.7076,-0.7223,-0.753,-0.7801,-0.7979,-0.8214,-0.8447,-0.8741,-0.9044,-0.9277,-0.9516,1.1634,1.137,1.137,1.137,1.1375,1.137,1.1273,1.1074,1.0921,1.0674,1.0367,0.9983,0.9759,0.9718,0.9211,0.916,0.9284,0.9084,0.9198,0.9288,0.929,0.8827,0.8167,0.7803,0.7672,0.7634,0.7619,0.7619,0.7661,0.7727,0.7698,0.7613,0.771,0.7547,0.725,0.7112,0.6987,0.6816,0.6586,0.649,0.6463,0.6376,0.6322,0.6268,0.6241,0.6209,0.6209,0.6209,0.5977,0.5464,0.5292,0.5064,0.4801,0.4659,0.439,0.4055,0.3887,0.3691,0.3401,0.323,0.299,0.2713,0.2544,0.2283,0.2012,0.1808,0.1627,0.1377,0.1108,0.0806,0.042,0.0,-0.0252,-0.0421,-0.0785,-0.1317,-0.182,-0.2071,-0.2294,-0.271,-0.2905,-0.3077,-0.3222,-0.339,-0.3499,-0.3685,-0.3696,-0.3751,-0.3842,-0.3929,-0.393,-0.3972,-0.4202,-0.4465,-0.46,-0.4736,-0.4867,-0.4958,-0.5067,-0.5323,-0.5777,-0.612,-0.6355,-0.6526,-0.6611,-0.6844,-0.7196,-0.7405,-0.7551,-0.7821,-0.8098,-0.8414,-0.8708,-0.8915,-0.9148,1.2112,1.1866,1.1823,1.186,1.1866,1.1866,1.1817,1.1768,1.1724,1.1494,1.1164,1.0843,1.041,0.9959,0.9663,0.9501,0.9582,0.9544,0.9657,0.9965,0.9827,0.9677,0.924,0.8865,0.8485,0.8332,0.8284,0.8284,0.8284,0.8312,0.8328,0.8292,0.8242,0.8214,0.8078,0.7705,0.7519,0.7421,0.7132,0.6945,0.6972,0.6918,0.6842,0.6761,0.6652,0.662,0.6593,0.6593,0.6539,0.6335,0.604,0.5698,0.5449,0.5239,0.5042,0.4817,0.459,0.4394,0.4197,0.393,0.3678,0.3435,0.3233,0.3044,0.27,0.2473,0.2252,0.201,0.1669,0.1288,0.0841,0.0449,0.0224,0.0056,-0.0224,-0.0533,-0.0813,-0.1345,-0.1794,-0.2015,-0.2238,-0.2406,-0.2491,-0.2841,-0.3028,-0.3189,-0.3273,-0.3288,-0.3357,-0.3465,-0.346,-0.3471,-0.3697,-0.3939,-0.4049,-0.4184,-0.4342,-0.4451,-0.4561,-0.467,-0.5128,-0.5539,-0.5728,-0.5949,-0.6126,-0.6419,-0.6753,-0.695,-0.7091,-0.7433,-0.7746,-0.8044,-0.8311,-0.8549,-0.8825,1.2796,1.2674,1.2674,1.2674,1.2637,1.2631,1.2589,1.2503,1.2375,1.2171,1.1811,1.1373,1.0929,1.057,1.0204,1.003,1.003,1.0143,1.025,1.049,1.0512,1.052,1.0331,0.9949,0.9567,0.8994,0.8861,0.8894,0.8958,0.8952,0.8985,0.8979,0.8926,0.8867,0.8734,0.8381,0.8137,0.7964,0.7668,0.7477,0.7477,0.7402,0.7327,0.7192,0.7112,0.7079,0.7085,0.7058,0.7031,0.695,0.6739,0.6413,0.6046,0.5873,0.5725,0.5513,0.5268,0.5065,0.4853,0.4609,0.4316,0.4087,0.3913,0.363,0.3349,0.3095,0.2863,0.257,0.2218,0.1824,0.129,0.0982,0.0757,0.0533,0.0252,0.0028,-0.0196,-0.0729,-0.1262,-0.1457,-0.1653,-0.1822,-0.1989,-0.2238,-0.2458,-0.2605,-0.2658,-0.2704,-0.2872,-0.295,-0.296,-0.3027,-0.3213,-0.3388,-0.348,-0.3634,-0.3836,-0.3946,-0.403,-0.4118,-0.4334,-0.4705,-0.5058,-0.534,-0.5674,-0.5933,-0.6227,-0.6419,-0.6675,-0.6985,-0.7301,-0.7621,-0.794,-0.8201,-0.8521,1.3483,1.3434,1.3434,1.3398,1.3398,1.3355,1.327,1.3094,1.2924,1.2662,1.2391,1.1758,1.1484,1.1271,1.0877,1.0637,1.07,1.0818,1.0962,1.0987,1.1205,1.1168,1.1041,1.0832,1.0495,0.9671,0.9452,0.9472,0.9588,0.9646,0.9626,0.9646,0.9671,0.9592,0.9371,0.9088,0.886,0.8648,0.8343,0.808,0.799,0.7883,0.7777,0.7622,0.7536,0.7536,0.7509,0.7515,0.7488,0.7392,0.7386,0.7117,0.6761,0.6507,0.6404,0.6129,0.5915,0.5721,0.55,0.524,0.499,0.4702,0.4582,0.4296,0.3968,0.3745,0.351,0.3143,0.2783,0.2326,0.1794,0.1542,0.1318,0.1038,0.0729,0.0505,0.028,-0.014,-0.0505,-0.0897,-0.1065,-0.1205,-0.1373,-0.1596,-0.1792,-0.1987,-0.204,-0.2143,-0.2293,-0.2418,-0.2451,-0.2491,-0.266,-0.2835,-0.2923,-0.3059,-0.3258,-0.3369,-0.348,-0.3546,-0.3609,-0.3917,-0.4334,-0.4884,-0.5236,-0.5474,-0.5734,-0.6013,-0.6264,-0.6556,-0.6894,-0.7245,-0.7566,-0.7885,-0.8201,1.3864,1.3652,1.3483,1.3398,1.3398,1.3398,1.344,1.3349,1.3294,1.3132,1.2864,1.251,1.2064,1.1764,1.1432,1.1267,1.1298,1.1446,1.1564,1.1558,1.17,1.164,1.1579,1.1507,1.1243,1.0857,1.0361,1.0085,1.0142,1.0174,1.0269,1.0396,1.0421,1.0362,1.0276,1.0071,0.9741,0.9431,0.9141,0.8849,0.8559,0.8415,0.8289,0.8082,0.7963,0.7904,0.7851,0.7824,0.7824,0.7803,0.7797,0.7744,0.7584,0.7268,0.6999,0.6774,0.6593,0.6405,0.6223,0.5965,0.5759,0.5571,0.5401,0.5113,0.477,0.4528,0.4259,0.3786,0.3302,0.277,0.2155,0.21,0.1877,0.157,0.129,0.1094,0.0925,0.0701,0.0336,-0.0168,-0.0393,-0.0617,-0.0813,-0.0981,-0.1148,-0.1316,-0.1428,-0.1529,-0.1691,-0.1833,-0.1925,-0.1989,-0.2068,-0.2239,-0.2393,-0.2526,-0.2682,-0.2773,-0.2882,-0.2948,-0.3037,-0.3214,-0.3612,-0.4118,-0.46,-0.4927,-0.521,-0.5539,-0.5884,-0.6173,-0.652,-0.688,-0.7175,-0.7475,-0.7808,1.4454,1.4195,1.4104,1.4068,1.4062,1.4068,1.4062,1.4041,1.3776,1.3589,1.3324,1.2903,1.2505,1.2235,1.1983,1.1861,1.1929,1.2077,1.2157,1.2187,1.2254,1.2325,1.2245,1.2136,1.1943,1.1679,1.1197,1.0816,1.0726,1.0769,1.087,1.0958,1.1052,1.1122,1.1051,1.0805,1.048,1.0171,0.9806,0.9445,0.9022,0.889,0.8685,0.8533,0.8421,0.8368,0.8362,0.8368,0.8368,0.8368,0.8368,0.8368,0.8289,0.8129,0.7809,0.7488,0.7214,0.7085,0.6945,0.6733,0.6471,0.6284,0.6163,0.5869,0.5498,0.5246,0.4987,0.4436,0.3913,0.3355,0.2882,0.2742,0.2436,0.2045,0.1821,0.1681,0.1513,0.1401,0.1065,0.0589,0.028,0.0,-0.0308,-0.0449,-0.0533,-0.0645,-0.0785,-0.0923,-0.1066,-0.1213,-0.1329,-0.1436,-0.1492,-0.1634,-0.1789,-0.1901,-0.2036,-0.2148,-0.2237,-0.2304,-0.246,-0.2615,-0.2904,-0.3306,-0.3766,-0.4246,-0.4731,-0.5058,-0.5426,-0.5771,-0.6099,-0.6419,-0.6753,-0.707,-0.7405,1.5124,1.4901,1.4859,1.4817,1.4845,1.4747,1.4677,1.4587,1.4144,1.3843,1.3694,1.3206,1.2871,1.275,1.2624,1.2562,1.2562,1.2709,1.2783,1.282,1.29,1.301,1.3005,1.2863,1.2662,1.2448,1.2244,1.1804,1.1329,1.1303,1.1397,1.1498,1.1654,1.1747,1.1649,1.1494,1.1152,1.0731,1.0373,0.9984,0.9513,0.9237,0.9061,0.8982,0.8982,0.8956,0.8949,0.8956,0.8956,0.8956,0.8956,0.8956,0.8956,0.8956,0.8738,0.8276,0.791,0.7702,0.7568,0.7396,0.7106,0.6891,0.6864,0.6534,0.61,0.5778,0.5504,0.4932,0.4463,0.3993,0.3574,0.338,0.3019,0.2629,0.2406,0.2294,0.2127,0.1987,0.1849,0.1429,0.1009,0.0673,0.0392,0.0168,0.0084,0.0,-0.0112,-0.0193,-0.0343,-0.0561,-0.0717,-0.0827,-0.0935,-0.1057,-0.1164,-0.1231,-0.1365,-0.1499,-0.1567,-0.1611,-0.1791,-0.1969,-0.2284,-0.2573,-0.3015,-0.3517,-0.4049,-0.46,-0.4992,-0.534,-0.5647,-0.5997,-0.6355,-0.6668,-0.7,1.5609,1.5567,1.5394,1.5318,1.526,1.5034,1.4796,1.4577,1.4244,1.379,1.3537,1.3497,1.3374,1.3233,1.3309,1.3346,1.3382,1.3375,1.3419,1.3448,1.3455,1.3564,1.3681,1.3666,1.3382,1.3157,1.3112,1.2565,1.2007,1.1833,1.1872,1.1996,1.2151,1.2212,1.2197,1.212,1.1848,1.13,1.1018,1.0544,0.9896,0.9621,0.9569,0.9543,0.9517,0.9517,0.9517,0.955,0.9543,0.9543,0.951,0.951,0.951,0.951,0.951,0.9223,0.8784,0.8235,0.8135,0.7963,0.7723,0.7488,0.744,0.7112,0.6647,0.6132,0.5805,0.554,0.5066,0.4649,0.4267,0.399,0.366,0.3355,0.3074,0.2933,0.2766,0.2629,0.2491,0.2352,0.1959,0.1485,0.1093,0.0897,0.0729,0.0645,0.0559,0.0494,0.0375,0.0155,-0.0025,-0.014,-0.0296,-0.0427,-0.0492,-0.0582,-0.0672,-0.0828,-0.0873,-0.094,-0.1119,-0.132,-0.1545,-0.188,-0.2324,-0.2812,-0.3388,-0.3939,-0.4465,-0.4884,-0.5215,-0.5583,-0.5976,-0.6291,-0.6577,1.655,1.6105,1.6023,1.5786,1.5497,1.5348,1.5103,1.4801,1.4504,1.4251,1.4043,1.3896,1.3858,1.3863,1.4,1.4065,1.4109,1.4145,1.4109,1.4109,1.4145,1.4173,1.4245,1.4207,1.4022,1.3717,1.362,1.3373,1.2789,1.2459,1.2436,1.2498,1.2621,1.2705,1.2705,1.2705,1.2408,1.1945,1.1452,1.0836,1.0363,1.0154,1.0128,1.0095,1.0095,1.0095,1.012,1.0198,1.0223,1.0241,1.0267,1.0293,1.0241,1.0216,1.019,1.0069,0.9706,0.9237,0.8817,0.8626,0.8342,0.8103,0.7975,0.7756,0.7192,0.6674,0.629,0.6213,0.5719,0.5308,0.4979,0.4708,0.4377,0.4073,0.3796,0.3602,0.3436,0.3299,0.3135,0.3023,0.291,0.2462,0.2014,0.1734,0.1539,0.1344,0.1257,0.1162,0.1052,0.0887,0.0736,0.0592,0.0427,0.0246,0.0179,0.0134,0.0045,-0.0089,-0.0202,-0.0269,-0.047,-0.0672,-0.0895,-0.1187,-0.1611,-0.2146,-0.2702,-0.3366,-0.3983,-0.4377,-0.4775,-0.5123,-0.5474,-0.5847,-0.6221,1.7364,1.6758,1.6587,1.6283,1.588,1.5716,1.5444,1.5103,1.4808,1.4624,1.4562,1.4405,1.4405,1.4569,1.4641,1.4748,1.482,1.4856,1.4883,1.4883,1.4883,1.4883,1.4919,1.4898,1.4643,1.4073,1.4247,1.399,1.358,1.3277,1.3103,1.2981,1.3133,1.3194,1.3194,1.3169,1.2985,1.2535,1.1815,1.1253,1.0931,1.0767,1.0709,1.0693,1.0718,1.0752,1.0777,1.0871,1.0939,1.0972,1.1023,1.1015,1.0939,1.0888,1.0845,1.0744,1.0506,1.0198,0.9732,0.9394,0.9054,0.8765,0.8474,0.8256,0.7788,0.7268,0.6945,0.6891,0.6408,0.6055,0.5755,0.5367,0.5066,0.4763,0.4487,0.4294,0.4101,0.3965,0.3855,0.3713,0.3602,0.3519,0.3098,0.2708,0.2402,0.2125,0.1952,0.1863,0.1726,0.1587,0.1424,0.1275,0.112,0.0985,0.094,0.0873,0.076,0.0649,0.0538,0.0381,0.0224,0.0,-0.0224,-0.0559,-0.0918,-0.1365,-0.1876,-0.2699,-0.3476,-0.3807,-0.4158,-0.4556,-0.4954,-0.535,-0.5847,1.7939,1.7635,1.7021,1.6743,1.663,1.5991,1.5601,1.5425,1.5065,1.482,1.4756,1.48,1.4963,1.5141,1.5284,1.539,1.5461,1.563,1.5692,1.5692,1.5727,1.57,1.5683,1.5599,1.536,1.4867,1.48,1.454,1.4239,1.4061,1.3791,1.3541,1.367,1.3731,1.3731,1.3713,1.348,1.2998,1.2297,1.1911,1.1679,1.1473,1.1251,1.1276,1.1352,1.1427,1.1427,1.1544,1.1619,1.1628,1.1678,1.1678,1.1619,1.1553,1.1502,1.1377,1.1293,1.1015,1.0659,1.0113,0.9647,0.9328,0.9014,0.8705,0.8342,0.8043,0.775,0.7461,0.7058,0.6712,0.6381,0.5996,0.575,0.5504,0.5258,0.5011,0.4846,0.4712,0.4574,0.4432,0.4319,0.4263,0.4125,0.3735,0.3211,0.2931,0.2758,0.2664,0.244,0.2293,0.2097,0.1943,0.1829,0.1746,0.1724,0.1634,0.1521,0.1387,0.1253,0.1097,0.0917,0.0693,0.0403,0.0112,-0.0224,-0.0649,-0.1097,-0.183,-0.2519,-0.3101,-0.3565,-0.4005,-0.4556,-0.5067,-0.5539,1.815,1.7915,1.7289,1.6848,1.6476,1.6198,1.5909,1.5698,1.5512,1.5417,1.5346,1.5417,1.5568,1.5744,1.585,1.5991,1.6158,1.6228,1.6368,1.6447,1.6482,1.6482,1.6419,1.6134,1.5853,1.5425,1.5228,1.4929,1.4543,1.4636,1.4636,1.4458,1.433,1.4231,1.4231,1.4222,1.3956,1.3597,1.3057,1.2699,1.2339,1.2128,1.1927,1.1927,1.2051,1.2101,1.2126,1.2249,1.2308,1.2332,1.2397,1.2372,1.2314,1.2249,1.215,1.2026,1.1927,1.1778,1.1452,1.0854,1.03,0.981,0.9491,0.9197,0.8923,0.862,0.8335,0.8049,0.7756,0.7402,0.7117,0.6788,0.6539,0.6268,0.6023,0.5778,0.5586,0.5454,0.5312,0.5171,0.5089,0.5062,0.4924,0.4732,0.4208,0.3738,0.3589,0.3413,0.3219,0.3054,0.2918,0.2759,0.2644,0.2528,0.2503,0.2406,0.2286,0.2125,0.1967,0.1787,0.1609,0.1276,0.1007,0.0739,0.0425,0.0022,-0.0447,-0.0984,-0.1654,-0.2433,-0.3034,-0.3498,-0.4092,-0.4714,-0.5145,1.8183,1.8036,1.754,1.6965,1.6493,1.6389,1.6261,1.6079,1.6123,1.6114,1.6123,1.6123,1.6202,1.6342,1.6447,1.6542,1.6751,1.6821,1.6968,1.7003,1.7047,1.7017,1.6841,1.6581,1.6244,1.5834,1.5601,1.5308,1.5059,1.5147,1.5205,1.5147,1.504,1.4922,1.4715,1.4726,1.4606,1.4325,1.3942,1.3539,1.3163,1.2871,1.2596,1.2582,1.2657,1.2754,1.2779,1.2876,1.2958,1.2983,1.3007,1.3041,1.2983,1.291,1.2788,1.2642,1.251,1.2387,1.2042,1.1469,1.0863,1.0352,1.0172,0.9829,0.9498,0.9256,0.9047,0.8659,0.8388,0.809,0.7815,0.7488,0.7241,0.6966,0.6723,0.648,0.6349,0.6218,0.605,0.5909,0.5855,0.5828,0.5773,0.5605,0.5085,0.4563,0.426,0.4151,0.4016,0.3894,0.3836,0.367,0.3519,0.3393,0.3298,0.3184,0.3071,0.2901,0.2721,0.2521,0.2277,0.1945,0.1636,0.1389,0.1052,0.0649,0.0224,-0.0223,-0.1029,-0.1901,-0.2479,-0.3056,-0.3568,-0.4166,-0.4556,1.8121,1.8038,1.766,1.7296,1.6884,1.6678,1.6586,1.6603,1.6795,1.683,1.6864,1.6874,1.6908,1.6943,1.7072,1.7166,1.7279,1.7392,1.7505,1.7529,1.7459,1.7229,1.7026,1.6815,1.6491,1.6004,1.5825,1.5752,1.5643,1.5672,1.573,1.5827,1.573,1.5575,1.5225,1.5303,1.5371,1.5293,1.4932,1.4492,1.4121,1.3771,1.3397,1.3287,1.3272,1.3372,1.342,1.3501,1.3573,1.3573,1.3573,1.3597,1.3563,1.3467,1.3348,1.3204,1.3074,1.2914,1.2642,1.1918,1.1418,1.1015,1.0837,1.0582,1.0154,0.9921,0.9732,0.9342,0.908,0.8791,0.8448,0.8123,0.7937,0.7696,0.745,0.7241,0.7112,0.7004,0.6864,0.6669,0.6615,0.6556,0.6561,0.6421,0.5932,0.5469,0.5034,0.4853,0.4839,0.4813,0.4803,0.47,0.453,0.4291,0.4172,0.3995,0.3862,0.3685,0.3473,0.3252,0.3009,0.2724,0.2415,0.2085,0.1725,0.1343,0.0962,0.0582,-0.0291,-0.1163,-0.2012,-0.2637,-0.3126,-0.3568,-0.3939,1.8316,1.8237,1.8091,1.788,1.7596,1.731,1.7176,1.722,1.7348,1.7442,1.7476,1.7554,1.7632,1.7666,1.7701,1.7794,1.793,1.7964,1.8042,1.8104,1.7888,1.7714,1.7419,1.6936,1.6624,1.6427,1.6277,1.6134,1.6095,1.6124,1.6124,1.6192,1.6306,1.6153,1.5912,1.5855,1.5874,1.5918,1.5601,1.529,1.5107,1.4599,1.4196,1.4087,1.4005,1.3965,1.4035,1.4093,1.4116,1.4116,1.4116,1.414,1.414,1.4046,1.3952,1.3787,1.3634,1.3491,1.3204,1.2735,1.2344,1.1909,1.1502,1.1276,1.0922,1.0693,1.0403,1.0069,0.9784,0.9524,0.9223,0.8942,0.8732,0.8461,0.8249,0.8043,0.7889,0.7815,0.7702,0.7456,0.7343,0.7295,0.7268,0.7369,0.6988,0.6718,0.6394,0.6041,0.5962,0.5885,0.5845,0.5774,0.5632,0.5329,0.5097,0.4924,0.466,0.4409,0.4182,0.3939,0.3697,0.3454,0.3103,0.2749,0.2393,0.2059,0.1566,0.1074,0.0403,-0.038,-0.1184,-0.1921,-0.241,-0.2832,-0.3255,1.8573,1.8472,1.8405,1.8347,1.8202,1.7906,1.7803,1.7837,1.7964,1.8022,1.8124,1.8202,1.8313,1.8371,1.8405,1.8438,1.8573,1.8573,1.8402,1.8494,1.823,1.7843,1.7407,1.7083,1.6817,1.6689,1.6618,1.6485,1.657,1.6599,1.6627,1.6684,1.6751,1.6797,1.6655,1.6599,1.6475,1.6514,1.6339,1.6155,1.5871,1.544,1.5007,1.4804,1.462,1.4454,1.4558,1.4581,1.4605,1.4628,1.4651,1.4651,1.4628,1.4605,1.4489,1.4314,1.4127,1.3999,1.3776,1.3539,1.3156,1.2876,1.2314,1.1877,1.1603,1.1326,1.104,1.0735,1.0514,1.0223,0.9925,0.9699,0.9491,0.9249,0.9014,0.8811,0.8685,0.858,0.8501,0.8256,0.815,0.807,0.8049,0.8129,0.807,0.7937,0.7777,0.7423,0.7047,0.6913,0.6821,0.6756,0.6639,0.6353,0.6057,0.5839,0.5545,0.5187,0.4895,0.4644,0.436,0.4092,0.3741,0.3413,0.3078,0.2679,0.2103,0.1523,0.1006,0.0425,-0.0246,-0.0938,-0.1607,-0.2097,-0.2521,1.8841,1.8785,1.8617,1.8684,1.8774,1.8539,1.8438,1.8516,1.8516,1.8607,1.8808,1.8764,1.8908,1.9075,1.9098,1.9131,1.9079,1.9123,1.8851,1.855,1.8342,1.7833,1.7437,1.7143,1.6998,1.686,1.6853,1.7022,1.7039,1.7162,1.7217,1.7245,1.7312,1.7396,1.7412,1.7346,1.7207,1.7202,1.7158,1.6967,1.6703,1.6299,1.5933,1.563,1.528,1.506,1.5028,1.5005,1.5006,1.5062,1.5108,1.5108,1.5108,1.5131,1.4949,1.4754,1.4535,1.4443,1.435,1.414,1.401,1.3692,1.3094,1.2559,1.219,1.1943,1.1694,1.1444,1.1217,1.0888,1.0574,1.0421,1.0267,1.0002,0.9769,0.9595,0.9439,0.9335,0.9263,0.9126,0.9021,0.8968,0.8942,0.9001,0.8988,0.8935,0.8771,0.8587,0.821,0.7797,0.7717,0.7679,0.754,0.7359,0.7086,0.6812,0.647,0.6119,0.5651,0.5334,0.5031,0.4753,0.4421,0.4114,0.3781,0.3319,0.2702,0.2192,0.1724,0.1164,0.0648,-0.0089,-0.0804,-0.1274,-0.1722,1.9506,1.9374,1.9308,1.9407,1.9572,1.9594,1.9353,1.8965,1.9008,1.9119,1.9175,1.9308,1.9473,1.9671,1.966,1.9715,1.9652,1.9501,1.9265,1.8942,1.8439,1.7999,1.7635,1.7381,1.7268,1.7311,1.7423,1.7551,1.765,1.7772,1.7838,1.7865,1.7865,1.8002,1.8111,1.8143,1.8018,1.792,1.7893,1.7741,1.7542,1.7175,1.6923,1.6667,1.6062,1.5846,1.5777,1.552,1.5461,1.5401,1.5503,1.5525,1.5537,1.5525,1.5413,1.5176,1.5006,1.488,1.4857,1.4651,1.4523,1.4443,1.3941,1.3467,1.3025,1.2662,1.2403,1.2157,1.1918,1.1601,1.1376,1.12,1.1032,1.0804,1.06,1.0421,1.0233,1.0105,1.001,0.9855,0.9744,0.9769,0.9777,0.9769,0.9788,0.9788,0.9762,0.9633,0.934,0.8902,0.862,0.8574,0.8521,0.8377,0.8066,0.7773,0.7427,0.7054,0.653,0.605,0.5739,0.5443,0.514,0.477,0.4351,0.3847,0.3274,0.2832,0.2479,0.2103,0.1564,0.0782,0.0067,-0.0425,-0.0851,2.0042,1.99,1.9824,1.9933,2.0183,2.0345,2.0204,1.9922,1.9726,1.9627,1.9747,1.9868,2.0009,2.0161,2.0061,1.9993,2.0012,1.9643,1.934,1.8959,1.8574,1.8251,1.794,1.774,1.7673,1.7755,1.7893,1.803,1.8127,1.8302,1.8383,1.8452,1.8452,1.8572,1.8679,1.8735,1.8789,1.8655,1.856,1.8491,1.8277,1.7985,1.7852,1.7692,1.7011,1.6753,1.6573,1.6224,1.6089,1.5939,1.6013,1.6013,1.5991,1.5947,1.5881,1.5637,1.548,1.5401,1.5334,1.5187,1.5085,1.4971,1.4766,1.4408,1.3884,1.3457,1.317,1.289,1.2647,1.2369,1.2206,1.2008,1.1819,1.1594,1.1418,1.1242,1.1057,1.088,1.0702,1.0515,1.049,1.0515,1.0541,1.0558,1.0609,1.0744,1.0795,1.077,1.0431,0.9987,0.9651,0.9462,0.9474,0.9427,0.9101,0.8737,0.8313,0.7854,0.7241,0.6804,0.6489,0.613,0.5766,0.5334,0.4857,0.4417,0.4019,0.3649,0.3296,0.2921,0.2544,0.1919,0.116,0.0469,0.0067,2.0464,2.0432,2.028,2.0399,2.0667,2.0871,2.1031,2.119,2.0571,2.0313,2.0464,2.0475,2.0528,2.0508,2.0301,2.0127,2.0015,1.9677,1.9366,1.8953,1.8804,1.8552,1.8338,1.8166,1.8182,1.8247,1.8356,1.8518,1.8572,1.8706,1.8893,1.904,1.904,1.9093,1.9186,1.9265,1.9317,1.937,1.9265,1.916,1.8972,1.8644,1.8304,1.8319,1.7921,1.7532,1.7306,1.7115,1.696,1.6732,1.6631,1.6647,1.6457,1.6383,1.6275,1.6166,1.5979,1.5891,1.5824,1.5702,1.5613,1.5536,1.5413,1.5153,1.472,1.4142,1.38,1.3586,1.3314,1.3098,1.2905,1.2745,1.2574,1.2378,1.2172,1.1974,1.1792,1.1626,1.1485,1.1334,1.1326,1.1351,1.1385,1.141,1.1426,1.1635,1.1719,1.1694,1.1551,1.1099,1.0779,1.0474,1.0397,1.0357,1.0139,0.9759,0.922,0.8678,0.807,0.7553,0.723,0.6838,0.6392,0.6007,0.5593,0.5248,0.4874,0.4522,0.415,0.3803,0.3426,0.3031,0.2364,0.1628,0.105,2.1126,2.1031,2.1083,2.1135,2.123,2.1423,2.158,2.1706,2.1569,2.125,2.1063,2.0985,2.0823,2.058,2.0457,2.0306,2.0012,1.9639,1.9444,1.9195,1.9038,1.89,1.8795,1.8732,1.8747,1.8827,1.8934,1.904,1.9131,1.9237,1.9316,1.9422,1.9486,1.9552,1.9669,1.9734,1.9837,1.9939,1.9991,1.9837,1.9645,1.9594,1.9419,1.9282,1.8983,1.8756,1.8523,1.8338,1.7941,1.7549,1.7538,1.7316,1.6897,1.6803,1.6705,1.6586,1.6457,1.6371,1.6306,1.6228,1.6141,1.6022,1.5903,1.577,1.5424,1.4811,1.4408,1.4222,1.4035,1.38,1.361,1.3467,1.3334,1.3132,1.2929,1.2725,1.2545,1.2393,1.2249,1.22,1.2166,1.2175,1.22,1.2224,1.2274,1.2323,1.2406,1.2471,1.254,1.2291,1.1956,1.1658,1.141,1.1291,1.1064,1.0727,1.0188,0.9647,0.9076,0.8532,0.7976,0.7551,0.7126,0.6759,0.6377,0.6066,0.576,0.5421,0.5048,0.4718,0.4347,0.3971,0.3668,0.3067,0.2359,2.131,2.1284,2.1631,2.1776,2.1851,2.1956,2.1961,2.1867,2.1843,2.1589,2.1162,2.1158,2.0998,2.057,2.0399,2.0268,1.9984,1.9562,1.9441,1.9314,1.9269,1.9189,1.9158,1.921,1.9225,1.9265,1.9422,1.9526,1.9655,1.9681,1.9759,1.9888,1.9965,2.0016,2.0131,2.0245,2.0296,2.0385,2.0586,2.0548,2.0334,2.0283,2.0182,2.0053,2.0,1.9827,1.9636,1.9441,1.914,1.8622,1.8433,1.8195,1.7811,1.7481,1.7212,1.7081,1.6976,1.6884,1.6808,1.671,1.6637,1.6522,1.6448,1.634,1.6132,1.5557,1.5255,1.5062,1.4697,1.4467,1.4305,1.4176,1.4022,1.3823,1.3647,1.3447,1.3266,1.306,1.289,1.2745,1.2769,1.2793,1.2852,1.2949,1.3011,1.3132,1.32,1.3262,1.3338,1.3389,1.3088,1.2871,1.2604,1.2236,1.1951,1.1586,1.1125,1.0588,1.0053,0.9287,0.8635,0.8258,0.7884,0.753,0.7217,0.6964,0.6634,0.6295,0.6012,0.5722,0.5314,0.493,0.4652,0.4413,0.3814,2.126,2.1344,2.1807,2.2122,2.2244,2.222,2.2042,2.1822,2.1802,2.1506,2.1083,2.1204,2.0955,2.0527,2.0225,2.0061,1.99,1.9648,1.9519,1.9534,1.9497,1.9512,1.9551,1.9551,1.9642,1.9708,1.9837,1.9939,2.0054,2.008,2.0182,2.0397,2.0498,2.0535,2.0635,2.0709,2.0759,2.0871,2.0995,2.1118,2.1044,2.0921,2.0759,2.0759,2.0805,2.074,2.0552,2.0475,2.0333,1.9876,1.9388,1.9129,1.8903,1.8533,1.8097,1.7892,1.7748,1.7565,1.7363,1.7269,1.7157,1.7065,1.7002,1.6876,1.6637,1.6423,1.6098,1.5822,1.5467,1.5153,1.4994,1.4846,1.4697,1.4546,1.4362,1.4176,1.3975,1.3787,1.36,1.3423,1.3457,1.3505,1.3576,1.3681,1.3776,1.3918,1.4012,1.4095,1.4131,1.4177,1.4061,1.3956,1.3828,1.344,1.2938,1.2564,1.2171,1.158,1.1023,1.008,0.9299,0.8949,0.8606,0.8308,0.8013,0.7807,0.7544,0.7224,0.6938,0.6693,0.6325,0.5969,0.5712,0.5454,0.5173,2.1047,2.1047,2.1198,2.1334,2.1436,2.1465,2.1533,2.171,2.1697,2.1479,2.1129,2.1053,2.0878,2.0409,2.0375,2.0221,1.9969,1.9771,1.9849,1.9888,1.9875,1.9952,1.9991,1.9991,2.0131,2.022,2.0296,2.0359,2.0498,2.051,2.056,2.0734,2.0885,2.0959,2.1106,2.1166,2.1251,2.1361,2.1434,2.1554,2.1592,2.1458,2.1288,2.1337,2.1482,2.151,2.157,2.1745,2.1462,2.0991,2.0454,2.016,1.9957,1.9712,1.9301,1.8921,1.8748,1.8365,1.816,1.795,1.7813,1.755,1.7468,1.7352,1.7193,1.7081,1.6837,1.6667,1.6312,1.5876,1.5656,1.5512,1.5345,1.5221,1.5074,1.4891,1.4696,1.457,1.4456,1.4376,1.4376,1.441,1.4422,1.4502,1.4525,1.4617,1.464,1.4709,1.4892,1.4937,1.4949,1.4949,1.4915,1.4479,1.3933,1.3663,1.3258,1.2667,1.1969,1.1074,1.0293,0.9652,0.931,0.909,0.8889,0.8707,0.8423,0.8136,0.7882,0.7619,0.7328,0.7027,0.6768,0.6528,0.6261]}]]